<?xml version="1.0" encoding="UTF-8" standalone="no" ?>
<gpx xmlns="http://www.topografix.com/GPX/1/1" xmlns:xsi="http://www.w3.org/2001/XMLSchema-instance" xsi:schemaLocation="http://www.topografix.com/GPX/1/1 http://www.topografix.com/GPX/1/1/gpx.xsd" version="1.1" creator="VisuGPX - https://www.visugpx.com">
  <metadata>
    <name>Rando la cinglaise </name>
    <desc><![CDATA[24 juin 2012]]></desc>
  </metadata>
  <trk>
    <name><![CDATA[Tracé actuel: 24 JUIN 2012 08:02]]></name>
    <trkseg>
      <trkpt lat="49.04336" lon="-0.31554">
        <ele>109.25</ele>
        <time>2012-06-24T06:02:17Z</time>
      </trkpt>
      <trkpt lat="49.04334" lon="-0.31549">
        <ele>109.25</ele>
        <time>2012-06-24T06:02:18Z</time>
      </trkpt>
      <trkpt lat="49.04332" lon="-0.31545">
        <ele>100.6</ele>
        <time>2012-06-24T06:02:19Z</time>
      </trkpt>
      <trkpt lat="49.04327" lon="-0.3153">
        <ele>98.67</ele>
        <time>2012-06-24T06:02:22Z</time>
      </trkpt>
      <trkpt lat="49.04295" lon="-0.31449">
        <ele>99.63</ele>
        <time>2012-06-24T06:02:36Z</time>
      </trkpt>
      <trkpt lat="49.04281" lon="-0.31418">
        <ele>101.56</ele>
        <time>2012-06-24T06:02:42Z</time>
      </trkpt>
      <trkpt lat="49.0428" lon="-0.31413">
        <ele>101.56</ele>
        <time>2012-06-24T06:02:43Z</time>
      </trkpt>
      <trkpt lat="49.04278" lon="-0.31407">
        <ele>101.08</ele>
        <time>2012-06-24T06:02:44Z</time>
      </trkpt>
      <trkpt lat="49.04278" lon="-0.31401">
        <ele>101.08</ele>
        <time>2012-06-24T06:02:45Z</time>
      </trkpt>
      <trkpt lat="49.04277" lon="-0.31395">
        <ele>101.08</ele>
        <time>2012-06-24T06:02:46Z</time>
      </trkpt>
      <trkpt lat="49.04277" lon="-0.31388">
        <ele>101.08</ele>
        <time>2012-06-24T06:02:47Z</time>
      </trkpt>
      <trkpt lat="49.04277" lon="-0.31382">
        <ele>102.04</ele>
        <time>2012-06-24T06:02:48Z</time>
      </trkpt>
      <trkpt lat="49.04278" lon="-0.31376">
        <ele>102.04</ele>
        <time>2012-06-24T06:02:49Z</time>
      </trkpt>
      <trkpt lat="49.04278" lon="-0.3137">
        <ele>101.56</ele>
        <time>2012-06-24T06:02:50Z</time>
      </trkpt>
      <trkpt lat="49.04278" lon="-0.31364">
        <ele>102.04</ele>
        <time>2012-06-24T06:02:51Z</time>
      </trkpt>
      <trkpt lat="49.04295" lon="-0.31283">
        <ele>102.04</ele>
        <time>2012-06-24T06:03:04Z</time>
      </trkpt>
      <trkpt lat="49.04297" lon="-0.31264">
        <ele>102.52</ele>
        <time>2012-06-24T06:03:07Z</time>
      </trkpt>
      <trkpt lat="49.04294" lon="-0.31169">
        <ele>104.44</ele>
        <time>2012-06-24T06:03:21Z</time>
      </trkpt>
      <trkpt lat="49.04277" lon="-0.31078">
        <ele>105.4</ele>
        <time>2012-06-24T06:03:34Z</time>
      </trkpt>
      <trkpt lat="49.04255" lon="-0.3097">
        <ele>105.4</ele>
        <time>2012-06-24T06:03:50Z</time>
      </trkpt>
      <trkpt lat="49.04235" lon="-0.3087">
        <ele>104.44</ele>
        <time>2012-06-24T06:04:05Z</time>
      </trkpt>
      <trkpt lat="49.04233" lon="-0.30857">
        <ele>105.88</ele>
        <time>2012-06-24T06:04:07Z</time>
      </trkpt>
      <trkpt lat="49.04213" lon="-0.30748">
        <ele>104.92</ele>
        <time>2012-06-24T06:04:23Z</time>
      </trkpt>
      <trkpt lat="49.04203" lon="-0.30689">
        <ele>105.4</ele>
        <time>2012-06-24T06:04:32Z</time>
      </trkpt>
      <trkpt lat="49.04202" lon="-0.30682">
        <ele>105.88</ele>
        <time>2012-06-24T06:04:33Z</time>
      </trkpt>
      <trkpt lat="49.042" lon="-0.30676">
        <ele>105.4</ele>
        <time>2012-06-24T06:04:34Z</time>
      </trkpt>
      <trkpt lat="49.04198" lon="-0.3067">
        <ele>105.88</ele>
        <time>2012-06-24T06:04:35Z</time>
      </trkpt>
      <trkpt lat="49.04196" lon="-0.30664">
        <ele>105.4</ele>
        <time>2012-06-24T06:04:36Z</time>
      </trkpt>
      <trkpt lat="49.04193" lon="-0.3066">
        <ele>105.4</ele>
        <time>2012-06-24T06:04:37Z</time>
      </trkpt>
      <trkpt lat="49.0419" lon="-0.30655">
        <ele>105.4</ele>
        <time>2012-06-24T06:04:38Z</time>
      </trkpt>
      <trkpt lat="49.04187" lon="-0.3065">
        <ele>105.88</ele>
        <time>2012-06-24T06:04:39Z</time>
      </trkpt>
      <trkpt lat="49.04184" lon="-0.30646">
        <ele>105.88</ele>
        <time>2012-06-24T06:04:40Z</time>
      </trkpt>
      <trkpt lat="49.04123" lon="-0.30543">
        <ele>103.96</ele>
        <time>2012-06-24T06:04:58Z</time>
      </trkpt>
      <trkpt lat="49.04107" lon="-0.3051">
        <ele>103.96</ele>
        <time>2012-06-24T06:05:03Z</time>
      </trkpt>
      <trkpt lat="49.04104" lon="-0.30503">
        <ele>104.44</ele>
        <time>2012-06-24T06:05:04Z</time>
      </trkpt>
      <trkpt lat="49.04059" lon="-0.30393">
        <ele>104.92</ele>
        <time>2012-06-24T06:05:20Z</time>
      </trkpt>
      <trkpt lat="49.0401" lon="-0.30291">
        <ele>104.44</ele>
        <time>2012-06-24T06:05:35Z</time>
      </trkpt>
      <trkpt lat="49.0395" lon="-0.3019">
        <ele>104.44</ele>
        <time>2012-06-24T06:05:52Z</time>
      </trkpt>
      <trkpt lat="49.03897" lon="-0.30095">
        <ele>103</ele>
        <time>2012-06-24T06:06:06Z</time>
      </trkpt>
      <trkpt lat="49.03838" lon="-0.29998">
        <ele>102.52</ele>
        <time>2012-06-24T06:06:20Z</time>
      </trkpt>
      <trkpt lat="49.03807" lon="-0.29954">
        <ele>102.04</ele>
        <time>2012-06-24T06:06:27Z</time>
      </trkpt>
      <trkpt lat="49.03802" lon="-0.29948">
        <ele>102.04</ele>
        <time>2012-06-24T06:06:28Z</time>
      </trkpt>
      <trkpt lat="49.03797" lon="-0.29944">
        <ele>102.04</ele>
        <time>2012-06-24T06:06:29Z</time>
      </trkpt>
      <trkpt lat="49.03792" lon="-0.2994">
        <ele>101.56</ele>
        <time>2012-06-24T06:06:30Z</time>
      </trkpt>
      <trkpt lat="49.03786" lon="-0.29937">
        <ele>101.56</ele>
        <time>2012-06-24T06:06:31Z</time>
      </trkpt>
      <trkpt lat="49.03719" lon="-0.29902">
        <ele>104.92</ele>
        <time>2012-06-24T06:06:43Z</time>
      </trkpt>
      <trkpt lat="49.03671" lon="-0.29884">
        <ele>103.96</ele>
        <time>2012-06-24T06:06:52Z</time>
      </trkpt>
      <trkpt lat="49.03601" lon="-0.29889">
        <ele>102.04</ele>
        <time>2012-06-24T06:07:05Z</time>
      </trkpt>
      <trkpt lat="49.03519" lon="-0.29917">
        <ele>104.44</ele>
        <time>2012-06-24T06:07:20Z</time>
      </trkpt>
      <trkpt lat="49.03436" lon="-0.29929">
        <ele>105.4</ele>
        <time>2012-06-24T06:07:35Z</time>
      </trkpt>
      <trkpt lat="49.03398" lon="-0.29926">
        <ele>104.44</ele>
        <time>2012-06-24T06:07:42Z</time>
      </trkpt>
      <trkpt lat="49.03393" lon="-0.29928">
        <ele>105.4</ele>
        <time>2012-06-24T06:07:43Z</time>
      </trkpt>
      <trkpt lat="49.03388" lon="-0.2993">
        <ele>105.88</ele>
        <time>2012-06-24T06:07:44Z</time>
      </trkpt>
      <trkpt lat="49.03338" lon="-0.29963">
        <ele>103.96</ele>
        <time>2012-06-24T06:07:54Z</time>
      </trkpt>
      <trkpt lat="49.03299" lon="-0.29988">
        <ele>103.96</ele>
        <time>2012-06-24T06:08:02Z</time>
      </trkpt>
      <trkpt lat="49.03289" lon="-0.29995">
        <ele>103</ele>
        <time>2012-06-24T06:08:04Z</time>
      </trkpt>
      <trkpt lat="49.03239" lon="-0.30042">
        <ele>102.04</ele>
        <time>2012-06-24T06:08:14Z</time>
      </trkpt>
      <trkpt lat="49.03155" lon="-0.30125">
        <ele>101.56</ele>
        <time>2012-06-24T06:08:31Z</time>
      </trkpt>
      <trkpt lat="49.03107" lon="-0.30184">
        <ele>101.56</ele>
        <time>2012-06-24T06:08:41Z</time>
      </trkpt>
      <trkpt lat="49.0303" lon="-0.30232">
        <ele>102.04</ele>
        <time>2012-06-24T06:08:55Z</time>
      </trkpt>
      <trkpt lat="49.03025" lon="-0.30238">
        <ele>102.52</ele>
        <time>2012-06-24T06:08:56Z</time>
      </trkpt>
      <trkpt lat="49.03021" lon="-0.30245">
        <ele>101.56</ele>
        <time>2012-06-24T06:08:57Z</time>
      </trkpt>
      <trkpt lat="49.03018" lon="-0.30253">
        <ele>101.08</ele>
        <time>2012-06-24T06:08:58Z</time>
      </trkpt>
      <trkpt lat="49.03015" lon="-0.30262">
        <ele>100.11</ele>
        <time>2012-06-24T06:08:59Z</time>
      </trkpt>
      <trkpt lat="49.03012" lon="-0.30271">
        <ele>100.11</ele>
        <time>2012-06-24T06:09:00Z</time>
      </trkpt>
      <trkpt lat="49.03011" lon="-0.30282">
        <ele>99.15</ele>
        <time>2012-06-24T06:09:01Z</time>
      </trkpt>
      <trkpt lat="49.03011" lon="-0.30292">
        <ele>99.63</ele>
        <time>2012-06-24T06:09:02Z</time>
      </trkpt>
      <trkpt lat="49.03013" lon="-0.30303">
        <ele>98.67</ele>
        <time>2012-06-24T06:09:03Z</time>
      </trkpt>
      <trkpt lat="49.03016" lon="-0.30314">
        <ele>98.19</ele>
        <time>2012-06-24T06:09:04Z</time>
      </trkpt>
      <trkpt lat="49.03018" lon="-0.30324">
        <ele>98.19</ele>
        <time>2012-06-24T06:09:05Z</time>
      </trkpt>
      <trkpt lat="49.03019" lon="-0.30335">
        <ele>97.23</ele>
        <time>2012-06-24T06:09:06Z</time>
      </trkpt>
      <trkpt lat="49.0303" lon="-0.30435">
        <ele>96.27</ele>
        <time>2012-06-24T06:09:16Z</time>
      </trkpt>
      <trkpt lat="49.03027" lon="-0.3044">
        <ele>96.27</ele>
        <time>2012-06-24T06:09:17Z</time>
      </trkpt>
      <trkpt lat="49.03023" lon="-0.30443">
        <ele>95.79</ele>
        <time>2012-06-24T06:09:18Z</time>
      </trkpt>
      <trkpt lat="49.03019" lon="-0.30445">
        <ele>95.31</ele>
        <time>2012-06-24T06:09:19Z</time>
      </trkpt>
      <trkpt lat="49.03014" lon="-0.30445">
        <ele>95.79</ele>
        <time>2012-06-24T06:09:20Z</time>
      </trkpt>
      <trkpt lat="49.03002" lon="-0.30447">
        <ele>93.39</ele>
        <time>2012-06-24T06:09:22Z</time>
      </trkpt>
      <trkpt lat="49.02996" lon="-0.30444">
        <ele>93.39</ele>
        <time>2012-06-24T06:09:23Z</time>
      </trkpt>
      <trkpt lat="49.02992" lon="-0.30438">
        <ele>91.94</ele>
        <time>2012-06-24T06:09:24Z</time>
      </trkpt>
      <trkpt lat="49.02988" lon="-0.30429">
        <ele>90.98</ele>
        <time>2012-06-24T06:09:25Z</time>
      </trkpt>
      <trkpt lat="49.02984" lon="-0.3042">
        <ele>90.02</ele>
        <time>2012-06-24T06:09:26Z</time>
      </trkpt>
      <trkpt lat="49.0298" lon="-0.30409">
        <ele>88.58</ele>
        <time>2012-06-24T06:09:27Z</time>
      </trkpt>
      <trkpt lat="49.02973" lon="-0.30399">
        <ele>87.14</ele>
        <time>2012-06-24T06:09:28Z</time>
      </trkpt>
      <trkpt lat="49.02965" lon="-0.3039">
        <ele>85.69</ele>
        <time>2012-06-24T06:09:29Z</time>
      </trkpt>
      <trkpt lat="49.02956" lon="-0.30382">
        <ele>85.69</ele>
        <time>2012-06-24T06:09:30Z</time>
      </trkpt>
      <trkpt lat="49.02948" lon="-0.30376">
        <ele>84.73</ele>
        <time>2012-06-24T06:09:31Z</time>
      </trkpt>
      <trkpt lat="49.0294" lon="-0.30371">
        <ele>84.25</ele>
        <time>2012-06-24T06:09:32Z</time>
      </trkpt>
      <trkpt lat="49.02931" lon="-0.30369">
        <ele>83.77</ele>
        <time>2012-06-24T06:09:33Z</time>
      </trkpt>
      <trkpt lat="49.02896" lon="-0.30359">
        <ele>79.93</ele>
        <time>2012-06-24T06:09:37Z</time>
      </trkpt>
      <trkpt lat="49.02887" lon="-0.30358">
        <ele>80.41</ele>
        <time>2012-06-24T06:09:38Z</time>
      </trkpt>
      <trkpt lat="49.0287" lon="-0.30359">
        <ele>78.97</ele>
        <time>2012-06-24T06:09:40Z</time>
      </trkpt>
      <trkpt lat="49.02841" lon="-0.30367">
        <ele>74.64</ele>
        <time>2012-06-24T06:09:43Z</time>
      </trkpt>
      <trkpt lat="49.02823" lon="-0.30372">
        <ele>72.72</ele>
        <time>2012-06-24T06:09:45Z</time>
      </trkpt>
      <trkpt lat="49.02805" lon="-0.30375">
        <ele>71.27</ele>
        <time>2012-06-24T06:09:47Z</time>
      </trkpt>
      <trkpt lat="49.02796" lon="-0.30375">
        <ele>72.24</ele>
        <time>2012-06-24T06:09:48Z</time>
      </trkpt>
      <trkpt lat="49.02712" lon="-0.30387">
        <ele>69.83</ele>
        <time>2012-06-24T06:10:00Z</time>
      </trkpt>
      <trkpt lat="49.02676" lon="-0.30391">
        <ele>72.72</ele>
        <time>2012-06-24T06:10:06Z</time>
      </trkpt>
      <trkpt lat="49.0267" lon="-0.3039">
        <ele>72.24</ele>
        <time>2012-06-24T06:10:07Z</time>
      </trkpt>
      <trkpt lat="49.02664" lon="-0.30387">
        <ele>72.24</ele>
        <time>2012-06-24T06:10:08Z</time>
      </trkpt>
      <trkpt lat="49.02659" lon="-0.30383">
        <ele>71.27</ele>
        <time>2012-06-24T06:10:09Z</time>
      </trkpt>
      <trkpt lat="49.02656" lon="-0.30376">
        <ele>72.24</ele>
        <time>2012-06-24T06:10:10Z</time>
      </trkpt>
      <trkpt lat="49.02653" lon="-0.30369">
        <ele>72.72</ele>
        <time>2012-06-24T06:10:11Z</time>
      </trkpt>
      <trkpt lat="49.02652" lon="-0.3036">
        <ele>72.72</ele>
        <time>2012-06-24T06:10:12Z</time>
      </trkpt>
      <trkpt lat="49.02651" lon="-0.30353">
        <ele>73.68</ele>
        <time>2012-06-24T06:10:13Z</time>
      </trkpt>
      <trkpt lat="49.02649" lon="-0.30346">
        <ele>74.64</ele>
        <time>2012-06-24T06:10:14Z</time>
      </trkpt>
      <trkpt lat="49.02647" lon="-0.30339">
        <ele>74.64</ele>
        <time>2012-06-24T06:10:15Z</time>
      </trkpt>
      <trkpt lat="49.02645" lon="-0.30334">
        <ele>74.64</ele>
        <time>2012-06-24T06:10:16Z</time>
      </trkpt>
      <trkpt lat="49.02641" lon="-0.30331">
        <ele>74.64</ele>
        <time>2012-06-24T06:10:17Z</time>
      </trkpt>
      <trkpt lat="49.02637" lon="-0.30331">
        <ele>75.12</ele>
        <time>2012-06-24T06:10:18Z</time>
      </trkpt>
      <trkpt lat="49.02632" lon="-0.30333">
        <ele>73.2</ele>
        <time>2012-06-24T06:10:19Z</time>
      </trkpt>
      <trkpt lat="49.02628" lon="-0.30335">
        <ele>74.16</ele>
        <time>2012-06-24T06:10:20Z</time>
      </trkpt>
      <trkpt lat="49.02623" lon="-0.30336">
        <ele>73.68</ele>
        <time>2012-06-24T06:10:21Z</time>
      </trkpt>
      <trkpt lat="49.0262" lon="-0.30338">
        <ele>74.64</ele>
        <time>2012-06-24T06:10:22Z</time>
      </trkpt>
      <trkpt lat="49.02617" lon="-0.30339">
        <ele>75.12</ele>
        <time>2012-06-24T06:10:23Z</time>
      </trkpt>
      <trkpt lat="49.02597" lon="-0.30348">
        <ele>78</ele>
        <time>2012-06-24T06:10:32Z</time>
      </trkpt>
      <trkpt lat="49.02589" lon="-0.30356">
        <ele>80.41</ele>
        <time>2012-06-24T06:10:38Z</time>
      </trkpt>
      <trkpt lat="49.0258" lon="-0.3036">
        <ele>83.77</ele>
        <time>2012-06-24T06:10:46Z</time>
      </trkpt>
      <trkpt lat="49.02574" lon="-0.30362">
        <ele>86.18</ele>
        <time>2012-06-24T06:10:58Z</time>
      </trkpt>
      <trkpt lat="49.02572" lon="-0.30361">
        <ele>86.18</ele>
        <time>2012-06-24T06:11:03Z</time>
      </trkpt>
      <trkpt lat="49.0257" lon="-0.30359">
        <ele>87.14</ele>
        <time>2012-06-24T06:11:04Z</time>
      </trkpt>
      <trkpt lat="49.02569" lon="-0.30357">
        <ele>86.66</ele>
        <time>2012-06-24T06:11:05Z</time>
      </trkpt>
      <trkpt lat="49.02567" lon="-0.30354">
        <ele>88.1</ele>
        <time>2012-06-24T06:11:06Z</time>
      </trkpt>
      <trkpt lat="49.02555" lon="-0.30342">
        <ele>90.98</ele>
        <time>2012-06-24T06:11:16Z</time>
      </trkpt>
      <trkpt lat="49.02547" lon="-0.30328">
        <ele>92.9</ele>
        <time>2012-06-24T06:11:30Z</time>
      </trkpt>
      <trkpt lat="49.02536" lon="-0.30298">
        <ele>95.79</ele>
        <time>2012-06-24T06:11:42Z</time>
      </trkpt>
      <trkpt lat="49.02531" lon="-0.30271">
        <ele>98.19</ele>
        <time>2012-06-24T06:11:54Z</time>
      </trkpt>
      <trkpt lat="49.02529" lon="-0.30265">
        <ele>99.15</ele>
        <time>2012-06-24T06:11:57Z</time>
      </trkpt>
      <trkpt lat="49.02529" lon="-0.30262">
        <ele>98.67</ele>
        <time>2012-06-24T06:11:58Z</time>
      </trkpt>
      <trkpt lat="49.02528" lon="-0.3026">
        <ele>99.63</ele>
        <time>2012-06-24T06:11:59Z</time>
      </trkpt>
      <trkpt lat="49.02527" lon="-0.30259">
        <ele>99.15</ele>
        <time>2012-06-24T06:12:00Z</time>
      </trkpt>
      <trkpt lat="49.02526" lon="-0.30257">
        <ele>100.11</ele>
        <time>2012-06-24T06:12:01Z</time>
      </trkpt>
      <trkpt lat="49.02525" lon="-0.30255">
        <ele>99.63</ele>
        <time>2012-06-24T06:12:02Z</time>
      </trkpt>
      <trkpt lat="49.02524" lon="-0.30253">
        <ele>99.63</ele>
        <time>2012-06-24T06:12:03Z</time>
      </trkpt>
      <trkpt lat="49.02522" lon="-0.30251">
        <ele>100.11</ele>
        <time>2012-06-24T06:12:04Z</time>
      </trkpt>
      <trkpt lat="49.0252" lon="-0.3025">
        <ele>100.11</ele>
        <time>2012-06-24T06:12:05Z</time>
      </trkpt>
      <trkpt lat="49.02518" lon="-0.30249">
        <ele>100.11</ele>
        <time>2012-06-24T06:12:06Z</time>
      </trkpt>
      <trkpt lat="49.02506" lon="-0.30252">
        <ele>101.08</ele>
        <time>2012-06-24T06:12:13Z</time>
      </trkpt>
      <trkpt lat="49.02505" lon="-0.30253">
        <ele>102.04</ele>
        <time>2012-06-24T06:12:14Z</time>
      </trkpt>
      <trkpt lat="49.02503" lon="-0.30254">
        <ele>101.56</ele>
        <time>2012-06-24T06:12:15Z</time>
      </trkpt>
      <trkpt lat="49.02502" lon="-0.30254">
        <ele>101.56</ele>
        <time>2012-06-24T06:12:16Z</time>
      </trkpt>
      <trkpt lat="49.025" lon="-0.30254">
        <ele>102.04</ele>
        <time>2012-06-24T06:12:17Z</time>
      </trkpt>
      <trkpt lat="49.02498" lon="-0.30254">
        <ele>101.08</ele>
        <time>2012-06-24T06:12:18Z</time>
      </trkpt>
      <trkpt lat="49.02496" lon="-0.30254">
        <ele>102.04</ele>
        <time>2012-06-24T06:12:19Z</time>
      </trkpt>
      <trkpt lat="49.02493" lon="-0.30254">
        <ele>101.56</ele>
        <time>2012-06-24T06:12:20Z</time>
      </trkpt>
      <trkpt lat="49.0248" lon="-0.30254">
        <ele>102.52</ele>
        <time>2012-06-24T06:12:26Z</time>
      </trkpt>
      <trkpt lat="49.02457" lon="-0.30251">
        <ele>104.92</ele>
        <time>2012-06-24T06:12:36Z</time>
      </trkpt>
      <trkpt lat="49.02417" lon="-0.30236">
        <ele>107.32</ele>
        <time>2012-06-24T06:12:51Z</time>
      </trkpt>
      <trkpt lat="49.02379" lon="-0.30184">
        <ele>109.73</ele>
        <time>2012-06-24T06:13:07Z</time>
      </trkpt>
      <trkpt lat="49.02364" lon="-0.30166">
        <ele>110.21</ele>
        <time>2012-06-24T06:13:13Z</time>
      </trkpt>
      <trkpt lat="49.02324" lon="-0.30119">
        <ele>112.13</ele>
        <time>2012-06-24T06:13:28Z</time>
      </trkpt>
      <trkpt lat="49.02288" lon="-0.30076">
        <ele>115.5</ele>
        <time>2012-06-24T06:13:42Z</time>
      </trkpt>
      <trkpt lat="49.02282" lon="-0.30074">
        <ele>115.01</ele>
        <time>2012-06-24T06:13:44Z</time>
      </trkpt>
      <trkpt lat="49.02279" lon="-0.30077">
        <ele>114.53</ele>
        <time>2012-06-24T06:13:45Z</time>
      </trkpt>
      <trkpt lat="49.02278" lon="-0.30081">
        <ele>115.01</ele>
        <time>2012-06-24T06:13:46Z</time>
      </trkpt>
      <trkpt lat="49.02277" lon="-0.30087">
        <ele>115.01</ele>
        <time>2012-06-24T06:13:47Z</time>
      </trkpt>
      <trkpt lat="49.02277" lon="-0.30092">
        <ele>114.05</ele>
        <time>2012-06-24T06:13:48Z</time>
      </trkpt>
      <trkpt lat="49.02252" lon="-0.30174">
        <ele>116.94</ele>
        <time>2012-06-24T06:14:04Z</time>
      </trkpt>
      <trkpt lat="49.02248" lon="-0.30176">
        <ele>117.42</ele>
        <time>2012-06-24T06:14:05Z</time>
      </trkpt>
      <trkpt lat="49.02245" lon="-0.30176">
        <ele>117.42</ele>
        <time>2012-06-24T06:14:06Z</time>
      </trkpt>
      <trkpt lat="49.02241" lon="-0.30175">
        <ele>117.9</ele>
        <time>2012-06-24T06:14:07Z</time>
      </trkpt>
      <trkpt lat="49.02238" lon="-0.30172">
        <ele>116.94</ele>
        <time>2012-06-24T06:14:08Z</time>
      </trkpt>
      <trkpt lat="49.02235" lon="-0.30169">
        <ele>117.9</ele>
        <time>2012-06-24T06:14:09Z</time>
      </trkpt>
      <trkpt lat="49.02186" lon="-0.30131">
        <ele>119.34</ele>
        <time>2012-06-24T06:14:24Z</time>
      </trkpt>
      <trkpt lat="49.0214" lon="-0.30088">
        <ele>121.74</ele>
        <time>2012-06-24T06:14:38Z</time>
      </trkpt>
      <trkpt lat="49.0213" lon="-0.30077">
        <ele>121.74</ele>
        <time>2012-06-24T06:14:41Z</time>
      </trkpt>
      <trkpt lat="49.02122" lon="-0.30071">
        <ele>121.74</ele>
        <time>2012-06-24T06:14:43Z</time>
      </trkpt>
      <trkpt lat="49.02118" lon="-0.30071">
        <ele>122.71</ele>
        <time>2012-06-24T06:14:44Z</time>
      </trkpt>
      <trkpt lat="49.02114" lon="-0.30074">
        <ele>123.19</ele>
        <time>2012-06-24T06:14:45Z</time>
      </trkpt>
      <trkpt lat="49.02111" lon="-0.30078">
        <ele>122.71</ele>
        <time>2012-06-24T06:14:46Z</time>
      </trkpt>
      <trkpt lat="49.02108" lon="-0.30083">
        <ele>123.19</ele>
        <time>2012-06-24T06:14:47Z</time>
      </trkpt>
      <trkpt lat="49.02077" lon="-0.30134">
        <ele>123.67</ele>
        <time>2012-06-24T06:14:58Z</time>
      </trkpt>
      <trkpt lat="49.02074" lon="-0.30139">
        <ele>122.71</ele>
        <time>2012-06-24T06:14:59Z</time>
      </trkpt>
      <trkpt lat="49.02072" lon="-0.30145">
        <ele>123.19</ele>
        <time>2012-06-24T06:15:00Z</time>
      </trkpt>
      <trkpt lat="49.02069" lon="-0.3015">
        <ele>123.19</ele>
        <time>2012-06-24T06:15:01Z</time>
      </trkpt>
      <trkpt lat="49.02066" lon="-0.30155">
        <ele>123.67</ele>
        <time>2012-06-24T06:15:02Z</time>
      </trkpt>
      <trkpt lat="49.02063" lon="-0.3016">
        <ele>123.67</ele>
        <time>2012-06-24T06:15:03Z</time>
      </trkpt>
      <trkpt lat="49.02059" lon="-0.30165">
        <ele>123.67</ele>
        <time>2012-06-24T06:15:04Z</time>
      </trkpt>
      <trkpt lat="49.02056" lon="-0.3017">
        <ele>123.19</ele>
        <time>2012-06-24T06:15:05Z</time>
      </trkpt>
      <trkpt lat="49.02053" lon="-0.30176">
        <ele>123.67</ele>
        <time>2012-06-24T06:15:06Z</time>
      </trkpt>
      <trkpt lat="49.02007" lon="-0.30251">
        <ele>125.59</ele>
        <time>2012-06-24T06:15:20Z</time>
      </trkpt>
      <trkpt lat="49.01992" lon="-0.30276">
        <ele>126.55</ele>
        <time>2012-06-24T06:15:25Z</time>
      </trkpt>
      <trkpt lat="49.01977" lon="-0.30299">
        <ele>127.03</ele>
        <time>2012-06-24T06:15:30Z</time>
      </trkpt>
      <trkpt lat="49.01965" lon="-0.30317">
        <ele>126.07</ele>
        <time>2012-06-24T06:15:34Z</time>
      </trkpt>
      <trkpt lat="49.01964" lon="-0.30322">
        <ele>127.03</ele>
        <time>2012-06-24T06:15:35Z</time>
      </trkpt>
      <trkpt lat="49.01962" lon="-0.30328">
        <ele>127.51</ele>
        <time>2012-06-24T06:15:36Z</time>
      </trkpt>
      <trkpt lat="49.01962" lon="-0.30334">
        <ele>127.51</ele>
        <time>2012-06-24T06:15:37Z</time>
      </trkpt>
      <trkpt lat="49.01962" lon="-0.3034">
        <ele>127.51</ele>
        <time>2012-06-24T06:15:38Z</time>
      </trkpt>
      <trkpt lat="49.01962" lon="-0.30366">
        <ele>126.55</ele>
        <time>2012-06-24T06:15:42Z</time>
      </trkpt>
      <trkpt lat="49.01963" lon="-0.30372">
        <ele>127.03</ele>
        <time>2012-06-24T06:15:43Z</time>
      </trkpt>
      <trkpt lat="49.01964" lon="-0.30379">
        <ele>126.07</ele>
        <time>2012-06-24T06:15:44Z</time>
      </trkpt>
      <trkpt lat="49.01964" lon="-0.30385">
        <ele>127.03</ele>
        <time>2012-06-24T06:15:45Z</time>
      </trkpt>
      <trkpt lat="49.01964" lon="-0.30391">
        <ele>127.51</ele>
        <time>2012-06-24T06:15:46Z</time>
      </trkpt>
      <trkpt lat="49.01965" lon="-0.30398">
        <ele>127.51</ele>
        <time>2012-06-24T06:15:47Z</time>
      </trkpt>
      <trkpt lat="49.01965" lon="-0.30404">
        <ele>127.03</ele>
        <time>2012-06-24T06:15:48Z</time>
      </trkpt>
      <trkpt lat="49.01964" lon="-0.3041">
        <ele>126.55</ele>
        <time>2012-06-24T06:15:49Z</time>
      </trkpt>
      <trkpt lat="49.01964" lon="-0.30417">
        <ele>126.55</ele>
        <time>2012-06-24T06:15:50Z</time>
      </trkpt>
      <trkpt lat="49.01963" lon="-0.30424">
        <ele>126.07</ele>
        <time>2012-06-24T06:15:51Z</time>
      </trkpt>
      <trkpt lat="49.01945" lon="-0.30486">
        <ele>124.15</ele>
        <time>2012-06-24T06:16:00Z</time>
      </trkpt>
      <trkpt lat="49.01942" lon="-0.30492">
        <ele>124.63</ele>
        <time>2012-06-24T06:16:01Z</time>
      </trkpt>
      <trkpt lat="49.01938" lon="-0.30497">
        <ele>124.63</ele>
        <time>2012-06-24T06:16:02Z</time>
      </trkpt>
      <trkpt lat="49.01934" lon="-0.305">
        <ele>124.15</ele>
        <time>2012-06-24T06:16:03Z</time>
      </trkpt>
      <trkpt lat="49.01929" lon="-0.30503">
        <ele>124.15</ele>
        <time>2012-06-24T06:16:04Z</time>
      </trkpt>
      <trkpt lat="49.01924" lon="-0.30505">
        <ele>123.67</ele>
        <time>2012-06-24T06:16:05Z</time>
      </trkpt>
      <trkpt lat="49.01919" lon="-0.30507">
        <ele>123.19</ele>
        <time>2012-06-24T06:16:06Z</time>
      </trkpt>
      <trkpt lat="49.01914" lon="-0.3051">
        <ele>123.19</ele>
        <time>2012-06-24T06:16:07Z</time>
      </trkpt>
      <trkpt lat="49.01892" lon="-0.30529">
        <ele>123.19</ele>
        <time>2012-06-24T06:16:12Z</time>
      </trkpt>
      <trkpt lat="49.01889" lon="-0.30534">
        <ele>121.74</ele>
        <time>2012-06-24T06:16:13Z</time>
      </trkpt>
      <trkpt lat="49.01876" lon="-0.30561">
        <ele>119.82</ele>
        <time>2012-06-24T06:16:17Z</time>
      </trkpt>
      <trkpt lat="49.01871" lon="-0.30587">
        <ele>118.86</ele>
        <time>2012-06-24T06:16:20Z</time>
      </trkpt>
      <trkpt lat="49.01865" lon="-0.30614">
        <ele>116.46</ele>
        <time>2012-06-24T06:16:23Z</time>
      </trkpt>
      <trkpt lat="49.01862" lon="-0.30629">
        <ele>115.5</ele>
        <time>2012-06-24T06:16:25Z</time>
      </trkpt>
      <trkpt lat="49.01857" lon="-0.30644">
        <ele>112.61</ele>
        <time>2012-06-24T06:16:27Z</time>
      </trkpt>
      <trkpt lat="49.01843" lon="-0.30655">
        <ele>109.73</ele>
        <time>2012-06-24T06:16:30Z</time>
      </trkpt>
      <trkpt lat="49.01834" lon="-0.30656">
        <ele>108.77</ele>
        <time>2012-06-24T06:16:32Z</time>
      </trkpt>
      <trkpt lat="49.01815" lon="-0.3066">
        <ele>105.88</ele>
        <time>2012-06-24T06:16:37Z</time>
      </trkpt>
      <trkpt lat="49.01805" lon="-0.30659">
        <ele>104.92</ele>
        <time>2012-06-24T06:16:39Z</time>
      </trkpt>
      <trkpt lat="49.01784" lon="-0.30657">
        <ele>102.04</ele>
        <time>2012-06-24T06:16:43Z</time>
      </trkpt>
      <trkpt lat="49.01742" lon="-0.30649">
        <ele>98.67</ele>
        <time>2012-06-24T06:16:52Z</time>
      </trkpt>
      <trkpt lat="49.01739" lon="-0.30654">
        <ele>97.23</ele>
        <time>2012-06-24T06:16:54Z</time>
      </trkpt>
      <trkpt lat="49.01744" lon="-0.30678">
        <ele>94.83</ele>
        <time>2012-06-24T06:17:01Z</time>
      </trkpt>
      <trkpt lat="49.01743" lon="-0.30686">
        <ele>92.9</ele>
        <time>2012-06-24T06:17:02Z</time>
      </trkpt>
      <trkpt lat="49.0174" lon="-0.30704">
        <ele>90.98</ele>
        <time>2012-06-24T06:17:04Z</time>
      </trkpt>
      <trkpt lat="49.01737" lon="-0.30734">
        <ele>90.02</ele>
        <time>2012-06-24T06:17:07Z</time>
      </trkpt>
      <trkpt lat="49.01737" lon="-0.30776">
        <ele>87.14</ele>
        <time>2012-06-24T06:17:11Z</time>
      </trkpt>
      <trkpt lat="49.01738" lon="-0.3082">
        <ele>82.81</ele>
        <time>2012-06-24T06:17:16Z</time>
      </trkpt>
      <trkpt lat="49.01741" lon="-0.30832">
        <ele>81.37</ele>
        <time>2012-06-24T06:17:18Z</time>
      </trkpt>
      <trkpt lat="49.01743" lon="-0.30839">
        <ele>80.41</ele>
        <time>2012-06-24T06:17:19Z</time>
      </trkpt>
      <trkpt lat="49.01746" lon="-0.30848">
        <ele>80.41</ele>
        <time>2012-06-24T06:17:20Z</time>
      </trkpt>
      <trkpt lat="49.01747" lon="-0.30856">
        <ele>78.97</ele>
        <time>2012-06-24T06:17:21Z</time>
      </trkpt>
      <trkpt lat="49.01746" lon="-0.3087">
        <ele>78.97</ele>
        <time>2012-06-24T06:17:23Z</time>
      </trkpt>
      <trkpt lat="49.01731" lon="-0.30907">
        <ele>78.48</ele>
        <time>2012-06-24T06:17:30Z</time>
      </trkpt>
      <trkpt lat="49.01723" lon="-0.3091">
        <ele>78.48</ele>
        <time>2012-06-24T06:17:32Z</time>
      </trkpt>
      <trkpt lat="49.01696" lon="-0.30912">
        <ele>78.48</ele>
        <time>2012-06-24T06:17:38Z</time>
      </trkpt>
      <trkpt lat="49.01691" lon="-0.30914">
        <ele>78.97</ele>
        <time>2012-06-24T06:17:39Z</time>
      </trkpt>
      <trkpt lat="49.01645" lon="-0.30931">
        <ele>79.45</ele>
        <time>2012-06-24T06:17:52Z</time>
      </trkpt>
      <trkpt lat="49.01625" lon="-0.30937">
        <ele>79.45</ele>
        <time>2012-06-24T06:18:03Z</time>
      </trkpt>
      <trkpt lat="49.01621" lon="-0.3094">
        <ele>80.41</ele>
        <time>2012-06-24T06:18:09Z</time>
      </trkpt>
      <trkpt lat="49.01582" lon="-0.30946">
        <ele>78.97</ele>
        <time>2012-06-24T06:18:21Z</time>
      </trkpt>
      <trkpt lat="49.01557" lon="-0.30956">
        <ele>79.45</ele>
        <time>2012-06-24T06:18:27Z</time>
      </trkpt>
      <trkpt lat="49.01534" lon="-0.30963">
        <ele>78.48</ele>
        <time>2012-06-24T06:18:32Z</time>
      </trkpt>
      <trkpt lat="49.01497" lon="-0.30975">
        <ele>78.97</ele>
        <time>2012-06-24T06:18:40Z</time>
      </trkpt>
      <trkpt lat="49.01443" lon="-0.30993">
        <ele>79.45</ele>
        <time>2012-06-24T06:18:51Z</time>
      </trkpt>
      <trkpt lat="49.01407" lon="-0.31003">
        <ele>79.93</ele>
        <time>2012-06-24T06:18:59Z</time>
      </trkpt>
      <trkpt lat="49.01395" lon="-0.31007">
        <ele>79.45</ele>
        <time>2012-06-24T06:19:02Z</time>
      </trkpt>
      <trkpt lat="49.01386" lon="-0.31002">
        <ele>81.37</ele>
        <time>2012-06-24T06:19:11Z</time>
      </trkpt>
      <trkpt lat="49.01386" lon="-0.31002">
        <ele>80.89</ele>
        <time>2012-06-24T06:19:37Z</time>
      </trkpt>
      <trkpt lat="49.01387" lon="-0.31">
        <ele>80.89</ele>
        <time>2012-06-24T06:19:46Z</time>
      </trkpt>
      <trkpt lat="49.01388" lon="-0.30981">
        <ele>80.89</ele>
        <time>2012-06-24T06:19:51Z</time>
      </trkpt>
      <trkpt lat="49.01381" lon="-0.30969">
        <ele>79.93</ele>
        <time>2012-06-24T06:19:54Z</time>
      </trkpt>
      <trkpt lat="49.01377" lon="-0.30968">
        <ele>79.45</ele>
        <time>2012-06-24T06:19:55Z</time>
      </trkpt>
      <trkpt lat="49.01373" lon="-0.30967">
        <ele>79.93</ele>
        <time>2012-06-24T06:19:56Z</time>
      </trkpt>
      <trkpt lat="49.01368" lon="-0.30967">
        <ele>79.93</ele>
        <time>2012-06-24T06:19:57Z</time>
      </trkpt>
      <trkpt lat="49.01363" lon="-0.30966">
        <ele>79.45</ele>
        <time>2012-06-24T06:19:58Z</time>
      </trkpt>
      <trkpt lat="49.01358" lon="-0.30966">
        <ele>78.97</ele>
        <time>2012-06-24T06:19:59Z</time>
      </trkpt>
      <trkpt lat="49.0134" lon="-0.30961">
        <ele>79.93</ele>
        <time>2012-06-24T06:20:03Z</time>
      </trkpt>
      <trkpt lat="49.01335" lon="-0.30959">
        <ele>80.41</ele>
        <time>2012-06-24T06:20:04Z</time>
      </trkpt>
      <trkpt lat="49.01297" lon="-0.30942">
        <ele>80.41</ele>
        <time>2012-06-24T06:20:13Z</time>
      </trkpt>
      <trkpt lat="49.01293" lon="-0.30939">
        <ele>81.37</ele>
        <time>2012-06-24T06:20:14Z</time>
      </trkpt>
      <trkpt lat="49.0128" lon="-0.30935">
        <ele>81.37</ele>
        <time>2012-06-24T06:20:18Z</time>
      </trkpt>
      <trkpt lat="49.01269" lon="-0.30945">
        <ele>80.41</ele>
        <time>2012-06-24T06:20:21Z</time>
      </trkpt>
      <trkpt lat="49.01225" lon="-0.30976">
        <ele>80.89</ele>
        <time>2012-06-24T06:20:33Z</time>
      </trkpt>
      <trkpt lat="49.0122" lon="-0.30976">
        <ele>80.41</ele>
        <time>2012-06-24T06:20:34Z</time>
      </trkpt>
      <trkpt lat="49.01212" lon="-0.30975">
        <ele>80.89</ele>
        <time>2012-06-24T06:20:36Z</time>
      </trkpt>
      <trkpt lat="49.01168" lon="-0.30984">
        <ele>81.37</ele>
        <time>2012-06-24T06:20:48Z</time>
      </trkpt>
      <trkpt lat="49.01135" lon="-0.31011">
        <ele>82.81</ele>
        <time>2012-06-24T06:20:59Z</time>
      </trkpt>
      <trkpt lat="49.01094" lon="-0.31064">
        <ele>82.81</ele>
        <time>2012-06-24T06:21:14Z</time>
      </trkpt>
      <trkpt lat="49.01065" lon="-0.31124">
        <ele>84.25</ele>
        <time>2012-06-24T06:21:28Z</time>
      </trkpt>
      <trkpt lat="49.01043" lon="-0.31187">
        <ele>84.25</ele>
        <time>2012-06-24T06:21:41Z</time>
      </trkpt>
      <trkpt lat="49.01021" lon="-0.31258">
        <ele>84.73</ele>
        <time>2012-06-24T06:21:55Z</time>
      </trkpt>
      <trkpt lat="49.01008" lon="-0.31306">
        <ele>85.21</ele>
        <time>2012-06-24T06:22:05Z</time>
      </trkpt>
      <trkpt lat="49.00986" lon="-0.31383">
        <ele>85.21</ele>
        <time>2012-06-24T06:22:20Z</time>
      </trkpt>
      <trkpt lat="49.00965" lon="-0.31455">
        <ele>85.69</ele>
        <time>2012-06-24T06:22:34Z</time>
      </trkpt>
      <trkpt lat="49.00946" lon="-0.31515">
        <ele>87.14</ele>
        <time>2012-06-24T06:22:46Z</time>
      </trkpt>
      <trkpt lat="49.00936" lon="-0.31552">
        <ele>88.1</ele>
        <time>2012-06-24T06:22:54Z</time>
      </trkpt>
      <trkpt lat="49.00936" lon="-0.31555">
        <ele>87.62</ele>
        <time>2012-06-24T06:22:55Z</time>
      </trkpt>
      <trkpt lat="49.00946" lon="-0.31579">
        <ele>87.62</ele>
        <time>2012-06-24T06:23:03Z</time>
      </trkpt>
      <trkpt lat="49.0093" lon="-0.31584">
        <ele>87.14</ele>
        <time>2012-06-24T06:23:09Z</time>
      </trkpt>
      <trkpt lat="49.00905" lon="-0.31623">
        <ele>87.14</ele>
        <time>2012-06-24T06:23:21Z</time>
      </trkpt>
      <trkpt lat="49.009" lon="-0.3163">
        <ele>88.1</ele>
        <time>2012-06-24T06:23:23Z</time>
      </trkpt>
      <trkpt lat="49.00895" lon="-0.31647">
        <ele>88.58</ele>
        <time>2012-06-24T06:23:27Z</time>
      </trkpt>
      <trkpt lat="49.00865" lon="-0.31694">
        <ele>89.06</ele>
        <time>2012-06-24T06:23:40Z</time>
      </trkpt>
      <trkpt lat="49.00857" lon="-0.31701">
        <ele>89.54</ele>
        <time>2012-06-24T06:23:43Z</time>
      </trkpt>
      <trkpt lat="49.00852" lon="-0.3175">
        <ele>90.5</ele>
        <time>2012-06-24T06:23:54Z</time>
      </trkpt>
      <trkpt lat="49.00845" lon="-0.318">
        <ele>92.42</ele>
        <time>2012-06-24T06:24:05Z</time>
      </trkpt>
      <trkpt lat="49.00797" lon="-0.31819">
        <ele>90.98</ele>
        <time>2012-06-24T06:24:19Z</time>
      </trkpt>
      <trkpt lat="49.00719" lon="-0.31829">
        <ele>90.98</ele>
        <time>2012-06-24T06:24:36Z</time>
      </trkpt>
      <trkpt lat="49.00659" lon="-0.31853">
        <ele>92.42</ele>
        <time>2012-06-24T06:24:50Z</time>
      </trkpt>
      <trkpt lat="49.00653" lon="-0.31862">
        <ele>92.42</ele>
        <time>2012-06-24T06:24:52Z</time>
      </trkpt>
      <trkpt lat="49.00652" lon="-0.31867">
        <ele>92.9</ele>
        <time>2012-06-24T06:24:53Z</time>
      </trkpt>
      <trkpt lat="49.00652" lon="-0.31873">
        <ele>93.39</ele>
        <time>2012-06-24T06:24:54Z</time>
      </trkpt>
      <trkpt lat="49.00653" lon="-0.31879">
        <ele>92.9</ele>
        <time>2012-06-24T06:24:55Z</time>
      </trkpt>
      <trkpt lat="49.00655" lon="-0.31883">
        <ele>93.39</ele>
        <time>2012-06-24T06:24:56Z</time>
      </trkpt>
      <trkpt lat="49.00657" lon="-0.31888">
        <ele>93.39</ele>
        <time>2012-06-24T06:24:57Z</time>
      </trkpt>
      <trkpt lat="49.00659" lon="-0.31892">
        <ele>93.87</ele>
        <time>2012-06-24T06:24:58Z</time>
      </trkpt>
      <trkpt lat="49.0066" lon="-0.31897">
        <ele>93.39</ele>
        <time>2012-06-24T06:24:59Z</time>
      </trkpt>
      <trkpt lat="49.00665" lon="-0.31927">
        <ele>96.27</ele>
        <time>2012-06-24T06:25:05Z</time>
      </trkpt>
      <trkpt lat="49.00669" lon="-0.31971">
        <ele>98.67</ele>
        <time>2012-06-24T06:25:14Z</time>
      </trkpt>
      <trkpt lat="49.00677" lon="-0.32019">
        <ele>102.04</ele>
        <time>2012-06-24T06:25:25Z</time>
      </trkpt>
      <trkpt lat="49.0068" lon="-0.32079">
        <ele>105.4</ele>
        <time>2012-06-24T06:25:37Z</time>
      </trkpt>
      <trkpt lat="49.00686" lon="-0.32147">
        <ele>108.77</ele>
        <time>2012-06-24T06:25:52Z</time>
      </trkpt>
      <trkpt lat="49.0069" lon="-0.32198">
        <ele>112.13</ele>
        <time>2012-06-24T06:26:04Z</time>
      </trkpt>
      <trkpt lat="49.00692" lon="-0.32214">
        <ele>113.09</ele>
        <time>2012-06-24T06:26:08Z</time>
      </trkpt>
      <trkpt lat="49.00692" lon="-0.32217">
        <ele>114.05</ele>
        <time>2012-06-24T06:26:09Z</time>
      </trkpt>
      <trkpt lat="49.00692" lon="-0.32221">
        <ele>113.57</ele>
        <time>2012-06-24T06:26:10Z</time>
      </trkpt>
      <trkpt lat="49.00692" lon="-0.32225">
        <ele>114.05</ele>
        <time>2012-06-24T06:26:11Z</time>
      </trkpt>
      <trkpt lat="49.00692" lon="-0.32229">
        <ele>113.57</ele>
        <time>2012-06-24T06:26:12Z</time>
      </trkpt>
      <trkpt lat="49.00692" lon="-0.32234">
        <ele>114.05</ele>
        <time>2012-06-24T06:26:13Z</time>
      </trkpt>
      <trkpt lat="49.0069" lon="-0.32241">
        <ele>114.53</ele>
        <time>2012-06-24T06:26:15Z</time>
      </trkpt>
      <trkpt lat="49.00688" lon="-0.32242">
        <ele>114.53</ele>
        <time>2012-06-24T06:26:16Z</time>
      </trkpt>
      <trkpt lat="49.00686" lon="-0.32243">
        <ele>115.01</ele>
        <time>2012-06-24T06:26:17Z</time>
      </trkpt>
      <trkpt lat="49.00685" lon="-0.32242">
        <ele>114.53</ele>
        <time>2012-06-24T06:26:18Z</time>
      </trkpt>
      <trkpt lat="49.00682" lon="-0.32242">
        <ele>115.5</ele>
        <time>2012-06-24T06:26:19Z</time>
      </trkpt>
      <trkpt lat="49.0068" lon="-0.32242">
        <ele>115.5</ele>
        <time>2012-06-24T06:26:20Z</time>
      </trkpt>
      <trkpt lat="49.00655" lon="-0.32239">
        <ele>116.94</ele>
        <time>2012-06-24T06:26:33Z</time>
      </trkpt>
      <trkpt lat="49.00625" lon="-0.32235">
        <ele>120.3</ele>
        <time>2012-06-24T06:26:46Z</time>
      </trkpt>
      <trkpt lat="49.00605" lon="-0.32233">
        <ele>121.74</ele>
        <time>2012-06-24T06:26:56Z</time>
      </trkpt>
      <trkpt lat="49.00603" lon="-0.32233">
        <ele>122.22</ele>
        <time>2012-06-24T06:26:57Z</time>
      </trkpt>
      <trkpt lat="49.00601" lon="-0.32233">
        <ele>122.22</ele>
        <time>2012-06-24T06:26:58Z</time>
      </trkpt>
      <trkpt lat="49.00599" lon="-0.32233">
        <ele>122.22</ele>
        <time>2012-06-24T06:26:59Z</time>
      </trkpt>
      <trkpt lat="49.00597" lon="-0.32232">
        <ele>122.71</ele>
        <time>2012-06-24T06:27:00Z</time>
      </trkpt>
      <trkpt lat="49.00576" lon="-0.3223">
        <ele>126.07</ele>
        <time>2012-06-24T06:27:12Z</time>
      </trkpt>
      <trkpt lat="49.00567" lon="-0.32227">
        <ele>126.55</ele>
        <time>2012-06-24T06:27:17Z</time>
      </trkpt>
      <trkpt lat="49.0054" lon="-0.32223">
        <ele>129.43</ele>
        <time>2012-06-24T06:27:31Z</time>
      </trkpt>
      <trkpt lat="49.00513" lon="-0.32221">
        <ele>129.92</ele>
        <time>2012-06-24T06:27:44Z</time>
      </trkpt>
      <trkpt lat="49.00511" lon="-0.32222">
        <ele>130.4</ele>
        <time>2012-06-24T06:27:45Z</time>
      </trkpt>
      <trkpt lat="49.0051" lon="-0.32222">
        <ele>130.88</ele>
        <time>2012-06-24T06:27:46Z</time>
      </trkpt>
      <trkpt lat="49.00508" lon="-0.32222">
        <ele>131.36</ele>
        <time>2012-06-24T06:27:47Z</time>
      </trkpt>
      <trkpt lat="49.00505" lon="-0.32221">
        <ele>131.84</ele>
        <time>2012-06-24T06:27:49Z</time>
      </trkpt>
      <trkpt lat="49.00485" lon="-0.32219">
        <ele>133.76</ele>
        <time>2012-06-24T06:28:00Z</time>
      </trkpt>
      <trkpt lat="49.00458" lon="-0.32216">
        <ele>137.61</ele>
        <time>2012-06-24T06:28:15Z</time>
      </trkpt>
      <trkpt lat="49.00448" lon="-0.32215">
        <ele>138.57</ele>
        <time>2012-06-24T06:28:21Z</time>
      </trkpt>
      <trkpt lat="49.00447" lon="-0.32215">
        <ele>138.57</ele>
        <time>2012-06-24T06:28:22Z</time>
      </trkpt>
      <trkpt lat="49.00445" lon="-0.32214">
        <ele>139.05</ele>
        <time>2012-06-24T06:28:23Z</time>
      </trkpt>
      <trkpt lat="49.00443" lon="-0.32214">
        <ele>139.05</ele>
        <time>2012-06-24T06:28:24Z</time>
      </trkpt>
      <trkpt lat="49.00441" lon="-0.32213">
        <ele>139.05</ele>
        <time>2012-06-24T06:28:25Z</time>
      </trkpt>
      <trkpt lat="49.00416" lon="-0.32209">
        <ele>140.49</ele>
        <time>2012-06-24T06:28:38Z</time>
      </trkpt>
      <trkpt lat="49.00389" lon="-0.32211">
        <ele>143.85</ele>
        <time>2012-06-24T06:28:52Z</time>
      </trkpt>
      <trkpt lat="49.00369" lon="-0.32221">
        <ele>146.26</ele>
        <time>2012-06-24T06:29:04Z</time>
      </trkpt>
      <trkpt lat="49.00351" lon="-0.32235">
        <ele>148.18</ele>
        <time>2012-06-24T06:29:15Z</time>
      </trkpt>
      <trkpt lat="49.00348" lon="-0.32247">
        <ele>149.62</ele>
        <time>2012-06-24T06:29:22Z</time>
      </trkpt>
      <trkpt lat="49.00348" lon="-0.32249">
        <ele>150.58</ele>
        <time>2012-06-24T06:29:23Z</time>
      </trkpt>
      <trkpt lat="49.00349" lon="-0.32251">
        <ele>150.1</ele>
        <time>2012-06-24T06:29:24Z</time>
      </trkpt>
      <trkpt lat="49.00353" lon="-0.32259">
        <ele>151.06</ele>
        <time>2012-06-24T06:29:29Z</time>
      </trkpt>
      <trkpt lat="49.00353" lon="-0.32261">
        <ele>151.54</ele>
        <time>2012-06-24T06:29:30Z</time>
      </trkpt>
      <trkpt lat="49.00353" lon="-0.32263">
        <ele>151.54</ele>
        <time>2012-06-24T06:29:31Z</time>
      </trkpt>
      <trkpt lat="49.00361" lon="-0.32294">
        <ele>152.99</ele>
        <time>2012-06-24T06:29:44Z</time>
      </trkpt>
      <trkpt lat="49.00361" lon="-0.323">
        <ele>153.47</ele>
        <time>2012-06-24T06:29:47Z</time>
      </trkpt>
      <trkpt lat="49.0036" lon="-0.32302">
        <ele>153.47</ele>
        <time>2012-06-24T06:29:48Z</time>
      </trkpt>
      <trkpt lat="49.00359" lon="-0.32305">
        <ele>153.95</ele>
        <time>2012-06-24T06:29:49Z</time>
      </trkpt>
      <trkpt lat="49.00348" lon="-0.32331">
        <ele>156.83</ele>
        <time>2012-06-24T06:30:02Z</time>
      </trkpt>
      <trkpt lat="49.00342" lon="-0.32347">
        <ele>158.27</ele>
        <time>2012-06-24T06:30:13Z</time>
      </trkpt>
      <trkpt lat="49.0034" lon="-0.32359">
        <ele>159.24</ele>
        <time>2012-06-24T06:30:19Z</time>
      </trkpt>
      <trkpt lat="49.0034" lon="-0.32363">
        <ele>159.24</ele>
        <time>2012-06-24T06:30:21Z</time>
      </trkpt>
      <trkpt lat="49.00342" lon="-0.32376">
        <ele>159.24</ele>
        <time>2012-06-24T06:30:26Z</time>
      </trkpt>
      <trkpt lat="49.00354" lon="-0.3242">
        <ele>160.2</ele>
        <time>2012-06-24T06:30:38Z</time>
      </trkpt>
      <trkpt lat="49.00354" lon="-0.32424">
        <ele>159.72</ele>
        <time>2012-06-24T06:30:39Z</time>
      </trkpt>
      <trkpt lat="49.00361" lon="-0.3244">
        <ele>160.68</ele>
        <time>2012-06-24T06:30:43Z</time>
      </trkpt>
      <trkpt lat="49.00362" lon="-0.32459">
        <ele>160.2</ele>
        <time>2012-06-24T06:30:47Z</time>
      </trkpt>
      <trkpt lat="49.0037" lon="-0.3248">
        <ele>160.68</ele>
        <time>2012-06-24T06:30:51Z</time>
      </trkpt>
      <trkpt lat="49.00381" lon="-0.325">
        <ele>161.16</ele>
        <time>2012-06-24T06:30:55Z</time>
      </trkpt>
      <trkpt lat="49.00391" lon="-0.32524">
        <ele>161.16</ele>
        <time>2012-06-24T06:31:00Z</time>
      </trkpt>
      <trkpt lat="49.00395" lon="-0.32539">
        <ele>161.64</ele>
        <time>2012-06-24T06:31:03Z</time>
      </trkpt>
      <trkpt lat="49.00406" lon="-0.32566">
        <ele>161.64</ele>
        <time>2012-06-24T06:31:09Z</time>
      </trkpt>
      <trkpt lat="49.00416" lon="-0.32581">
        <ele>161.64</ele>
        <time>2012-06-24T06:31:14Z</time>
      </trkpt>
      <trkpt lat="49.00437" lon="-0.32626">
        <ele>161.16</ele>
        <time>2012-06-24T06:31:25Z</time>
      </trkpt>
      <trkpt lat="49.00451" lon="-0.32653">
        <ele>160.68</ele>
        <time>2012-06-24T06:31:32Z</time>
      </trkpt>
      <trkpt lat="49.00468" lon="-0.32715">
        <ele>159.72</ele>
        <time>2012-06-24T06:31:42Z</time>
      </trkpt>
      <trkpt lat="49.00486" lon="-0.32762">
        <ele>158.75</ele>
        <time>2012-06-24T06:31:50Z</time>
      </trkpt>
      <trkpt lat="49.00499" lon="-0.32842">
        <ele>159.72</ele>
        <time>2012-06-24T06:32:03Z</time>
      </trkpt>
      <trkpt lat="49.00491" lon="-0.32874">
        <ele>161.16</ele>
        <time>2012-06-24T06:32:09Z</time>
      </trkpt>
      <trkpt lat="49.00488" lon="-0.32901">
        <ele>160.68</ele>
        <time>2012-06-24T06:32:15Z</time>
      </trkpt>
      <trkpt lat="49.00488" lon="-0.32917">
        <ele>160.2</ele>
        <time>2012-06-24T06:32:19Z</time>
      </trkpt>
      <trkpt lat="49.00486" lon="-0.32957">
        <ele>160.2</ele>
        <time>2012-06-24T06:32:29Z</time>
      </trkpt>
      <trkpt lat="49.00486" lon="-0.32962">
        <ele>159.72</ele>
        <time>2012-06-24T06:32:31Z</time>
      </trkpt>
      <trkpt lat="49.00478" lon="-0.33011">
        <ele>157.79</ele>
        <time>2012-06-24T06:32:41Z</time>
      </trkpt>
      <trkpt lat="49.00471" lon="-0.33064">
        <ele>157.31</ele>
        <time>2012-06-24T06:32:50Z</time>
      </trkpt>
      <trkpt lat="49.00459" lon="-0.33104">
        <ele>156.83</ele>
        <time>2012-06-24T06:32:59Z</time>
      </trkpt>
      <trkpt lat="49.00448" lon="-0.33157">
        <ele>156.35</ele>
        <time>2012-06-24T06:33:10Z</time>
      </trkpt>
      <trkpt lat="49.0043" lon="-0.33181">
        <ele>156.35</ele>
        <time>2012-06-24T06:33:17Z</time>
      </trkpt>
      <trkpt lat="49.00404" lon="-0.33197">
        <ele>156.35</ele>
        <time>2012-06-24T06:33:27Z</time>
      </trkpt>
      <trkpt lat="49.00375" lon="-0.3321">
        <ele>156.83</ele>
        <time>2012-06-24T06:33:36Z</time>
      </trkpt>
      <trkpt lat="49.00362" lon="-0.332">
        <ele>157.31</ele>
        <time>2012-06-24T06:33:44Z</time>
      </trkpt>
      <trkpt lat="49.00358" lon="-0.3319">
        <ele>157.79</ele>
        <time>2012-06-24T06:33:50Z</time>
      </trkpt>
      <trkpt lat="49.00359" lon="-0.33173">
        <ele>158.27</ele>
        <time>2012-06-24T06:34:00Z</time>
      </trkpt>
      <trkpt lat="49.00354" lon="-0.33167">
        <ele>158.27</ele>
        <time>2012-06-24T06:34:04Z</time>
      </trkpt>
      <trkpt lat="49.00349" lon="-0.33158">
        <ele>159.24</ele>
        <time>2012-06-24T06:34:08Z</time>
      </trkpt>
      <trkpt lat="49.00347" lon="-0.3315">
        <ele>158.27</ele>
        <time>2012-06-24T06:34:11Z</time>
      </trkpt>
      <trkpt lat="49.00342" lon="-0.33139">
        <ele>158.75</ele>
        <time>2012-06-24T06:34:15Z</time>
      </trkpt>
      <trkpt lat="49.00337" lon="-0.3312">
        <ele>158.75</ele>
        <time>2012-06-24T06:34:21Z</time>
      </trkpt>
      <trkpt lat="49.00334" lon="-0.33115">
        <ele>158.75</ele>
        <time>2012-06-24T06:34:23Z</time>
      </trkpt>
      <trkpt lat="49.00334" lon="-0.3311">
        <ele>159.24</ele>
        <time>2012-06-24T06:34:25Z</time>
      </trkpt>
      <trkpt lat="49.00338" lon="-0.33097">
        <ele>158.75</ele>
        <time>2012-06-24T06:34:31Z</time>
      </trkpt>
      <trkpt lat="49.00333" lon="-0.33073">
        <ele>159.24</ele>
        <time>2012-06-24T06:34:38Z</time>
      </trkpt>
      <trkpt lat="49.00333" lon="-0.33069">
        <ele>159.24</ele>
        <time>2012-06-24T06:34:40Z</time>
      </trkpt>
      <trkpt lat="49.0033" lon="-0.33046">
        <ele>159.24</ele>
        <time>2012-06-24T06:34:48Z</time>
      </trkpt>
      <trkpt lat="49.00324" lon="-0.33035">
        <ele>159.72</ele>
        <time>2012-06-24T06:34:52Z</time>
      </trkpt>
      <trkpt lat="49.00319" lon="-0.33027">
        <ele>159.72</ele>
        <time>2012-06-24T06:34:54Z</time>
      </trkpt>
      <trkpt lat="49.00313" lon="-0.33004">
        <ele>160.68</ele>
        <time>2012-06-24T06:35:00Z</time>
      </trkpt>
      <trkpt lat="49.00297" lon="-0.32966">
        <ele>160.68</ele>
        <time>2012-06-24T06:35:11Z</time>
      </trkpt>
      <trkpt lat="49.00282" lon="-0.32918">
        <ele>161.16</ele>
        <time>2012-06-24T06:35:22Z</time>
      </trkpt>
      <trkpt lat="49.00281" lon="-0.32914">
        <ele>160.68</ele>
        <time>2012-06-24T06:35:23Z</time>
      </trkpt>
      <trkpt lat="49.00279" lon="-0.32902">
        <ele>160.68</ele>
        <time>2012-06-24T06:35:26Z</time>
      </trkpt>
      <trkpt lat="49.00278" lon="-0.32897">
        <ele>161.16</ele>
        <time>2012-06-24T06:35:28Z</time>
      </trkpt>
      <trkpt lat="49.00277" lon="-0.32888">
        <ele>161.16</ele>
        <time>2012-06-24T06:35:32Z</time>
      </trkpt>
      <trkpt lat="49.00273" lon="-0.32871">
        <ele>161.16</ele>
        <time>2012-06-24T06:35:36Z</time>
      </trkpt>
      <trkpt lat="49.00272" lon="-0.32862">
        <ele>161.64</ele>
        <time>2012-06-24T06:35:40Z</time>
      </trkpt>
      <trkpt lat="49.00271" lon="-0.32858">
        <ele>161.64</ele>
        <time>2012-06-24T06:35:41Z</time>
      </trkpt>
      <trkpt lat="49.00262" lon="-0.32828">
        <ele>162.12</ele>
        <time>2012-06-24T06:35:48Z</time>
      </trkpt>
      <trkpt lat="49.00252" lon="-0.32798">
        <ele>162.6</ele>
        <time>2012-06-24T06:35:57Z</time>
      </trkpt>
      <trkpt lat="49.00249" lon="-0.32785">
        <ele>162.12</ele>
        <time>2012-06-24T06:36:02Z</time>
      </trkpt>
      <trkpt lat="49.00248" lon="-0.32778">
        <ele>161.64</ele>
        <time>2012-06-24T06:36:06Z</time>
      </trkpt>
      <trkpt lat="49.00238" lon="-0.32766">
        <ele>162.12</ele>
        <time>2012-06-24T06:36:11Z</time>
      </trkpt>
      <trkpt lat="49.00235" lon="-0.32759">
        <ele>162.12</ele>
        <time>2012-06-24T06:36:14Z</time>
      </trkpt>
      <trkpt lat="49.00225" lon="-0.32733">
        <ele>161.16</ele>
        <time>2012-06-24T06:36:22Z</time>
      </trkpt>
      <trkpt lat="49.00217" lon="-0.3271">
        <ele>161.16</ele>
        <time>2012-06-24T06:36:28Z</time>
      </trkpt>
      <trkpt lat="49.00202" lon="-0.32661">
        <ele>159.72</ele>
        <time>2012-06-24T06:36:38Z</time>
      </trkpt>
      <trkpt lat="49.00196" lon="-0.32631">
        <ele>158.75</ele>
        <time>2012-06-24T06:36:43Z</time>
      </trkpt>
      <trkpt lat="49.00194" lon="-0.32621">
        <ele>159.24</ele>
        <time>2012-06-24T06:36:45Z</time>
      </trkpt>
      <trkpt lat="49.00195" lon="-0.3262">
        <ele>158.75</ele>
        <time>2012-06-24T06:36:47Z</time>
      </trkpt>
      <trkpt lat="49.00187" lon="-0.32576">
        <ele>157.79</ele>
        <time>2012-06-24T06:36:55Z</time>
      </trkpt>
      <trkpt lat="49.00188" lon="-0.32569">
        <ele>157.31</ele>
        <time>2012-06-24T06:36:57Z</time>
      </trkpt>
      <trkpt lat="49.0019" lon="-0.32564">
        <ele>157.31</ele>
        <time>2012-06-24T06:37:00Z</time>
      </trkpt>
      <trkpt lat="49.0019" lon="-0.32559">
        <ele>156.83</ele>
        <time>2012-06-24T06:37:03Z</time>
      </trkpt>
      <trkpt lat="49.00184" lon="-0.32556">
        <ele>155.87</ele>
        <time>2012-06-24T06:37:05Z</time>
      </trkpt>
      <trkpt lat="49.00184" lon="-0.32567">
        <ele>155.39</ele>
        <time>2012-06-24T06:37:08Z</time>
      </trkpt>
      <trkpt lat="49.00185" lon="-0.32539">
        <ele>152.51</ele>
        <time>2012-06-24T06:37:16Z</time>
      </trkpt>
      <trkpt lat="49.0018" lon="-0.32505">
        <ele>150.58</ele>
        <time>2012-06-24T06:37:21Z</time>
      </trkpt>
      <trkpt lat="49.00179" lon="-0.32496">
        <ele>150.58</ele>
        <time>2012-06-24T06:37:22Z</time>
      </trkpt>
      <trkpt lat="49.00134" lon="-0.32386">
        <ele>149.14</ele>
        <time>2012-06-24T06:37:24Z</time>
      </trkpt>
      <trkpt lat="49.00134" lon="-0.3238">
        <ele>148.66</ele>
        <time>2012-06-24T06:37:25Z</time>
      </trkpt>
      <trkpt lat="49.00133" lon="-0.32372">
        <ele>148.18</ele>
        <time>2012-06-24T06:37:26Z</time>
      </trkpt>
      <trkpt lat="49.00131" lon="-0.32364">
        <ele>148.66</ele>
        <time>2012-06-24T06:37:27Z</time>
      </trkpt>
      <trkpt lat="49.00131" lon="-0.32357">
        <ele>147.7</ele>
        <time>2012-06-24T06:37:28Z</time>
      </trkpt>
      <trkpt lat="49.00131" lon="-0.3235">
        <ele>147.22</ele>
        <time>2012-06-24T06:37:29Z</time>
      </trkpt>
      <trkpt lat="49.00123" lon="-0.32299">
        <ele>143.85</ele>
        <time>2012-06-24T06:37:33Z</time>
      </trkpt>
      <trkpt lat="49.00121" lon="-0.32287">
        <ele>142.89</ele>
        <time>2012-06-24T06:37:34Z</time>
      </trkpt>
      <trkpt lat="49.00118" lon="-0.32275">
        <ele>141.93</ele>
        <time>2012-06-24T06:37:35Z</time>
      </trkpt>
      <trkpt lat="49.00116" lon="-0.32264">
        <ele>141.45</ele>
        <time>2012-06-24T06:37:36Z</time>
      </trkpt>
      <trkpt lat="49.00115" lon="-0.32253">
        <ele>140.97</ele>
        <time>2012-06-24T06:37:37Z</time>
      </trkpt>
      <trkpt lat="49.00114" lon="-0.32245">
        <ele>140.49</ele>
        <time>2012-06-24T06:37:38Z</time>
      </trkpt>
      <trkpt lat="49.00113" lon="-0.32238">
        <ele>140.01</ele>
        <time>2012-06-24T06:37:39Z</time>
      </trkpt>
      <trkpt lat="49.00112" lon="-0.32233">
        <ele>140.01</ele>
        <time>2012-06-24T06:37:40Z</time>
      </trkpt>
      <trkpt lat="49.00111" lon="-0.32228">
        <ele>139.53</ele>
        <time>2012-06-24T06:37:41Z</time>
      </trkpt>
      <trkpt lat="49.0011" lon="-0.3222">
        <ele>139.05</ele>
        <time>2012-06-24T06:37:43Z</time>
      </trkpt>
      <trkpt lat="49.00109" lon="-0.32215">
        <ele>137.61</ele>
        <time>2012-06-24T06:37:44Z</time>
      </trkpt>
      <trkpt lat="49.00108" lon="-0.32211">
        <ele>137.61</ele>
        <time>2012-06-24T06:37:45Z</time>
      </trkpt>
      <trkpt lat="49.00108" lon="-0.32207">
        <ele>137.61</ele>
        <time>2012-06-24T06:37:46Z</time>
      </trkpt>
      <trkpt lat="49.00107" lon="-0.32203">
        <ele>136.16</ele>
        <time>2012-06-24T06:37:47Z</time>
      </trkpt>
      <trkpt lat="49.00106" lon="-0.322">
        <ele>136.16</ele>
        <time>2012-06-24T06:37:48Z</time>
      </trkpt>
      <trkpt lat="49.00106" lon="-0.32196">
        <ele>135.68</ele>
        <time>2012-06-24T06:37:49Z</time>
      </trkpt>
      <trkpt lat="49.00106" lon="-0.32193">
        <ele>134.24</ele>
        <time>2012-06-24T06:37:50Z</time>
      </trkpt>
      <trkpt lat="49.00107" lon="-0.32189">
        <ele>134.24</ele>
        <time>2012-06-24T06:37:51Z</time>
      </trkpt>
      <trkpt lat="49.00108" lon="-0.32186">
        <ele>132.32</ele>
        <time>2012-06-24T06:37:52Z</time>
      </trkpt>
      <trkpt lat="49.00113" lon="-0.32175">
        <ele>128.95</ele>
        <time>2012-06-24T06:37:56Z</time>
      </trkpt>
      <trkpt lat="49.00118" lon="-0.32167">
        <ele>125.59</ele>
        <time>2012-06-24T06:37:59Z</time>
      </trkpt>
      <trkpt lat="49.00123" lon="-0.32147">
        <ele>121.74</ele>
        <time>2012-06-24T06:38:03Z</time>
      </trkpt>
      <trkpt lat="49.00126" lon="-0.32143">
        <ele>120.3</ele>
        <time>2012-06-24T06:38:04Z</time>
      </trkpt>
      <trkpt lat="49.00128" lon="-0.32134">
        <ele>119.82</ele>
        <time>2012-06-24T06:38:05Z</time>
      </trkpt>
      <trkpt lat="49.00131" lon="-0.32128">
        <ele>119.34</ele>
        <time>2012-06-24T06:38:06Z</time>
      </trkpt>
      <trkpt lat="49.00143" lon="-0.32109">
        <ele>115.5</ele>
        <time>2012-06-24T06:38:09Z</time>
      </trkpt>
      <trkpt lat="49.00147" lon="-0.32103">
        <ele>115.98</ele>
        <time>2012-06-24T06:38:10Z</time>
      </trkpt>
      <trkpt lat="49.00151" lon="-0.32092">
        <ele>114.05</ele>
        <time>2012-06-24T06:38:12Z</time>
      </trkpt>
      <trkpt lat="49.00153" lon="-0.32087">
        <ele>113.09</ele>
        <time>2012-06-24T06:38:13Z</time>
      </trkpt>
      <trkpt lat="49.00162" lon="-0.32068">
        <ele>109.25</ele>
        <time>2012-06-24T06:38:17Z</time>
      </trkpt>
      <trkpt lat="49.00184" lon="-0.32048">
        <ele>108.77</ele>
        <time>2012-06-24T06:38:23Z</time>
      </trkpt>
      <trkpt lat="49.00195" lon="-0.32045">
        <ele>107.81</ele>
        <time>2012-06-24T06:38:24Z</time>
      </trkpt>
      <trkpt lat="49.00199" lon="-0.32043">
        <ele>107.81</ele>
        <time>2012-06-24T06:38:25Z</time>
      </trkpt>
      <trkpt lat="49.002" lon="-0.32042">
        <ele>106.84</ele>
        <time>2012-06-24T06:38:26Z</time>
      </trkpt>
      <trkpt lat="49.002" lon="-0.32039">
        <ele>105.88</ele>
        <time>2012-06-24T06:38:27Z</time>
      </trkpt>
      <trkpt lat="49.00198" lon="-0.32036">
        <ele>103.96</ele>
        <time>2012-06-24T06:38:28Z</time>
      </trkpt>
      <trkpt lat="49.00195" lon="-0.32032">
        <ele>103.48</ele>
        <time>2012-06-24T06:38:29Z</time>
      </trkpt>
      <trkpt lat="49.00191" lon="-0.32028">
        <ele>102.04</ele>
        <time>2012-06-24T06:38:30Z</time>
      </trkpt>
      <trkpt lat="49.00186" lon="-0.32024">
        <ele>99.63</ele>
        <time>2012-06-24T06:38:31Z</time>
      </trkpt>
      <trkpt lat="49.0018" lon="-0.3202">
        <ele>99.15</ele>
        <time>2012-06-24T06:38:32Z</time>
      </trkpt>
      <trkpt lat="49.00173" lon="-0.32015">
        <ele>98.19</ele>
        <time>2012-06-24T06:38:33Z</time>
      </trkpt>
      <trkpt lat="49.00166" lon="-0.32009">
        <ele>97.23</ele>
        <time>2012-06-24T06:38:34Z</time>
      </trkpt>
      <trkpt lat="49.00158" lon="-0.32005">
        <ele>97.23</ele>
        <time>2012-06-24T06:38:35Z</time>
      </trkpt>
      <trkpt lat="49.00143" lon="-0.31995">
        <ele>96.27</ele>
        <time>2012-06-24T06:38:37Z</time>
      </trkpt>
      <trkpt lat="49.00128" lon="-0.31989">
        <ele>94.83</ele>
        <time>2012-06-24T06:38:39Z</time>
      </trkpt>
      <trkpt lat="49.0012" lon="-0.31987">
        <ele>95.31</ele>
        <time>2012-06-24T06:38:40Z</time>
      </trkpt>
      <trkpt lat="49.001" lon="-0.31979">
        <ele>95.79</ele>
        <time>2012-06-24T06:38:43Z</time>
      </trkpt>
      <trkpt lat="49.00095" lon="-0.31979">
        <ele>95.31</ele>
        <time>2012-06-24T06:38:44Z</time>
      </trkpt>
      <trkpt lat="49.0009" lon="-0.3198">
        <ele>95.79</ele>
        <time>2012-06-24T06:38:45Z</time>
      </trkpt>
      <trkpt lat="49.00087" lon="-0.31983">
        <ele>95.79</ele>
        <time>2012-06-24T06:38:46Z</time>
      </trkpt>
      <trkpt lat="49.00084" lon="-0.31985">
        <ele>95.79</ele>
        <time>2012-06-24T06:38:47Z</time>
      </trkpt>
      <trkpt lat="49.00081" lon="-0.31988">
        <ele>95.31</ele>
        <time>2012-06-24T06:38:48Z</time>
      </trkpt>
      <trkpt lat="49.00064" lon="-0.32">
        <ele>92.9</ele>
        <time>2012-06-24T06:38:56Z</time>
      </trkpt>
      <trkpt lat="49.00058" lon="-0.32001">
        <ele>91.46</ele>
        <time>2012-06-24T06:38:58Z</time>
      </trkpt>
      <trkpt lat="49.00049" lon="-0.31994">
        <ele>90.5</ele>
        <time>2012-06-24T06:39:01Z</time>
      </trkpt>
      <trkpt lat="49.00032" lon="-0.31985">
        <ele>94.35</ele>
        <time>2012-06-24T06:39:05Z</time>
      </trkpt>
      <trkpt lat="49.0003" lon="-0.3198">
        <ele>94.35</ele>
        <time>2012-06-24T06:39:06Z</time>
      </trkpt>
      <trkpt lat="49.00011" lon="-0.31943">
        <ele>95.31</ele>
        <time>2012-06-24T06:39:13Z</time>
      </trkpt>
      <trkpt lat="48.99997" lon="-0.31925">
        <ele>95.31</ele>
        <time>2012-06-24T06:39:21Z</time>
      </trkpt>
      <trkpt lat="48.99985" lon="-0.31945">
        <ele>94.35</ele>
        <time>2012-06-24T06:39:28Z</time>
      </trkpt>
      <trkpt lat="48.99974" lon="-0.31962">
        <ele>94.83</ele>
        <time>2012-06-24T06:39:32Z</time>
      </trkpt>
      <trkpt lat="48.99941" lon="-0.32028">
        <ele>95.79</ele>
        <time>2012-06-24T06:39:47Z</time>
      </trkpt>
      <trkpt lat="48.99937" lon="-0.32035">
        <ele>94.83</ele>
        <time>2012-06-24T06:39:50Z</time>
      </trkpt>
      <trkpt lat="48.9993" lon="-0.32035">
        <ele>95.31</ele>
        <time>2012-06-24T06:39:54Z</time>
      </trkpt>
      <trkpt lat="48.99927" lon="-0.32035">
        <ele>95.79</ele>
        <time>2012-06-24T06:39:56Z</time>
      </trkpt>
      <trkpt lat="48.99926" lon="-0.32054">
        <ele>95.79</ele>
        <time>2012-06-24T06:40:03Z</time>
      </trkpt>
      <trkpt lat="48.99929" lon="-0.3209">
        <ele>94.35</ele>
        <time>2012-06-24T06:40:11Z</time>
      </trkpt>
      <trkpt lat="48.99889" lon="-0.32122">
        <ele>96.75</ele>
        <time>2012-06-24T06:40:24Z</time>
      </trkpt>
      <trkpt lat="48.99857" lon="-0.3216">
        <ele>95.31</ele>
        <time>2012-06-24T06:40:36Z</time>
      </trkpt>
      <trkpt lat="48.99834" lon="-0.32189">
        <ele>94.83</ele>
        <time>2012-06-24T06:40:45Z</time>
      </trkpt>
      <trkpt lat="48.99802" lon="-0.3221">
        <ele>96.27</ele>
        <time>2012-06-24T06:40:55Z</time>
      </trkpt>
      <trkpt lat="48.99791" lon="-0.32228">
        <ele>94.35</ele>
        <time>2012-06-24T06:41:02Z</time>
      </trkpt>
      <trkpt lat="48.99759" lon="-0.32246">
        <ele>95.31</ele>
        <time>2012-06-24T06:41:12Z</time>
      </trkpt>
      <trkpt lat="48.99755" lon="-0.3225">
        <ele>95.79</ele>
        <time>2012-06-24T06:41:14Z</time>
      </trkpt>
      <trkpt lat="48.99734" lon="-0.32269">
        <ele>96.75</ele>
        <time>2012-06-24T06:41:23Z</time>
      </trkpt>
      <trkpt lat="48.99727" lon="-0.32274">
        <ele>96.27</ele>
        <time>2012-06-24T06:41:26Z</time>
      </trkpt>
      <trkpt lat="48.99712" lon="-0.3228">
        <ele>96.27</ele>
        <time>2012-06-24T06:41:30Z</time>
      </trkpt>
      <trkpt lat="48.99693" lon="-0.32291">
        <ele>96.27</ele>
        <time>2012-06-24T06:41:37Z</time>
      </trkpt>
      <trkpt lat="48.99663" lon="-0.32273">
        <ele>95.79</ele>
        <time>2012-06-24T06:41:47Z</time>
      </trkpt>
      <trkpt lat="48.99653" lon="-0.32258">
        <ele>96.75</ele>
        <time>2012-06-24T06:41:56Z</time>
      </trkpt>
      <trkpt lat="48.99652" lon="-0.32257">
        <ele>96.27</ele>
        <time>2012-06-24T06:41:58Z</time>
      </trkpt>
      <trkpt lat="48.99631" lon="-0.32247">
        <ele>96.75</ele>
        <time>2012-06-24T06:42:06Z</time>
      </trkpt>
      <trkpt lat="48.9961" lon="-0.32238">
        <ele>96.75</ele>
        <time>2012-06-24T06:42:16Z</time>
      </trkpt>
      <trkpt lat="48.99601" lon="-0.32229">
        <ele>97.71</ele>
        <time>2012-06-24T06:42:20Z</time>
      </trkpt>
      <trkpt lat="48.99583" lon="-0.32219">
        <ele>97.23</ele>
        <time>2012-06-24T06:42:26Z</time>
      </trkpt>
      <trkpt lat="48.99573" lon="-0.322">
        <ele>98.19</ele>
        <time>2012-06-24T06:42:32Z</time>
      </trkpt>
      <trkpt lat="48.99573" lon="-0.32186">
        <ele>98.67</ele>
        <time>2012-06-24T06:42:36Z</time>
      </trkpt>
      <trkpt lat="48.99577" lon="-0.32179">
        <ele>98.67</ele>
        <time>2012-06-24T06:42:39Z</time>
      </trkpt>
      <trkpt lat="48.99585" lon="-0.32156">
        <ele>98.67</ele>
        <time>2012-06-24T06:42:46Z</time>
      </trkpt>
      <trkpt lat="48.99588" lon="-0.32151">
        <ele>98.67</ele>
        <time>2012-06-24T06:42:49Z</time>
      </trkpt>
      <trkpt lat="48.99589" lon="-0.32131">
        <ele>101.08</ele>
        <time>2012-06-24T06:42:55Z</time>
      </trkpt>
      <trkpt lat="48.99584" lon="-0.32112">
        <ele>102.04</ele>
        <time>2012-06-24T06:43:03Z</time>
      </trkpt>
      <trkpt lat="48.99565" lon="-0.32077">
        <ele>103.96</ele>
        <time>2012-06-24T06:43:17Z</time>
      </trkpt>
      <trkpt lat="48.99559" lon="-0.32064">
        <ele>103.48</ele>
        <time>2012-06-24T06:43:21Z</time>
      </trkpt>
      <trkpt lat="48.99554" lon="-0.32054">
        <ele>104.44</ele>
        <time>2012-06-24T06:43:24Z</time>
      </trkpt>
      <trkpt lat="48.99539" lon="-0.32025">
        <ele>105.4</ele>
        <time>2012-06-24T06:43:34Z</time>
      </trkpt>
      <trkpt lat="48.99539" lon="-0.32021">
        <ele>104.92</ele>
        <time>2012-06-24T06:43:35Z</time>
      </trkpt>
      <trkpt lat="48.99538" lon="-0.32007">
        <ele>105.88</ele>
        <time>2012-06-24T06:43:39Z</time>
      </trkpt>
      <trkpt lat="48.9953" lon="-0.31969">
        <ele>108.29</ele>
        <time>2012-06-24T06:43:51Z</time>
      </trkpt>
      <trkpt lat="48.99527" lon="-0.31942">
        <ele>109.73</ele>
        <time>2012-06-24T06:44:00Z</time>
      </trkpt>
      <trkpt lat="48.99527" lon="-0.31933">
        <ele>110.69</ele>
        <time>2012-06-24T06:44:03Z</time>
      </trkpt>
      <trkpt lat="48.99519" lon="-0.31893">
        <ele>113.57</ele>
        <time>2012-06-24T06:44:16Z</time>
      </trkpt>
      <trkpt lat="48.99517" lon="-0.31883">
        <ele>114.05</ele>
        <time>2012-06-24T06:44:19Z</time>
      </trkpt>
      <trkpt lat="48.99514" lon="-0.31874">
        <ele>115.01</ele>
        <time>2012-06-24T06:44:23Z</time>
      </trkpt>
      <trkpt lat="48.99508" lon="-0.31845">
        <ele>117.9</ele>
        <time>2012-06-24T06:44:36Z</time>
      </trkpt>
      <trkpt lat="48.99507" lon="-0.3184">
        <ele>117.9</ele>
        <time>2012-06-24T06:44:38Z</time>
      </trkpt>
      <trkpt lat="48.99504" lon="-0.31825">
        <ele>119.82</ele>
        <time>2012-06-24T06:44:46Z</time>
      </trkpt>
      <trkpt lat="48.99504" lon="-0.31814">
        <ele>120.3</ele>
        <time>2012-06-24T06:44:50Z</time>
      </trkpt>
      <trkpt lat="48.99501" lon="-0.31787">
        <ele>124.15</ele>
        <time>2012-06-24T06:45:00Z</time>
      </trkpt>
      <trkpt lat="48.99499" lon="-0.31763">
        <ele>126.55</ele>
        <time>2012-06-24T06:45:12Z</time>
      </trkpt>
      <trkpt lat="48.99495" lon="-0.31742">
        <ele>128.47</ele>
        <time>2012-06-24T06:45:24Z</time>
      </trkpt>
      <trkpt lat="48.9949" lon="-0.3172">
        <ele>130.4</ele>
        <time>2012-06-24T06:45:35Z</time>
      </trkpt>
      <trkpt lat="48.99488" lon="-0.31698">
        <ele>132.32</ele>
        <time>2012-06-24T06:45:45Z</time>
      </trkpt>
      <trkpt lat="48.99484" lon="-0.31681">
        <ele>133.76</ele>
        <time>2012-06-24T06:45:55Z</time>
      </trkpt>
      <trkpt lat="48.99484" lon="-0.31659">
        <ele>135.2</ele>
        <time>2012-06-24T06:46:05Z</time>
      </trkpt>
      <trkpt lat="48.9948" lon="-0.31626">
        <ele>137.13</ele>
        <time>2012-06-24T06:46:18Z</time>
      </trkpt>
      <trkpt lat="48.99478" lon="-0.31613">
        <ele>138.09</ele>
        <time>2012-06-24T06:46:22Z</time>
      </trkpt>
      <trkpt lat="48.99479" lon="-0.31606">
        <ele>138.57</ele>
        <time>2012-06-24T06:46:25Z</time>
      </trkpt>
      <trkpt lat="48.99478" lon="-0.316">
        <ele>138.57</ele>
        <time>2012-06-24T06:46:27Z</time>
      </trkpt>
      <trkpt lat="48.99469" lon="-0.31564">
        <ele>139.53</ele>
        <time>2012-06-24T06:46:38Z</time>
      </trkpt>
      <trkpt lat="48.99466" lon="-0.31557">
        <ele>140.01</ele>
        <time>2012-06-24T06:46:40Z</time>
      </trkpt>
      <trkpt lat="48.99459" lon="-0.31502">
        <ele>141.45</ele>
        <time>2012-06-24T06:46:53Z</time>
      </trkpt>
      <trkpt lat="48.99456" lon="-0.31489">
        <ele>141.45</ele>
        <time>2012-06-24T06:46:56Z</time>
      </trkpt>
      <trkpt lat="48.99455" lon="-0.31468">
        <ele>142.41</ele>
        <time>2012-06-24T06:47:02Z</time>
      </trkpt>
      <trkpt lat="48.99459" lon="-0.3145">
        <ele>142.89</ele>
        <time>2012-06-24T06:47:12Z</time>
      </trkpt>
      <trkpt lat="48.99464" lon="-0.3143">
        <ele>143.85</ele>
        <time>2012-06-24T06:47:19Z</time>
      </trkpt>
      <trkpt lat="48.99464" lon="-0.31429">
        <ele>143.37</ele>
        <time>2012-06-24T06:47:20Z</time>
      </trkpt>
      <trkpt lat="48.99463" lon="-0.31407">
        <ele>144.34</ele>
        <time>2012-06-24T06:47:24Z</time>
      </trkpt>
      <trkpt lat="48.99465" lon="-0.31377">
        <ele>145.3</ele>
        <time>2012-06-24T06:47:30Z</time>
      </trkpt>
      <trkpt lat="48.99466" lon="-0.31374">
        <ele>144.82</ele>
        <time>2012-06-24T06:47:32Z</time>
      </trkpt>
      <trkpt lat="48.99475" lon="-0.31369">
        <ele>145.78</ele>
        <time>2012-06-24T06:47:35Z</time>
      </trkpt>
      <trkpt lat="48.99484" lon="-0.31359">
        <ele>146.26</ele>
        <time>2012-06-24T06:47:38Z</time>
      </trkpt>
      <trkpt lat="48.99492" lon="-0.31332">
        <ele>146.26</ele>
        <time>2012-06-24T06:47:44Z</time>
      </trkpt>
      <trkpt lat="48.99501" lon="-0.31312">
        <ele>146.74</ele>
        <time>2012-06-24T06:47:49Z</time>
      </trkpt>
      <trkpt lat="48.99513" lon="-0.31284">
        <ele>149.62</ele>
        <time>2012-06-24T06:47:56Z</time>
      </trkpt>
      <trkpt lat="48.99517" lon="-0.3128">
        <ele>150.1</ele>
        <time>2012-06-24T06:47:58Z</time>
      </trkpt>
      <trkpt lat="48.99523" lon="-0.31256">
        <ele>152.03</ele>
        <time>2012-06-24T06:48:05Z</time>
      </trkpt>
      <trkpt lat="48.99521" lon="-0.31227">
        <ele>154.43</ele>
        <time>2012-06-24T06:48:11Z</time>
      </trkpt>
      <trkpt lat="48.99518" lon="-0.31195">
        <ele>156.35</ele>
        <time>2012-06-24T06:48:21Z</time>
      </trkpt>
      <trkpt lat="48.99517" lon="-0.3118">
        <ele>156.83</ele>
        <time>2012-06-24T06:48:24Z</time>
      </trkpt>
      <trkpt lat="48.99513" lon="-0.31171">
        <ele>156.83</ele>
        <time>2012-06-24T06:48:26Z</time>
      </trkpt>
      <trkpt lat="48.99515" lon="-0.31166">
        <ele>157.79</ele>
        <time>2012-06-24T06:48:31Z</time>
      </trkpt>
      <trkpt lat="48.99517" lon="-0.31153">
        <ele>159.72</ele>
        <time>2012-06-24T06:48:43Z</time>
      </trkpt>
      <trkpt lat="48.99526" lon="-0.31154">
        <ele>161.16</ele>
        <time>2012-06-24T06:48:56Z</time>
      </trkpt>
      <trkpt lat="48.99528" lon="-0.3116">
        <ele>161.64</ele>
        <time>2012-06-24T06:49:02Z</time>
      </trkpt>
      <trkpt lat="48.99534" lon="-0.31165">
        <ele>161.64</ele>
        <time>2012-06-24T06:49:06Z</time>
      </trkpt>
      <trkpt lat="48.99547" lon="-0.31156">
        <ele>161.64</ele>
        <time>2012-06-24T06:49:17Z</time>
      </trkpt>
      <trkpt lat="48.9956" lon="-0.31144">
        <ele>158.75</ele>
        <time>2012-06-24T06:49:27Z</time>
      </trkpt>
      <trkpt lat="48.99562" lon="-0.31143">
        <ele>158.75</ele>
        <time>2012-06-24T06:49:28Z</time>
      </trkpt>
      <trkpt lat="48.99571" lon="-0.31137">
        <ele>158.75</ele>
        <time>2012-06-24T06:49:32Z</time>
      </trkpt>
      <trkpt lat="48.99584" lon="-0.31129">
        <ele>158.75</ele>
        <time>2012-06-24T06:49:38Z</time>
      </trkpt>
      <trkpt lat="48.99623" lon="-0.3113">
        <ele>155.87</ele>
        <time>2012-06-24T06:49:49Z</time>
      </trkpt>
      <trkpt lat="48.99643" lon="-0.31128">
        <ele>155.39</ele>
        <time>2012-06-24T06:49:53Z</time>
      </trkpt>
      <trkpt lat="48.99651" lon="-0.31157">
        <ele>155.39</ele>
        <time>2012-06-24T06:50:01Z</time>
      </trkpt>
      <trkpt lat="48.99646" lon="-0.31177">
        <ele>154.91</ele>
        <time>2012-06-24T06:50:04Z</time>
      </trkpt>
      <trkpt lat="48.99644" lon="-0.31184">
        <ele>154.91</ele>
        <time>2012-06-24T06:50:05Z</time>
      </trkpt>
      <trkpt lat="48.99643" lon="-0.31191">
        <ele>155.39</ele>
        <time>2012-06-24T06:50:06Z</time>
      </trkpt>
      <trkpt lat="48.99643" lon="-0.31197">
        <ele>155.39</ele>
        <time>2012-06-24T06:50:07Z</time>
      </trkpt>
      <trkpt lat="48.99644" lon="-0.31203">
        <ele>155.39</ele>
        <time>2012-06-24T06:50:08Z</time>
      </trkpt>
      <trkpt lat="48.99645" lon="-0.31208">
        <ele>154.91</ele>
        <time>2012-06-24T06:50:09Z</time>
      </trkpt>
      <trkpt lat="48.99645" lon="-0.31212">
        <ele>155.39</ele>
        <time>2012-06-24T06:50:10Z</time>
      </trkpt>
      <trkpt lat="48.99645" lon="-0.31217">
        <ele>155.39</ele>
        <time>2012-06-24T06:50:11Z</time>
      </trkpt>
      <trkpt lat="48.99646" lon="-0.31221">
        <ele>154.91</ele>
        <time>2012-06-24T06:50:12Z</time>
      </trkpt>
      <trkpt lat="48.99646" lon="-0.31225">
        <ele>154.43</ele>
        <time>2012-06-24T06:50:13Z</time>
      </trkpt>
      <trkpt lat="48.99646" lon="-0.31229">
        <ele>154.91</ele>
        <time>2012-06-24T06:50:14Z</time>
      </trkpt>
      <trkpt lat="48.99646" lon="-0.31234">
        <ele>154.91</ele>
        <time>2012-06-24T06:50:15Z</time>
      </trkpt>
      <trkpt lat="48.99648" lon="-0.31237">
        <ele>154.43</ele>
        <time>2012-06-24T06:50:16Z</time>
      </trkpt>
      <trkpt lat="48.99649" lon="-0.31241">
        <ele>154.43</ele>
        <time>2012-06-24T06:50:17Z</time>
      </trkpt>
      <trkpt lat="48.99651" lon="-0.31246">
        <ele>154.43</ele>
        <time>2012-06-24T06:50:18Z</time>
      </trkpt>
      <trkpt lat="48.99652" lon="-0.31251">
        <ele>154.43</ele>
        <time>2012-06-24T06:50:19Z</time>
      </trkpt>
      <trkpt lat="48.99661" lon="-0.31299">
        <ele>153.47</ele>
        <time>2012-06-24T06:50:29Z</time>
      </trkpt>
      <trkpt lat="48.99667" lon="-0.31323">
        <ele>154.91</ele>
        <time>2012-06-24T06:50:36Z</time>
      </trkpt>
      <trkpt lat="48.99665" lon="-0.3133">
        <ele>154.91</ele>
        <time>2012-06-24T06:50:37Z</time>
      </trkpt>
      <trkpt lat="48.99662" lon="-0.31338">
        <ele>154.91</ele>
        <time>2012-06-24T06:50:38Z</time>
      </trkpt>
      <trkpt lat="48.9966" lon="-0.31346">
        <ele>155.39</ele>
        <time>2012-06-24T06:50:39Z</time>
      </trkpt>
      <trkpt lat="48.99658" lon="-0.31353">
        <ele>154.91</ele>
        <time>2012-06-24T06:50:40Z</time>
      </trkpt>
      <trkpt lat="48.99645" lon="-0.314">
        <ele>156.35</ele>
        <time>2012-06-24T06:50:49Z</time>
      </trkpt>
      <trkpt lat="48.99644" lon="-0.31405">
        <ele>157.31</ele>
        <time>2012-06-24T06:50:50Z</time>
      </trkpt>
      <trkpt lat="48.99644" lon="-0.3141">
        <ele>157.31</ele>
        <time>2012-06-24T06:50:51Z</time>
      </trkpt>
      <trkpt lat="48.99647" lon="-0.31456">
        <ele>157.31</ele>
        <time>2012-06-24T06:51:00Z</time>
      </trkpt>
      <trkpt lat="48.99654" lon="-0.31487">
        <ele>156.35</ele>
        <time>2012-06-24T06:51:06Z</time>
      </trkpt>
      <trkpt lat="48.99674" lon="-0.3153">
        <ele>153.47</ele>
        <time>2012-06-24T06:51:14Z</time>
      </trkpt>
      <trkpt lat="48.99678" lon="-0.31535">
        <ele>153.47</ele>
        <time>2012-06-24T06:51:15Z</time>
      </trkpt>
      <trkpt lat="48.9968" lon="-0.3154">
        <ele>152.99</ele>
        <time>2012-06-24T06:51:16Z</time>
      </trkpt>
      <trkpt lat="48.99681" lon="-0.31546">
        <ele>153.47</ele>
        <time>2012-06-24T06:51:17Z</time>
      </trkpt>
      <trkpt lat="48.99681" lon="-0.31552">
        <ele>153.47</ele>
        <time>2012-06-24T06:51:18Z</time>
      </trkpt>
      <trkpt lat="48.99682" lon="-0.31561">
        <ele>154.43</ele>
        <time>2012-06-24T06:51:20Z</time>
      </trkpt>
      <trkpt lat="48.99689" lon="-0.31584">
        <ele>153.95</ele>
        <time>2012-06-24T06:51:24Z</time>
      </trkpt>
      <trkpt lat="48.99689" lon="-0.31597">
        <ele>153.95</ele>
        <time>2012-06-24T06:51:26Z</time>
      </trkpt>
      <trkpt lat="48.99691" lon="-0.31603">
        <ele>153.47</ele>
        <time>2012-06-24T06:51:27Z</time>
      </trkpt>
      <trkpt lat="48.99692" lon="-0.31608">
        <ele>152.99</ele>
        <time>2012-06-24T06:51:28Z</time>
      </trkpt>
      <trkpt lat="48.99694" lon="-0.31611">
        <ele>152.03</ele>
        <time>2012-06-24T06:51:29Z</time>
      </trkpt>
      <trkpt lat="48.99697" lon="-0.31618">
        <ele>151.54</ele>
        <time>2012-06-24T06:51:32Z</time>
      </trkpt>
      <trkpt lat="48.99698" lon="-0.31622">
        <ele>151.06</ele>
        <time>2012-06-24T06:51:33Z</time>
      </trkpt>
      <trkpt lat="48.99698" lon="-0.31625">
        <ele>150.58</ele>
        <time>2012-06-24T06:51:34Z</time>
      </trkpt>
      <trkpt lat="48.99701" lon="-0.31642">
        <ele>147.22</ele>
        <time>2012-06-24T06:51:38Z</time>
      </trkpt>
      <trkpt lat="48.99709" lon="-0.31673">
        <ele>145.78</ele>
        <time>2012-06-24T06:51:42Z</time>
      </trkpt>
      <trkpt lat="48.99712" lon="-0.31682">
        <ele>145.78</ele>
        <time>2012-06-24T06:51:43Z</time>
      </trkpt>
      <trkpt lat="48.99715" lon="-0.3169">
        <ele>145.78</ele>
        <time>2012-06-24T06:51:44Z</time>
      </trkpt>
      <trkpt lat="48.99717" lon="-0.31699">
        <ele>145.78</ele>
        <time>2012-06-24T06:51:45Z</time>
      </trkpt>
      <trkpt lat="48.99717" lon="-0.31707">
        <ele>146.26</ele>
        <time>2012-06-24T06:51:46Z</time>
      </trkpt>
      <trkpt lat="48.99719" lon="-0.31719">
        <ele>147.22</ele>
        <time>2012-06-24T06:51:48Z</time>
      </trkpt>
      <trkpt lat="48.99721" lon="-0.31739">
        <ele>147.22</ele>
        <time>2012-06-24T06:51:52Z</time>
      </trkpt>
      <trkpt lat="48.99721" lon="-0.31745">
        <ele>147.22</ele>
        <time>2012-06-24T06:51:53Z</time>
      </trkpt>
      <trkpt lat="48.99721" lon="-0.31751">
        <ele>147.22</ele>
        <time>2012-06-24T06:51:54Z</time>
      </trkpt>
      <trkpt lat="48.99722" lon="-0.31755">
        <ele>147.22</ele>
        <time>2012-06-24T06:51:55Z</time>
      </trkpt>
      <trkpt lat="48.99723" lon="-0.3176">
        <ele>147.22</ele>
        <time>2012-06-24T06:51:56Z</time>
      </trkpt>
      <trkpt lat="48.99727" lon="-0.31766">
        <ele>146.74</ele>
        <time>2012-06-24T06:51:58Z</time>
      </trkpt>
      <trkpt lat="48.99737" lon="-0.31779">
        <ele>146.26</ele>
        <time>2012-06-24T06:52:01Z</time>
      </trkpt>
      <trkpt lat="48.99743" lon="-0.31812">
        <ele>150.1</ele>
        <time>2012-06-24T06:52:07Z</time>
      </trkpt>
      <trkpt lat="48.99742" lon="-0.31816">
        <ele>150.1</ele>
        <time>2012-06-24T06:52:08Z</time>
      </trkpt>
      <trkpt lat="48.99743" lon="-0.31828">
        <ele>150.58</ele>
        <time>2012-06-24T06:52:11Z</time>
      </trkpt>
      <trkpt lat="48.99744" lon="-0.31831">
        <ele>151.06</ele>
        <time>2012-06-24T06:52:12Z</time>
      </trkpt>
      <trkpt lat="48.99745" lon="-0.31835">
        <ele>151.54</ele>
        <time>2012-06-24T06:52:13Z</time>
      </trkpt>
      <trkpt lat="48.99746" lon="-0.31838">
        <ele>151.54</ele>
        <time>2012-06-24T06:52:14Z</time>
      </trkpt>
      <trkpt lat="48.99747" lon="-0.31841">
        <ele>151.06</ele>
        <time>2012-06-24T06:52:15Z</time>
      </trkpt>
      <trkpt lat="48.99752" lon="-0.31859">
        <ele>150.58</ele>
        <time>2012-06-24T06:52:20Z</time>
      </trkpt>
      <trkpt lat="48.99754" lon="-0.31866">
        <ele>149.62</ele>
        <time>2012-06-24T06:52:22Z</time>
      </trkpt>
      <trkpt lat="48.99756" lon="-0.31868">
        <ele>149.14</ele>
        <time>2012-06-24T06:52:23Z</time>
      </trkpt>
      <trkpt lat="48.99758" lon="-0.31871">
        <ele>148.18</ele>
        <time>2012-06-24T06:52:24Z</time>
      </trkpt>
      <trkpt lat="48.99761" lon="-0.31874">
        <ele>145.3</ele>
        <time>2012-06-24T06:52:25Z</time>
      </trkpt>
      <trkpt lat="48.99765" lon="-0.31877">
        <ele>144.82</ele>
        <time>2012-06-24T06:52:26Z</time>
      </trkpt>
      <trkpt lat="48.99769" lon="-0.3188">
        <ele>144.34</ele>
        <time>2012-06-24T06:52:27Z</time>
      </trkpt>
      <trkpt lat="48.99772" lon="-0.3188">
        <ele>143.85</ele>
        <time>2012-06-24T06:52:28Z</time>
      </trkpt>
      <trkpt lat="48.99787" lon="-0.31883">
        <ele>140.97</ele>
        <time>2012-06-24T06:52:33Z</time>
      </trkpt>
      <trkpt lat="48.99792" lon="-0.31886">
        <ele>140.01</ele>
        <time>2012-06-24T06:52:35Z</time>
      </trkpt>
      <trkpt lat="48.99794" lon="-0.31886">
        <ele>138.57</ele>
        <time>2012-06-24T06:52:37Z</time>
      </trkpt>
      <trkpt lat="48.998" lon="-0.31891">
        <ele>137.13</ele>
        <time>2012-06-24T06:52:40Z</time>
      </trkpt>
      <trkpt lat="48.99804" lon="-0.31905">
        <ele>138.57</ele>
        <time>2012-06-24T06:52:45Z</time>
      </trkpt>
      <trkpt lat="48.9981" lon="-0.31925">
        <ele>137.13</ele>
        <time>2012-06-24T06:52:50Z</time>
      </trkpt>
      <trkpt lat="48.99815" lon="-0.31931">
        <ele>134.24</ele>
        <time>2012-06-24T06:52:53Z</time>
      </trkpt>
      <trkpt lat="48.99821" lon="-0.31945">
        <ele>129.43</ele>
        <time>2012-06-24T06:52:57Z</time>
      </trkpt>
      <trkpt lat="48.99826" lon="-0.31955">
        <ele>126.55</ele>
        <time>2012-06-24T06:53:00Z</time>
      </trkpt>
      <trkpt lat="48.99827" lon="-0.31956">
        <ele>126.07</ele>
        <time>2012-06-24T06:53:01Z</time>
      </trkpt>
      <trkpt lat="48.99835" lon="-0.31987">
        <ele>122.71</ele>
        <time>2012-06-24T06:53:06Z</time>
      </trkpt>
      <trkpt lat="48.99837" lon="-0.31992">
        <ele>121.26</ele>
        <time>2012-06-24T06:53:07Z</time>
      </trkpt>
      <trkpt lat="48.99842" lon="-0.31996">
        <ele>118.86</ele>
        <time>2012-06-24T06:53:10Z</time>
      </trkpt>
      <trkpt lat="48.99845" lon="-0.31988">
        <ele>116.94</ele>
        <time>2012-06-24T06:53:12Z</time>
      </trkpt>
      <trkpt lat="48.99846" lon="-0.31982">
        <ele>115.5</ele>
        <time>2012-06-24T06:53:13Z</time>
      </trkpt>
      <trkpt lat="48.99846" lon="-0.31956">
        <ele>114.53</ele>
        <time>2012-06-24T06:53:17Z</time>
      </trkpt>
      <trkpt lat="48.9985" lon="-0.31951">
        <ele>114.05</ele>
        <time>2012-06-24T06:53:18Z</time>
      </trkpt>
      <trkpt lat="48.99851" lon="-0.31946">
        <ele>114.53</ele>
        <time>2012-06-24T06:53:19Z</time>
      </trkpt>
      <trkpt lat="48.99853" lon="-0.31941">
        <ele>115.01</ele>
        <time>2012-06-24T06:53:20Z</time>
      </trkpt>
      <trkpt lat="48.99857" lon="-0.31936">
        <ele>114.53</ele>
        <time>2012-06-24T06:53:21Z</time>
      </trkpt>
      <trkpt lat="48.99861" lon="-0.31932">
        <ele>115.5</ele>
        <time>2012-06-24T06:53:22Z</time>
      </trkpt>
      <trkpt lat="48.99863" lon="-0.31928">
        <ele>115.98</ele>
        <time>2012-06-24T06:53:23Z</time>
      </trkpt>
      <trkpt lat="48.99863" lon="-0.31924">
        <ele>115.98</ele>
        <time>2012-06-24T06:53:24Z</time>
      </trkpt>
      <trkpt lat="48.9986" lon="-0.31906">
        <ele>116.94</ele>
        <time>2012-06-24T06:53:28Z</time>
      </trkpt>
      <trkpt lat="48.99861" lon="-0.31902">
        <ele>117.42</ele>
        <time>2012-06-24T06:53:29Z</time>
      </trkpt>
      <trkpt lat="48.99861" lon="-0.31897">
        <ele>116.94</ele>
        <time>2012-06-24T06:53:30Z</time>
      </trkpt>
      <trkpt lat="48.99862" lon="-0.31894">
        <ele>117.9</ele>
        <time>2012-06-24T06:53:31Z</time>
      </trkpt>
      <trkpt lat="48.99863" lon="-0.3189">
        <ele>118.38</ele>
        <time>2012-06-24T06:53:32Z</time>
      </trkpt>
      <trkpt lat="48.99864" lon="-0.31888">
        <ele>117.9</ele>
        <time>2012-06-24T06:53:33Z</time>
      </trkpt>
      <trkpt lat="48.99863" lon="-0.31885">
        <ele>117.42</ele>
        <time>2012-06-24T06:53:34Z</time>
      </trkpt>
      <trkpt lat="48.99863" lon="-0.31882">
        <ele>117.9</ele>
        <time>2012-06-24T06:53:35Z</time>
      </trkpt>
      <trkpt lat="48.99864" lon="-0.31879">
        <ele>117.9</ele>
        <time>2012-06-24T06:53:36Z</time>
      </trkpt>
      <trkpt lat="48.99864" lon="-0.31876">
        <ele>117.9</ele>
        <time>2012-06-24T06:53:37Z</time>
      </trkpt>
      <trkpt lat="48.99866" lon="-0.31866">
        <ele>117.42</ele>
        <time>2012-06-24T06:53:39Z</time>
      </trkpt>
      <trkpt lat="48.99884" lon="-0.31832">
        <ele>114.53</ele>
        <time>2012-06-24T06:53:46Z</time>
      </trkpt>
      <trkpt lat="48.99897" lon="-0.31818">
        <ele>115.98</ele>
        <time>2012-06-24T06:53:51Z</time>
      </trkpt>
      <trkpt lat="48.99899" lon="-0.31815">
        <ele>116.46</ele>
        <time>2012-06-24T06:53:52Z</time>
      </trkpt>
      <trkpt lat="48.99901" lon="-0.31803">
        <ele>116.94</ele>
        <time>2012-06-24T06:53:55Z</time>
      </trkpt>
      <trkpt lat="48.99903" lon="-0.31789">
        <ele>118.38</ele>
        <time>2012-06-24T06:53:59Z</time>
      </trkpt>
      <trkpt lat="48.99905" lon="-0.31764">
        <ele>120.78</ele>
        <time>2012-06-24T06:54:09Z</time>
      </trkpt>
      <trkpt lat="48.99903" lon="-0.31756">
        <ele>109.25</ele>
        <time>2012-06-24T06:54:13Z</time>
      </trkpt>
      <trkpt lat="48.99902" lon="-0.31753">
        <ele>123.19</ele>
        <time>2012-06-24T06:54:14Z</time>
      </trkpt>
      <trkpt lat="48.99901" lon="-0.31743">
        <ele>123.67</ele>
        <time>2012-06-24T06:54:18Z</time>
      </trkpt>
      <trkpt lat="48.99898" lon="-0.31732">
        <ele>125.59</ele>
        <time>2012-06-24T06:54:23Z</time>
      </trkpt>
      <trkpt lat="48.99891" lon="-0.31716">
        <ele>126.55</ele>
        <time>2012-06-24T06:54:31Z</time>
      </trkpt>
      <trkpt lat="48.99887" lon="-0.31696">
        <ele>128.47</ele>
        <time>2012-06-24T06:54:42Z</time>
      </trkpt>
      <trkpt lat="48.99886" lon="-0.3169">
        <ele>129.43</ele>
        <time>2012-06-24T06:54:45Z</time>
      </trkpt>
      <trkpt lat="48.99881" lon="-0.31677">
        <ele>130.88</ele>
        <time>2012-06-24T06:54:50Z</time>
      </trkpt>
      <trkpt lat="48.99877" lon="-0.31661">
        <ele>131.84</ele>
        <time>2012-06-24T06:54:58Z</time>
      </trkpt>
      <trkpt lat="48.99873" lon="-0.3165">
        <ele>132.8</ele>
        <time>2012-06-24T06:55:03Z</time>
      </trkpt>
      <trkpt lat="48.99866" lon="-0.31644">
        <ele>133.28</ele>
        <time>2012-06-24T06:55:07Z</time>
      </trkpt>
      <trkpt lat="48.99845" lon="-0.31613">
        <ele>135.68</ele>
        <time>2012-06-24T06:55:22Z</time>
      </trkpt>
      <trkpt lat="48.99833" lon="-0.31601">
        <ele>136.64</ele>
        <time>2012-06-24T06:55:29Z</time>
      </trkpt>
      <trkpt lat="48.99815" lon="-0.31573">
        <ele>138.57</ele>
        <time>2012-06-24T06:55:41Z</time>
      </trkpt>
      <trkpt lat="48.99802" lon="-0.31544">
        <ele>140.97</ele>
        <time>2012-06-24T06:55:54Z</time>
      </trkpt>
      <trkpt lat="48.99801" lon="-0.3154">
        <ele>140.97</ele>
        <time>2012-06-24T06:55:55Z</time>
      </trkpt>
      <trkpt lat="48.99799" lon="-0.31528">
        <ele>141.93</ele>
        <time>2012-06-24T06:55:59Z</time>
      </trkpt>
      <trkpt lat="48.99788" lon="-0.31478">
        <ele>143.37</ele>
        <time>2012-06-24T06:56:14Z</time>
      </trkpt>
      <trkpt lat="48.99787" lon="-0.31471">
        <ele>143.85</ele>
        <time>2012-06-24T06:56:16Z</time>
      </trkpt>
      <trkpt lat="48.99787" lon="-0.31461">
        <ele>143.85</ele>
        <time>2012-06-24T06:56:19Z</time>
      </trkpt>
      <trkpt lat="48.99788" lon="-0.31452">
        <ele>144.34</ele>
        <time>2012-06-24T06:56:22Z</time>
      </trkpt>
      <trkpt lat="48.99781" lon="-0.31417">
        <ele>144.82</ele>
        <time>2012-06-24T06:56:31Z</time>
      </trkpt>
      <trkpt lat="48.99777" lon="-0.31407">
        <ele>145.3</ele>
        <time>2012-06-24T06:56:34Z</time>
      </trkpt>
      <trkpt lat="48.99773" lon="-0.31395">
        <ele>146.74</ele>
        <time>2012-06-24T06:56:37Z</time>
      </trkpt>
      <trkpt lat="48.9977" lon="-0.31378">
        <ele>148.18</ele>
        <time>2012-06-24T06:56:43Z</time>
      </trkpt>
      <trkpt lat="48.99757" lon="-0.31347">
        <ele>149.14</ele>
        <time>2012-06-24T06:56:52Z</time>
      </trkpt>
      <trkpt lat="48.99749" lon="-0.31314">
        <ele>150.58</ele>
        <time>2012-06-24T06:57:03Z</time>
      </trkpt>
      <trkpt lat="48.9973" lon="-0.31262">
        <ele>151.54</ele>
        <time>2012-06-24T06:57:13Z</time>
      </trkpt>
      <trkpt lat="48.99712" lon="-0.31212">
        <ele>152.51</ele>
        <time>2012-06-24T06:57:24Z</time>
      </trkpt>
      <trkpt lat="48.99704" lon="-0.31189">
        <ele>153.47</ele>
        <time>2012-06-24T06:57:30Z</time>
      </trkpt>
      <trkpt lat="48.99694" lon="-0.31162">
        <ele>155.39</ele>
        <time>2012-06-24T06:57:38Z</time>
      </trkpt>
      <trkpt lat="48.99675" lon="-0.31128">
        <ele>154.91</ele>
        <time>2012-06-24T06:57:50Z</time>
      </trkpt>
      <trkpt lat="48.99662" lon="-0.31079">
        <ele>156.35</ele>
        <time>2012-06-24T06:58:01Z</time>
      </trkpt>
      <trkpt lat="48.99656" lon="-0.31026">
        <ele>155.87</ele>
        <time>2012-06-24T06:58:13Z</time>
      </trkpt>
      <trkpt lat="48.99646" lon="-0.30978">
        <ele>157.79</ele>
        <time>2012-06-24T06:58:24Z</time>
      </trkpt>
      <trkpt lat="48.99635" lon="-0.30925">
        <ele>157.79</ele>
        <time>2012-06-24T06:58:35Z</time>
      </trkpt>
      <trkpt lat="48.99617" lon="-0.30864">
        <ele>158.75</ele>
        <time>2012-06-24T06:58:47Z</time>
      </trkpt>
      <trkpt lat="48.99604" lon="-0.30819">
        <ele>158.27</ele>
        <time>2012-06-24T06:58:57Z</time>
      </trkpt>
      <trkpt lat="48.99589" lon="-0.30763">
        <ele>158.75</ele>
        <time>2012-06-24T06:59:07Z</time>
      </trkpt>
      <trkpt lat="48.99581" lon="-0.30703">
        <ele>159.24</ele>
        <time>2012-06-24T06:59:19Z</time>
      </trkpt>
      <trkpt lat="48.99574" lon="-0.30635">
        <ele>158.75</ele>
        <time>2012-06-24T06:59:31Z</time>
      </trkpt>
      <trkpt lat="48.9956" lon="-0.30585">
        <ele>159.72</ele>
        <time>2012-06-24T06:59:42Z</time>
      </trkpt>
      <trkpt lat="48.99553" lon="-0.3056">
        <ele>159.72</ele>
        <time>2012-06-24T06:59:48Z</time>
      </trkpt>
      <trkpt lat="48.99518" lon="-0.30572">
        <ele>159.24</ele>
        <time>2012-06-24T07:00:00Z</time>
      </trkpt>
      <trkpt lat="48.99473" lon="-0.30593">
        <ele>161.64</ele>
        <time>2012-06-24T07:00:15Z</time>
      </trkpt>
      <trkpt lat="48.9945" lon="-0.30604">
        <ele>162.6</ele>
        <time>2012-06-24T07:00:22Z</time>
      </trkpt>
      <trkpt lat="48.99419" lon="-0.3061">
        <ele>163.08</ele>
        <time>2012-06-24T07:00:32Z</time>
      </trkpt>
      <trkpt lat="48.99401" lon="-0.3061">
        <ele>161.16</ele>
        <time>2012-06-24T07:00:37Z</time>
      </trkpt>
      <trkpt lat="48.99396" lon="-0.30634">
        <ele>160.2</ele>
        <time>2012-06-24T07:00:42Z</time>
      </trkpt>
      <trkpt lat="48.99405" lon="-0.30708">
        <ele>160.2</ele>
        <time>2012-06-24T07:00:55Z</time>
      </trkpt>
      <trkpt lat="48.99421" lon="-0.30788">
        <ele>161.16</ele>
        <time>2012-06-24T07:01:11Z</time>
      </trkpt>
      <trkpt lat="48.99446" lon="-0.30837">
        <ele>162.12</ele>
        <time>2012-06-24T07:01:23Z</time>
      </trkpt>
      <trkpt lat="48.99451" lon="-0.30847">
        <ele>163.08</ele>
        <time>2012-06-24T07:01:32Z</time>
      </trkpt>
      <trkpt lat="48.99451" lon="-0.30847">
        <ele>162.6</ele>
        <time>2012-06-24T07:01:38Z</time>
      </trkpt>
      <trkpt lat="48.99444" lon="-0.30834">
        <ele>162.12</ele>
        <time>2012-06-24T07:01:44Z</time>
      </trkpt>
      <trkpt lat="48.99419" lon="-0.30775">
        <ele>160.2</ele>
        <time>2012-06-24T07:01:56Z</time>
      </trkpt>
      <trkpt lat="48.99415" lon="-0.30763">
        <ele>160.2</ele>
        <time>2012-06-24T07:01:58Z</time>
      </trkpt>
      <trkpt lat="48.99411" lon="-0.30734">
        <ele>160.2</ele>
        <time>2012-06-24T07:02:03Z</time>
      </trkpt>
      <trkpt lat="48.9941" lon="-0.30728">
        <ele>159.72</ele>
        <time>2012-06-24T07:02:04Z</time>
      </trkpt>
      <trkpt lat="48.99405" lon="-0.30709">
        <ele>160.2</ele>
        <time>2012-06-24T07:02:08Z</time>
      </trkpt>
      <trkpt lat="48.99402" lon="-0.30707">
        <ele>160.2</ele>
        <time>2012-06-24T07:02:09Z</time>
      </trkpt>
      <trkpt lat="48.994" lon="-0.30705">
        <ele>159.24</ele>
        <time>2012-06-24T07:02:10Z</time>
      </trkpt>
      <trkpt lat="48.99398" lon="-0.30702">
        <ele>157.31</ele>
        <time>2012-06-24T07:02:11Z</time>
      </trkpt>
      <trkpt lat="48.99396" lon="-0.30698">
        <ele>156.35</ele>
        <time>2012-06-24T07:02:12Z</time>
      </trkpt>
      <trkpt lat="48.99394" lon="-0.30693">
        <ele>155.87</ele>
        <time>2012-06-24T07:02:13Z</time>
      </trkpt>
      <trkpt lat="48.99391" lon="-0.30687">
        <ele>154.91</ele>
        <time>2012-06-24T07:02:14Z</time>
      </trkpt>
      <trkpt lat="48.99375" lon="-0.30657">
        <ele>151.54</ele>
        <time>2012-06-24T07:02:21Z</time>
      </trkpt>
      <trkpt lat="48.99369" lon="-0.30652">
        <ele>150.1</ele>
        <time>2012-06-24T07:02:23Z</time>
      </trkpt>
      <trkpt lat="48.99363" lon="-0.30654">
        <ele>149.14</ele>
        <time>2012-06-24T07:02:24Z</time>
      </trkpt>
      <trkpt lat="48.99358" lon="-0.3066">
        <ele>147.7</ele>
        <time>2012-06-24T07:02:25Z</time>
      </trkpt>
      <trkpt lat="48.99346" lon="-0.30673">
        <ele>146.26</ele>
        <time>2012-06-24T07:02:27Z</time>
      </trkpt>
      <trkpt lat="48.99339" lon="-0.30677">
        <ele>146.26</ele>
        <time>2012-06-24T07:02:28Z</time>
      </trkpt>
      <trkpt lat="48.9933" lon="-0.30679">
        <ele>145.3</ele>
        <time>2012-06-24T07:02:29Z</time>
      </trkpt>
      <trkpt lat="48.99322" lon="-0.30679">
        <ele>144.34</ele>
        <time>2012-06-24T07:02:30Z</time>
      </trkpt>
      <trkpt lat="48.99314" lon="-0.30678">
        <ele>144.82</ele>
        <time>2012-06-24T07:02:31Z</time>
      </trkpt>
      <trkpt lat="48.99307" lon="-0.30674">
        <ele>145.3</ele>
        <time>2012-06-24T07:02:32Z</time>
      </trkpt>
      <trkpt lat="48.993" lon="-0.3067">
        <ele>144.82</ele>
        <time>2012-06-24T07:02:33Z</time>
      </trkpt>
      <trkpt lat="48.99267" lon="-0.30654">
        <ele>145.78</ele>
        <time>2012-06-24T07:02:38Z</time>
      </trkpt>
      <trkpt lat="48.99255" lon="-0.30652">
        <ele>145.78</ele>
        <time>2012-06-24T07:02:40Z</time>
      </trkpt>
      <trkpt lat="48.9925" lon="-0.30652">
        <ele>146.26</ele>
        <time>2012-06-24T07:02:41Z</time>
      </trkpt>
      <trkpt lat="48.99245" lon="-0.30653">
        <ele>146.74</ele>
        <time>2012-06-24T07:02:42Z</time>
      </trkpt>
      <trkpt lat="48.99241" lon="-0.30656">
        <ele>147.22</ele>
        <time>2012-06-24T07:02:43Z</time>
      </trkpt>
      <trkpt lat="48.99238" lon="-0.30659">
        <ele>147.22</ele>
        <time>2012-06-24T07:02:44Z</time>
      </trkpt>
      <trkpt lat="48.99235" lon="-0.30662">
        <ele>148.18</ele>
        <time>2012-06-24T07:02:45Z</time>
      </trkpt>
      <trkpt lat="48.99233" lon="-0.30665">
        <ele>148.18</ele>
        <time>2012-06-24T07:02:46Z</time>
      </trkpt>
      <trkpt lat="48.99215" lon="-0.30683">
        <ele>151.54</ele>
        <time>2012-06-24T07:02:52Z</time>
      </trkpt>
      <trkpt lat="48.99212" lon="-0.30686">
        <ele>151.54</ele>
        <time>2012-06-24T07:02:53Z</time>
      </trkpt>
      <trkpt lat="48.99208" lon="-0.30691">
        <ele>152.99</ele>
        <time>2012-06-24T07:02:55Z</time>
      </trkpt>
      <trkpt lat="48.99188" lon="-0.30715">
        <ele>155.87</ele>
        <time>2012-06-24T07:03:02Z</time>
      </trkpt>
      <trkpt lat="48.99177" lon="-0.30722">
        <ele>157.79</ele>
        <time>2012-06-24T07:03:05Z</time>
      </trkpt>
      <trkpt lat="48.99163" lon="-0.3073">
        <ele>159.72</ele>
        <time>2012-06-24T07:03:09Z</time>
      </trkpt>
      <trkpt lat="48.99159" lon="-0.30697">
        <ele>161.16</ele>
        <time>2012-06-24T07:03:17Z</time>
      </trkpt>
      <trkpt lat="48.99161" lon="-0.30599">
        <ele>161.64</ele>
        <time>2012-06-24T07:03:33Z</time>
      </trkpt>
      <trkpt lat="48.99162" lon="-0.3058">
        <ele>161.64</ele>
        <time>2012-06-24T07:03:36Z</time>
      </trkpt>
      <trkpt lat="48.99162" lon="-0.30573">
        <ele>161.64</ele>
        <time>2012-06-24T07:03:37Z</time>
      </trkpt>
      <trkpt lat="48.99167" lon="-0.30468">
        <ele>163.08</ele>
        <time>2012-06-24T07:03:53Z</time>
      </trkpt>
      <trkpt lat="48.99172" lon="-0.30373">
        <ele>164.04</ele>
        <time>2012-06-24T07:04:07Z</time>
      </trkpt>
      <trkpt lat="48.99175" lon="-0.30317">
        <ele>165</ele>
        <time>2012-06-24T07:04:16Z</time>
      </trkpt>
      <trkpt lat="48.99176" lon="-0.30297">
        <ele>164.52</ele>
        <time>2012-06-24T07:04:19Z</time>
      </trkpt>
      <trkpt lat="48.99175" lon="-0.3029">
        <ele>163.08</ele>
        <time>2012-06-24T07:04:20Z</time>
      </trkpt>
      <trkpt lat="48.99172" lon="-0.30284">
        <ele>163.56</ele>
        <time>2012-06-24T07:04:21Z</time>
      </trkpt>
      <trkpt lat="48.99169" lon="-0.30279">
        <ele>163.08</ele>
        <time>2012-06-24T07:04:22Z</time>
      </trkpt>
      <trkpt lat="48.99165" lon="-0.30275">
        <ele>163.08</ele>
        <time>2012-06-24T07:04:23Z</time>
      </trkpt>
      <trkpt lat="48.9916" lon="-0.30274">
        <ele>162.6</ele>
        <time>2012-06-24T07:04:24Z</time>
      </trkpt>
      <trkpt lat="48.99156" lon="-0.30273">
        <ele>162.12</ele>
        <time>2012-06-24T07:04:25Z</time>
      </trkpt>
      <trkpt lat="48.99151" lon="-0.30273">
        <ele>163.08</ele>
        <time>2012-06-24T07:04:26Z</time>
      </trkpt>
      <trkpt lat="48.99138" lon="-0.30271">
        <ele>164.04</ele>
        <time>2012-06-24T07:04:29Z</time>
      </trkpt>
      <trkpt lat="48.99133" lon="-0.3027">
        <ele>163.56</ele>
        <time>2012-06-24T07:04:30Z</time>
      </trkpt>
      <trkpt lat="48.99103" lon="-0.30262">
        <ele>165.48</ele>
        <time>2012-06-24T07:04:37Z</time>
      </trkpt>
      <trkpt lat="48.99098" lon="-0.30262">
        <ele>165.48</ele>
        <time>2012-06-24T07:04:38Z</time>
      </trkpt>
      <trkpt lat="48.99094" lon="-0.30262">
        <ele>165.48</ele>
        <time>2012-06-24T07:04:39Z</time>
      </trkpt>
      <trkpt lat="48.99035" lon="-0.30248">
        <ele>166.45</ele>
        <time>2012-06-24T07:04:53Z</time>
      </trkpt>
      <trkpt lat="48.98998" lon="-0.30238">
        <ele>169.81</ele>
        <time>2012-06-24T07:05:02Z</time>
      </trkpt>
      <trkpt lat="48.98983" lon="-0.30232">
        <ele>170.77</ele>
        <time>2012-06-24T07:05:06Z</time>
      </trkpt>
      <trkpt lat="48.9892" lon="-0.30196">
        <ele>170.29</ele>
        <time>2012-06-24T07:05:22Z</time>
      </trkpt>
      <trkpt lat="48.9889" lon="-0.30178">
        <ele>170.77</ele>
        <time>2012-06-24T07:05:29Z</time>
      </trkpt>
      <trkpt lat="48.98885" lon="-0.30175">
        <ele>170.29</ele>
        <time>2012-06-24T07:05:30Z</time>
      </trkpt>
      <trkpt lat="48.98811" lon="-0.30131">
        <ele>171.73</ele>
        <time>2012-06-24T07:05:46Z</time>
      </trkpt>
      <trkpt lat="48.98786" lon="-0.30117">
        <ele>171.73</ele>
        <time>2012-06-24T07:05:52Z</time>
      </trkpt>
      <trkpt lat="48.98782" lon="-0.30119">
        <ele>172.69</ele>
        <time>2012-06-24T07:05:53Z</time>
      </trkpt>
      <trkpt lat="48.98779" lon="-0.30125">
        <ele>173.66</ele>
        <time>2012-06-24T07:05:54Z</time>
      </trkpt>
      <trkpt lat="48.98778" lon="-0.30132">
        <ele>173.66</ele>
        <time>2012-06-24T07:05:55Z</time>
      </trkpt>
      <trkpt lat="48.98777" lon="-0.3014">
        <ele>173.17</ele>
        <time>2012-06-24T07:05:56Z</time>
      </trkpt>
      <trkpt lat="48.9876" lon="-0.30281">
        <ele>171.73</ele>
        <time>2012-06-24T07:06:14Z</time>
      </trkpt>
      <trkpt lat="48.98739" lon="-0.3041">
        <ele>169.33</ele>
        <time>2012-06-24T07:06:29Z</time>
      </trkpt>
      <trkpt lat="48.98731" lon="-0.30445">
        <ele>167.89</ele>
        <time>2012-06-24T07:06:33Z</time>
      </trkpt>
      <trkpt lat="48.98723" lon="-0.3048">
        <ele>169.33</ele>
        <time>2012-06-24T07:06:37Z</time>
      </trkpt>
      <trkpt lat="48.98721" lon="-0.30488">
        <ele>168.37</ele>
        <time>2012-06-24T07:06:38Z</time>
      </trkpt>
      <trkpt lat="48.9872" lon="-0.30495">
        <ele>168.37</ele>
        <time>2012-06-24T07:06:39Z</time>
      </trkpt>
      <trkpt lat="48.9872" lon="-0.30502">
        <ele>167.89</ele>
        <time>2012-06-24T07:06:40Z</time>
      </trkpt>
      <trkpt lat="48.98719" lon="-0.30509">
        <ele>167.41</ele>
        <time>2012-06-24T07:06:41Z</time>
      </trkpt>
      <trkpt lat="48.98718" lon="-0.30517">
        <ele>165.96</ele>
        <time>2012-06-24T07:06:42Z</time>
      </trkpt>
      <trkpt lat="48.98715" lon="-0.30525">
        <ele>167.41</ele>
        <time>2012-06-24T07:06:43Z</time>
      </trkpt>
      <trkpt lat="48.98712" lon="-0.30532">
        <ele>167.41</ele>
        <time>2012-06-24T07:06:44Z</time>
      </trkpt>
      <trkpt lat="48.98709" lon="-0.30539">
        <ele>168.37</ele>
        <time>2012-06-24T07:06:45Z</time>
      </trkpt>
      <trkpt lat="48.98688" lon="-0.30586">
        <ele>169.81</ele>
        <time>2012-06-24T07:06:52Z</time>
      </trkpt>
      <trkpt lat="48.98678" lon="-0.30605">
        <ele>169.81</ele>
        <time>2012-06-24T07:06:55Z</time>
      </trkpt>
      <trkpt lat="48.98676" lon="-0.30613">
        <ele>169.81</ele>
        <time>2012-06-24T07:06:56Z</time>
      </trkpt>
      <trkpt lat="48.98674" lon="-0.3062">
        <ele>169.81</ele>
        <time>2012-06-24T07:06:57Z</time>
      </trkpt>
      <trkpt lat="48.98673" lon="-0.30627">
        <ele>169.81</ele>
        <time>2012-06-24T07:06:58Z</time>
      </trkpt>
      <trkpt lat="48.98672" lon="-0.30634">
        <ele>170.29</ele>
        <time>2012-06-24T07:06:59Z</time>
      </trkpt>
      <trkpt lat="48.98667" lon="-0.30664">
        <ele>170.77</ele>
        <time>2012-06-24T07:07:03Z</time>
      </trkpt>
      <trkpt lat="48.98666" lon="-0.30671">
        <ele>170.77</ele>
        <time>2012-06-24T07:07:04Z</time>
      </trkpt>
      <trkpt lat="48.98663" lon="-0.30678">
        <ele>170.77</ele>
        <time>2012-06-24T07:07:05Z</time>
      </trkpt>
      <trkpt lat="48.9866" lon="-0.30685">
        <ele>171.25</ele>
        <time>2012-06-24T07:07:06Z</time>
      </trkpt>
      <trkpt lat="48.98658" lon="-0.30691">
        <ele>170.29</ele>
        <time>2012-06-24T07:07:07Z</time>
      </trkpt>
      <trkpt lat="48.98651" lon="-0.30709">
        <ele>170.77</ele>
        <time>2012-06-24T07:07:10Z</time>
      </trkpt>
      <trkpt lat="48.98648" lon="-0.30715">
        <ele>171.25</ele>
        <time>2012-06-24T07:07:11Z</time>
      </trkpt>
      <trkpt lat="48.98627" lon="-0.30763">
        <ele>172.21</ele>
        <time>2012-06-24T07:07:19Z</time>
      </trkpt>
      <trkpt lat="48.98621" lon="-0.30774">
        <ele>172.21</ele>
        <time>2012-06-24T07:07:21Z</time>
      </trkpt>
      <trkpt lat="48.98618" lon="-0.30778">
        <ele>170.29</ele>
        <time>2012-06-24T07:07:22Z</time>
      </trkpt>
      <trkpt lat="48.98617" lon="-0.30784">
        <ele>169.81</ele>
        <time>2012-06-24T07:07:23Z</time>
      </trkpt>
      <trkpt lat="48.98616" lon="-0.3079">
        <ele>170.77</ele>
        <time>2012-06-24T07:07:24Z</time>
      </trkpt>
      <trkpt lat="48.98615" lon="-0.30797">
        <ele>171.25</ele>
        <time>2012-06-24T07:07:25Z</time>
      </trkpt>
      <trkpt lat="48.98615" lon="-0.30803">
        <ele>171.73</ele>
        <time>2012-06-24T07:07:26Z</time>
      </trkpt>
      <trkpt lat="48.98616" lon="-0.30809">
        <ele>169.81</ele>
        <time>2012-06-24T07:07:27Z</time>
      </trkpt>
      <trkpt lat="48.98617" lon="-0.30823">
        <ele>171.25</ele>
        <time>2012-06-24T07:07:29Z</time>
      </trkpt>
      <trkpt lat="48.98621" lon="-0.3084">
        <ele>173.17</ele>
        <time>2012-06-24T07:07:37Z</time>
      </trkpt>
      <trkpt lat="48.98623" lon="-0.30839">
        <ele>172.69</ele>
        <time>2012-06-24T07:07:41Z</time>
      </trkpt>
      <trkpt lat="48.98652" lon="-0.30849">
        <ele>171.25</ele>
        <time>2012-06-24T07:07:50Z</time>
      </trkpt>
      <trkpt lat="48.9866" lon="-0.30852">
        <ele>170.77</ele>
        <time>2012-06-24T07:07:52Z</time>
      </trkpt>
      <trkpt lat="48.98665" lon="-0.30854">
        <ele>170.77</ele>
        <time>2012-06-24T07:07:53Z</time>
      </trkpt>
      <trkpt lat="48.98673" lon="-0.30857">
        <ele>170.77</ele>
        <time>2012-06-24T07:07:55Z</time>
      </trkpt>
      <trkpt lat="48.98677" lon="-0.30859">
        <ele>171.25</ele>
        <time>2012-06-24T07:07:56Z</time>
      </trkpt>
      <trkpt lat="48.98681" lon="-0.30862">
        <ele>170.29</ele>
        <time>2012-06-24T07:07:57Z</time>
      </trkpt>
      <trkpt lat="48.98684" lon="-0.30867">
        <ele>170.29</ele>
        <time>2012-06-24T07:07:58Z</time>
      </trkpt>
      <trkpt lat="48.98686" lon="-0.30873">
        <ele>170.77</ele>
        <time>2012-06-24T07:07:59Z</time>
      </trkpt>
      <trkpt lat="48.98688" lon="-0.30879">
        <ele>169.81</ele>
        <time>2012-06-24T07:08:00Z</time>
      </trkpt>
      <trkpt lat="48.98698" lon="-0.30903">
        <ele>169.81</ele>
        <time>2012-06-24T07:08:04Z</time>
      </trkpt>
      <trkpt lat="48.98717" lon="-0.30947">
        <ele>169.81</ele>
        <time>2012-06-24T07:08:13Z</time>
      </trkpt>
      <trkpt lat="48.98723" lon="-0.30974">
        <ele>169.33</ele>
        <time>2012-06-24T07:08:18Z</time>
      </trkpt>
      <trkpt lat="48.98715" lon="-0.31003">
        <ele>168.85</ele>
        <time>2012-06-24T07:08:23Z</time>
      </trkpt>
      <trkpt lat="48.98712" lon="-0.31012">
        <ele>169.81</ele>
        <time>2012-06-24T07:08:24Z</time>
      </trkpt>
      <trkpt lat="48.9871" lon="-0.3102">
        <ele>169.33</ele>
        <time>2012-06-24T07:08:25Z</time>
      </trkpt>
      <trkpt lat="48.98707" lon="-0.31042">
        <ele>168.85</ele>
        <time>2012-06-24T07:08:28Z</time>
      </trkpt>
      <trkpt lat="48.98705" lon="-0.31049">
        <ele>168.85</ele>
        <time>2012-06-24T07:08:29Z</time>
      </trkpt>
      <trkpt lat="48.98704" lon="-0.31058">
        <ele>169.81</ele>
        <time>2012-06-24T07:08:30Z</time>
      </trkpt>
      <trkpt lat="48.98703" lon="-0.31065">
        <ele>169.33</ele>
        <time>2012-06-24T07:08:31Z</time>
      </trkpt>
      <trkpt lat="48.98702" lon="-0.31072">
        <ele>169.81</ele>
        <time>2012-06-24T07:08:32Z</time>
      </trkpt>
      <trkpt lat="48.98694" lon="-0.31136">
        <ele>169.33</ele>
        <time>2012-06-24T07:08:42Z</time>
      </trkpt>
      <trkpt lat="48.98687" lon="-0.31178">
        <ele>169.81</ele>
        <time>2012-06-24T07:08:50Z</time>
      </trkpt>
      <trkpt lat="48.98683" lon="-0.31222">
        <ele>168.85</ele>
        <time>2012-06-24T07:09:02Z</time>
      </trkpt>
      <trkpt lat="48.98683" lon="-0.31255">
        <ele>168.85</ele>
        <time>2012-06-24T07:09:12Z</time>
      </trkpt>
      <trkpt lat="48.98689" lon="-0.31283">
        <ele>165.96</ele>
        <time>2012-06-24T07:09:19Z</time>
      </trkpt>
      <trkpt lat="48.98691" lon="-0.31288">
        <ele>167.89</ele>
        <time>2012-06-24T07:09:20Z</time>
      </trkpt>
      <trkpt lat="48.98692" lon="-0.31292">
        <ele>166.93</ele>
        <time>2012-06-24T07:09:21Z</time>
      </trkpt>
      <trkpt lat="48.98693" lon="-0.31297">
        <ele>166.93</ele>
        <time>2012-06-24T07:09:22Z</time>
      </trkpt>
      <trkpt lat="48.98693" lon="-0.31303">
        <ele>166.45</ele>
        <time>2012-06-24T07:09:23Z</time>
      </trkpt>
      <trkpt lat="48.98691" lon="-0.31345">
        <ele>164.04</ele>
        <time>2012-06-24T07:09:29Z</time>
      </trkpt>
      <trkpt lat="48.9869" lon="-0.31367">
        <ele>161.64</ele>
        <time>2012-06-24T07:09:32Z</time>
      </trkpt>
      <trkpt lat="48.9869" lon="-0.31375">
        <ele>161.16</ele>
        <time>2012-06-24T07:09:33Z</time>
      </trkpt>
      <trkpt lat="48.98689" lon="-0.31393">
        <ele>160.68</ele>
        <time>2012-06-24T07:09:35Z</time>
      </trkpt>
      <trkpt lat="48.98688" lon="-0.31408">
        <ele>159.72</ele>
        <time>2012-06-24T07:09:37Z</time>
      </trkpt>
      <trkpt lat="48.98687" lon="-0.31416">
        <ele>159.24</ele>
        <time>2012-06-24T07:09:38Z</time>
      </trkpt>
      <trkpt lat="48.98688" lon="-0.31431">
        <ele>158.27</ele>
        <time>2012-06-24T07:09:40Z</time>
      </trkpt>
      <trkpt lat="48.98691" lon="-0.31456">
        <ele>156.83</ele>
        <time>2012-06-24T07:09:43Z</time>
      </trkpt>
      <trkpt lat="48.98691" lon="-0.31463">
        <ele>155.87</ele>
        <time>2012-06-24T07:09:44Z</time>
      </trkpt>
      <trkpt lat="48.98689" lon="-0.31472">
        <ele>155.39</ele>
        <time>2012-06-24T07:09:45Z</time>
      </trkpt>
      <trkpt lat="48.98685" lon="-0.31482">
        <ele>155.39</ele>
        <time>2012-06-24T07:09:46Z</time>
      </trkpt>
      <trkpt lat="48.98682" lon="-0.3149">
        <ele>154.43</ele>
        <time>2012-06-24T07:09:47Z</time>
      </trkpt>
      <trkpt lat="48.98677" lon="-0.31499">
        <ele>154.43</ele>
        <time>2012-06-24T07:09:48Z</time>
      </trkpt>
      <trkpt lat="48.98674" lon="-0.31508">
        <ele>154.43</ele>
        <time>2012-06-24T07:09:49Z</time>
      </trkpt>
      <trkpt lat="48.98672" lon="-0.31517">
        <ele>153.95</ele>
        <time>2012-06-24T07:09:50Z</time>
      </trkpt>
      <trkpt lat="48.98671" lon="-0.31526">
        <ele>152.51</ele>
        <time>2012-06-24T07:09:51Z</time>
      </trkpt>
      <trkpt lat="48.9867" lon="-0.31535">
        <ele>151.54</ele>
        <time>2012-06-24T07:09:52Z</time>
      </trkpt>
      <trkpt lat="48.98668" lon="-0.31544">
        <ele>150.58</ele>
        <time>2012-06-24T07:09:53Z</time>
      </trkpt>
      <trkpt lat="48.98666" lon="-0.31563">
        <ele>150.1</ele>
        <time>2012-06-24T07:09:55Z</time>
      </trkpt>
      <trkpt lat="48.98659" lon="-0.31611">
        <ele>146.74</ele>
        <time>2012-06-24T07:10:00Z</time>
      </trkpt>
      <trkpt lat="48.98653" lon="-0.3165">
        <ele>144.82</ele>
        <time>2012-06-24T07:10:06Z</time>
      </trkpt>
      <trkpt lat="48.98654" lon="-0.31667">
        <ele>143.85</ele>
        <time>2012-06-24T07:10:08Z</time>
      </trkpt>
      <trkpt lat="48.98653" lon="-0.31676">
        <ele>143.37</ele>
        <time>2012-06-24T07:10:09Z</time>
      </trkpt>
      <trkpt lat="48.98652" lon="-0.31697">
        <ele>141.93</ele>
        <time>2012-06-24T07:10:11Z</time>
      </trkpt>
      <trkpt lat="48.98653" lon="-0.31709">
        <ele>142.89</ele>
        <time>2012-06-24T07:10:12Z</time>
      </trkpt>
      <trkpt lat="48.98654" lon="-0.3172">
        <ele>142.89</ele>
        <time>2012-06-24T07:10:13Z</time>
      </trkpt>
      <trkpt lat="48.98656" lon="-0.31731">
        <ele>141.93</ele>
        <time>2012-06-24T07:10:14Z</time>
      </trkpt>
      <trkpt lat="48.98659" lon="-0.3174">
        <ele>141.93</ele>
        <time>2012-06-24T07:10:15Z</time>
      </trkpt>
      <trkpt lat="48.98663" lon="-0.31748">
        <ele>141.45</ele>
        <time>2012-06-24T07:10:16Z</time>
      </trkpt>
      <trkpt lat="48.98668" lon="-0.31758">
        <ele>141.45</ele>
        <time>2012-06-24T07:10:17Z</time>
      </trkpt>
      <trkpt lat="48.98681" lon="-0.31786">
        <ele>138.57</ele>
        <time>2012-06-24T07:10:20Z</time>
      </trkpt>
      <trkpt lat="48.98697" lon="-0.31812">
        <ele>135.68</ele>
        <time>2012-06-24T07:10:23Z</time>
      </trkpt>
      <trkpt lat="48.9871" lon="-0.31825">
        <ele>133.76</ele>
        <time>2012-06-24T07:10:25Z</time>
      </trkpt>
      <trkpt lat="48.98717" lon="-0.31829">
        <ele>132.8</ele>
        <time>2012-06-24T07:10:26Z</time>
      </trkpt>
      <trkpt lat="48.98726" lon="-0.31831">
        <ele>131.84</ele>
        <time>2012-06-24T07:10:27Z</time>
      </trkpt>
      <trkpt lat="48.98734" lon="-0.31832">
        <ele>130.88</ele>
        <time>2012-06-24T07:10:28Z</time>
      </trkpt>
      <trkpt lat="48.98743" lon="-0.31832">
        <ele>130.88</ele>
        <time>2012-06-24T07:10:29Z</time>
      </trkpt>
      <trkpt lat="48.98751" lon="-0.31828">
        <ele>130.4</ele>
        <time>2012-06-24T07:10:30Z</time>
      </trkpt>
      <trkpt lat="48.98759" lon="-0.31823">
        <ele>129.43</ele>
        <time>2012-06-24T07:10:31Z</time>
      </trkpt>
      <trkpt lat="48.98795" lon="-0.31796">
        <ele>130.4</ele>
        <time>2012-06-24T07:10:36Z</time>
      </trkpt>
      <trkpt lat="48.98814" lon="-0.31779">
        <ele>131.36</ele>
        <time>2012-06-24T07:10:39Z</time>
      </trkpt>
      <trkpt lat="48.9882" lon="-0.31773">
        <ele>131.36</ele>
        <time>2012-06-24T07:10:40Z</time>
      </trkpt>
      <trkpt lat="48.98827" lon="-0.31766">
        <ele>131.36</ele>
        <time>2012-06-24T07:10:41Z</time>
      </trkpt>
      <trkpt lat="48.98833" lon="-0.3176">
        <ele>130.4</ele>
        <time>2012-06-24T07:10:42Z</time>
      </trkpt>
      <trkpt lat="48.98839" lon="-0.31754">
        <ele>129.43</ele>
        <time>2012-06-24T07:10:43Z</time>
      </trkpt>
      <trkpt lat="48.98844" lon="-0.31749">
        <ele>130.4</ele>
        <time>2012-06-24T07:10:44Z</time>
      </trkpt>
      <trkpt lat="48.98851" lon="-0.31752">
        <ele>130.4</ele>
        <time>2012-06-24T07:10:48Z</time>
      </trkpt>
      <trkpt lat="48.98852" lon="-0.31758">
        <ele>130.88</ele>
        <time>2012-06-24T07:11:00Z</time>
      </trkpt>
      <trkpt lat="48.98853" lon="-0.31763">
        <ele>130.4</ele>
        <time>2012-06-24T07:11:02Z</time>
      </trkpt>
      <trkpt lat="48.98854" lon="-0.31765">
        <ele>128.95</ele>
        <time>2012-06-24T07:11:03Z</time>
      </trkpt>
      <trkpt lat="48.98854" lon="-0.31769">
        <ele>128.95</ele>
        <time>2012-06-24T07:11:04Z</time>
      </trkpt>
      <trkpt lat="48.98854" lon="-0.31775">
        <ele>127.99</ele>
        <time>2012-06-24T07:11:05Z</time>
      </trkpt>
      <trkpt lat="48.98855" lon="-0.31782">
        <ele>127.03</ele>
        <time>2012-06-24T07:11:06Z</time>
      </trkpt>
      <trkpt lat="48.98855" lon="-0.31791">
        <ele>127.03</ele>
        <time>2012-06-24T07:11:07Z</time>
      </trkpt>
      <trkpt lat="48.98855" lon="-0.31817">
        <ele>125.11</ele>
        <time>2012-06-24T07:11:09Z</time>
      </trkpt>
      <trkpt lat="48.9886" lon="-0.31842">
        <ele>120.78</ele>
        <time>2012-06-24T07:11:11Z</time>
      </trkpt>
      <trkpt lat="48.98861" lon="-0.31853">
        <ele>119.82</ele>
        <time>2012-06-24T07:11:12Z</time>
      </trkpt>
      <trkpt lat="48.98861" lon="-0.31864">
        <ele>118.86</ele>
        <time>2012-06-24T07:11:13Z</time>
      </trkpt>
      <trkpt lat="48.98859" lon="-0.31874">
        <ele>118.38</ele>
        <time>2012-06-24T07:11:14Z</time>
      </trkpt>
      <trkpt lat="48.98857" lon="-0.31884">
        <ele>116.46</ele>
        <time>2012-06-24T07:11:15Z</time>
      </trkpt>
      <trkpt lat="48.98853" lon="-0.31894">
        <ele>115.01</ele>
        <time>2012-06-24T07:11:16Z</time>
      </trkpt>
      <trkpt lat="48.98849" lon="-0.31905">
        <ele>113.57</ele>
        <time>2012-06-24T07:11:17Z</time>
      </trkpt>
      <trkpt lat="48.98837" lon="-0.31931">
        <ele>110.69</ele>
        <time>2012-06-24T07:11:19Z</time>
      </trkpt>
      <trkpt lat="48.98818" lon="-0.31969">
        <ele>108.77</ele>
        <time>2012-06-24T07:11:22Z</time>
      </trkpt>
      <trkpt lat="48.98811" lon="-0.3198">
        <ele>108.29</ele>
        <time>2012-06-24T07:11:23Z</time>
      </trkpt>
      <trkpt lat="48.98805" lon="-0.31988">
        <ele>108.77</ele>
        <time>2012-06-24T07:11:24Z</time>
      </trkpt>
      <trkpt lat="48.988" lon="-0.31994">
        <ele>107.81</ele>
        <time>2012-06-24T07:11:25Z</time>
      </trkpt>
      <trkpt lat="48.98794" lon="-0.31998">
        <ele>106.84</ele>
        <time>2012-06-24T07:11:26Z</time>
      </trkpt>
      <trkpt lat="48.98789" lon="-0.32002">
        <ele>106.84</ele>
        <time>2012-06-24T07:11:27Z</time>
      </trkpt>
      <trkpt lat="48.98783" lon="-0.32005">
        <ele>106.84</ele>
        <time>2012-06-24T07:11:28Z</time>
      </trkpt>
      <trkpt lat="48.98779" lon="-0.32009">
        <ele>108.29</ele>
        <time>2012-06-24T07:11:29Z</time>
      </trkpt>
      <trkpt lat="48.98777" lon="-0.32012">
        <ele>108.29</ele>
        <time>2012-06-24T07:11:30Z</time>
      </trkpt>
      <trkpt lat="48.98774" lon="-0.32016">
        <ele>107.81</ele>
        <time>2012-06-24T07:11:31Z</time>
      </trkpt>
      <trkpt lat="48.98772" lon="-0.32019">
        <ele>108.29</ele>
        <time>2012-06-24T07:11:32Z</time>
      </trkpt>
      <trkpt lat="48.9877" lon="-0.32021">
        <ele>107.81</ele>
        <time>2012-06-24T07:11:33Z</time>
      </trkpt>
      <trkpt lat="48.98768" lon="-0.32025">
        <ele>106.84</ele>
        <time>2012-06-24T07:11:34Z</time>
      </trkpt>
      <trkpt lat="48.98765" lon="-0.32029">
        <ele>107.32</ele>
        <time>2012-06-24T07:11:35Z</time>
      </trkpt>
      <trkpt lat="48.98762" lon="-0.32032">
        <ele>107.32</ele>
        <time>2012-06-24T07:11:36Z</time>
      </trkpt>
      <trkpt lat="48.98759" lon="-0.32032">
        <ele>108.29</ele>
        <time>2012-06-24T07:11:37Z</time>
      </trkpt>
      <trkpt lat="48.98724" lon="-0.32053">
        <ele>110.21</ele>
        <time>2012-06-24T07:11:48Z</time>
      </trkpt>
      <trkpt lat="48.98703" lon="-0.32062">
        <ele>113.57</ele>
        <time>2012-06-24T07:11:57Z</time>
      </trkpt>
      <trkpt lat="48.98682" lon="-0.32063">
        <ele>115.98</ele>
        <time>2012-06-24T07:12:09Z</time>
      </trkpt>
      <trkpt lat="48.9866" lon="-0.32061">
        <ele>118.86</ele>
        <time>2012-06-24T07:12:22Z</time>
      </trkpt>
      <trkpt lat="48.98639" lon="-0.32057">
        <ele>120.78</ele>
        <time>2012-06-24T07:12:33Z</time>
      </trkpt>
      <trkpt lat="48.98636" lon="-0.32056">
        <ele>120.78</ele>
        <time>2012-06-24T07:12:34Z</time>
      </trkpt>
      <trkpt lat="48.98633" lon="-0.32055">
        <ele>121.26</ele>
        <time>2012-06-24T07:12:36Z</time>
      </trkpt>
      <trkpt lat="48.98631" lon="-0.32055">
        <ele>121.26</ele>
        <time>2012-06-24T07:12:37Z</time>
      </trkpt>
      <trkpt lat="48.98619" lon="-0.3205">
        <ele>122.71</ele>
        <time>2012-06-24T07:12:43Z</time>
      </trkpt>
      <trkpt lat="48.98617" lon="-0.32049">
        <ele>122.71</ele>
        <time>2012-06-24T07:12:44Z</time>
      </trkpt>
      <trkpt lat="48.98615" lon="-0.32048">
        <ele>123.19</ele>
        <time>2012-06-24T07:12:45Z</time>
      </trkpt>
      <trkpt lat="48.98604" lon="-0.32042">
        <ele>124.63</ele>
        <time>2012-06-24T07:12:53Z</time>
      </trkpt>
      <trkpt lat="48.98602" lon="-0.32042">
        <ele>124.63</ele>
        <time>2012-06-24T07:12:54Z</time>
      </trkpt>
      <trkpt lat="48.986" lon="-0.32041">
        <ele>125.11</ele>
        <time>2012-06-24T07:12:55Z</time>
      </trkpt>
      <trkpt lat="48.98598" lon="-0.32041">
        <ele>125.11</ele>
        <time>2012-06-24T07:12:56Z</time>
      </trkpt>
      <trkpt lat="48.98596" lon="-0.32039">
        <ele>125.59</ele>
        <time>2012-06-24T07:12:57Z</time>
      </trkpt>
      <trkpt lat="48.98594" lon="-0.32039">
        <ele>125.59</ele>
        <time>2012-06-24T07:12:58Z</time>
      </trkpt>
      <trkpt lat="48.98582" lon="-0.32039">
        <ele>127.51</ele>
        <time>2012-06-24T07:13:04Z</time>
      </trkpt>
      <trkpt lat="48.9858" lon="-0.3204">
        <ele>127.03</ele>
        <time>2012-06-24T07:13:05Z</time>
      </trkpt>
      <trkpt lat="48.98565" lon="-0.32055">
        <ele>129.92</ele>
        <time>2012-06-24T07:13:18Z</time>
      </trkpt>
      <trkpt lat="48.98564" lon="-0.32056">
        <ele>129.92</ele>
        <time>2012-06-24T07:13:19Z</time>
      </trkpt>
      <trkpt lat="48.98559" lon="-0.32069">
        <ele>132.32</ele>
        <time>2012-06-24T07:13:26Z</time>
      </trkpt>
      <trkpt lat="48.98556" lon="-0.32081">
        <ele>133.28</ele>
        <time>2012-06-24T07:13:31Z</time>
      </trkpt>
      <trkpt lat="48.98556" lon="-0.32084">
        <ele>133.28</ele>
        <time>2012-06-24T07:13:32Z</time>
      </trkpt>
      <trkpt lat="48.98554" lon="-0.32095">
        <ele>134.72</ele>
        <time>2012-06-24T07:13:36Z</time>
      </trkpt>
      <trkpt lat="48.98553" lon="-0.32102">
        <ele>134.72</ele>
        <time>2012-06-24T07:13:39Z</time>
      </trkpt>
      <trkpt lat="48.98553" lon="-0.32105">
        <ele>134.24</ele>
        <time>2012-06-24T07:13:40Z</time>
      </trkpt>
      <trkpt lat="48.98554" lon="-0.32107">
        <ele>134.72</ele>
        <time>2012-06-24T07:13:41Z</time>
      </trkpt>
      <trkpt lat="48.98555" lon="-0.32109">
        <ele>134.24</ele>
        <time>2012-06-24T07:13:42Z</time>
      </trkpt>
      <trkpt lat="48.98556" lon="-0.3211">
        <ele>133.76</ele>
        <time>2012-06-24T07:13:43Z</time>
      </trkpt>
      <trkpt lat="48.98556" lon="-0.32113">
        <ele>134.24</ele>
        <time>2012-06-24T07:13:44Z</time>
      </trkpt>
      <trkpt lat="48.98556" lon="-0.32116">
        <ele>134.24</ele>
        <time>2012-06-24T07:13:45Z</time>
      </trkpt>
      <trkpt lat="48.98556" lon="-0.32119">
        <ele>134.72</ele>
        <time>2012-06-24T07:13:46Z</time>
      </trkpt>
      <trkpt lat="48.98557" lon="-0.32121">
        <ele>135.2</ele>
        <time>2012-06-24T07:13:47Z</time>
      </trkpt>
      <trkpt lat="48.98557" lon="-0.32125">
        <ele>134.72</ele>
        <time>2012-06-24T07:13:48Z</time>
      </trkpt>
      <trkpt lat="48.98557" lon="-0.32128">
        <ele>134.72</ele>
        <time>2012-06-24T07:13:49Z</time>
      </trkpt>
      <trkpt lat="48.98557" lon="-0.32131">
        <ele>134.72</ele>
        <time>2012-06-24T07:13:50Z</time>
      </trkpt>
      <trkpt lat="48.98557" lon="-0.32137">
        <ele>134.72</ele>
        <time>2012-06-24T07:13:52Z</time>
      </trkpt>
      <trkpt lat="48.98559" lon="-0.32164">
        <ele>137.13</ele>
        <time>2012-06-24T07:14:00Z</time>
      </trkpt>
      <trkpt lat="48.98558" lon="-0.32167">
        <ele>137.13</ele>
        <time>2012-06-24T07:14:01Z</time>
      </trkpt>
      <trkpt lat="48.98559" lon="-0.32174">
        <ele>137.61</ele>
        <time>2012-06-24T07:14:03Z</time>
      </trkpt>
      <trkpt lat="48.98559" lon="-0.32178">
        <ele>137.13</ele>
        <time>2012-06-24T07:14:04Z</time>
      </trkpt>
      <trkpt lat="48.98565" lon="-0.32222">
        <ele>138.57</ele>
        <time>2012-06-24T07:14:17Z</time>
      </trkpt>
      <trkpt lat="48.98566" lon="-0.32225">
        <ele>139.05</ele>
        <time>2012-06-24T07:14:18Z</time>
      </trkpt>
      <trkpt lat="48.98571" lon="-0.32267">
        <ele>140.01</ele>
        <time>2012-06-24T07:14:31Z</time>
      </trkpt>
      <trkpt lat="48.98561" lon="-0.32302">
        <ele>140.97</ele>
        <time>2012-06-24T07:14:36Z</time>
      </trkpt>
      <trkpt lat="48.9856" lon="-0.32309">
        <ele>140.97</ele>
        <time>2012-06-24T07:14:37Z</time>
      </trkpt>
      <trkpt lat="48.98559" lon="-0.32315">
        <ele>141.45</ele>
        <time>2012-06-24T07:14:38Z</time>
      </trkpt>
      <trkpt lat="48.98557" lon="-0.32321">
        <ele>140.97</ele>
        <time>2012-06-24T07:14:39Z</time>
      </trkpt>
      <trkpt lat="48.98556" lon="-0.32326">
        <ele>140.97</ele>
        <time>2012-06-24T07:14:40Z</time>
      </trkpt>
      <trkpt lat="48.9854" lon="-0.32412">
        <ele>144.34</ele>
        <time>2012-06-24T07:14:54Z</time>
      </trkpt>
      <trkpt lat="48.98542" lon="-0.32496">
        <ele>145.3</ele>
        <time>2012-06-24T07:15:10Z</time>
      </trkpt>
      <trkpt lat="48.98548" lon="-0.32533">
        <ele>144.34</ele>
        <time>2012-06-24T07:15:16Z</time>
      </trkpt>
      <trkpt lat="48.98558" lon="-0.32613">
        <ele>141.93</ele>
        <time>2012-06-24T07:15:27Z</time>
      </trkpt>
      <trkpt lat="48.98557" lon="-0.32642">
        <ele>140.97</ele>
        <time>2012-06-24T07:15:31Z</time>
      </trkpt>
      <trkpt lat="48.98557" lon="-0.32758">
        <ele>140.49</ele>
        <time>2012-06-24T07:15:47Z</time>
      </trkpt>
      <trkpt lat="48.98559" lon="-0.32805">
        <ele>137.13</ele>
        <time>2012-06-24T07:15:52Z</time>
      </trkpt>
      <trkpt lat="48.98562" lon="-0.32848">
        <ele>133.76</ele>
        <time>2012-06-24T07:15:56Z</time>
      </trkpt>
      <trkpt lat="48.98562" lon="-0.32985">
        <ele>128.95</ele>
        <time>2012-06-24T07:16:07Z</time>
      </trkpt>
      <trkpt lat="48.9856" lon="-0.33025">
        <ele>128.47</ele>
        <time>2012-06-24T07:16:10Z</time>
      </trkpt>
      <trkpt lat="48.9856" lon="-0.33039">
        <ele>126.07</ele>
        <time>2012-06-24T07:16:11Z</time>
      </trkpt>
      <trkpt lat="48.98561" lon="-0.33053">
        <ele>125.11</ele>
        <time>2012-06-24T07:16:12Z</time>
      </trkpt>
      <trkpt lat="48.98566" lon="-0.33111">
        <ele>122.22</ele>
        <time>2012-06-24T07:16:16Z</time>
      </trkpt>
      <trkpt lat="48.98566" lon="-0.33201">
        <ele>120.3</ele>
        <time>2012-06-24T07:16:22Z</time>
      </trkpt>
      <trkpt lat="48.98568" lon="-0.33215">
        <ele>119.82</ele>
        <time>2012-06-24T07:16:23Z</time>
      </trkpt>
      <trkpt lat="48.9857" lon="-0.33228">
        <ele>119.34</ele>
        <time>2012-06-24T07:16:24Z</time>
      </trkpt>
      <trkpt lat="48.98587" lon="-0.33317">
        <ele>122.22</ele>
        <time>2012-06-24T07:16:31Z</time>
      </trkpt>
      <trkpt lat="48.98589" lon="-0.33339">
        <ele>124.15</ele>
        <time>2012-06-24T07:16:33Z</time>
      </trkpt>
      <trkpt lat="48.98593" lon="-0.33387">
        <ele>127.51</ele>
        <time>2012-06-24T07:16:38Z</time>
      </trkpt>
      <trkpt lat="48.98594" lon="-0.33396">
        <ele>127.51</ele>
        <time>2012-06-24T07:16:39Z</time>
      </trkpt>
      <trkpt lat="48.98601" lon="-0.33468">
        <ele>128.95</ele>
        <time>2012-06-24T07:16:49Z</time>
      </trkpt>
      <trkpt lat="48.98605" lon="-0.33469">
        <ele>130.4</ele>
        <time>2012-06-24T07:16:50Z</time>
      </trkpt>
      <trkpt lat="48.9861" lon="-0.33469">
        <ele>129.92</ele>
        <time>2012-06-24T07:16:51Z</time>
      </trkpt>
      <trkpt lat="48.98614" lon="-0.33469">
        <ele>129.92</ele>
        <time>2012-06-24T07:16:52Z</time>
      </trkpt>
      <trkpt lat="48.98619" lon="-0.33469">
        <ele>129.43</ele>
        <time>2012-06-24T07:16:53Z</time>
      </trkpt>
      <trkpt lat="48.98644" lon="-0.33469">
        <ele>128.47</ele>
        <time>2012-06-24T07:16:58Z</time>
      </trkpt>
      <trkpt lat="48.9865" lon="-0.33471">
        <ele>128.47</ele>
        <time>2012-06-24T07:16:59Z</time>
      </trkpt>
      <trkpt lat="48.98656" lon="-0.33471">
        <ele>127.03</ele>
        <time>2012-06-24T07:17:00Z</time>
      </trkpt>
      <trkpt lat="48.98666" lon="-0.33472">
        <ele>126.07</ele>
        <time>2012-06-24T07:17:02Z</time>
      </trkpt>
      <trkpt lat="48.98672" lon="-0.33472">
        <ele>125.11</ele>
        <time>2012-06-24T07:17:04Z</time>
      </trkpt>
      <trkpt lat="48.98676" lon="-0.33473">
        <ele>124.15</ele>
        <time>2012-06-24T07:17:05Z</time>
      </trkpt>
      <trkpt lat="48.98679" lon="-0.33477">
        <ele>123.67</ele>
        <time>2012-06-24T07:17:06Z</time>
      </trkpt>
      <trkpt lat="48.98681" lon="-0.33482">
        <ele>123.19</ele>
        <time>2012-06-24T07:17:07Z</time>
      </trkpt>
      <trkpt lat="48.98682" lon="-0.33489">
        <ele>122.22</ele>
        <time>2012-06-24T07:17:08Z</time>
      </trkpt>
      <trkpt lat="48.98683" lon="-0.33497">
        <ele>121.74</ele>
        <time>2012-06-24T07:17:09Z</time>
      </trkpt>
      <trkpt lat="48.98684" lon="-0.33506">
        <ele>120.78</ele>
        <time>2012-06-24T07:17:10Z</time>
      </trkpt>
      <trkpt lat="48.98692" lon="-0.33585">
        <ele>120.3</ele>
        <time>2012-06-24T07:17:17Z</time>
      </trkpt>
      <trkpt lat="48.98692" lon="-0.33593">
        <ele>120.3</ele>
        <time>2012-06-24T07:17:18Z</time>
      </trkpt>
      <trkpt lat="48.98691" lon="-0.33602">
        <ele>120.3</ele>
        <time>2012-06-24T07:17:19Z</time>
      </trkpt>
      <trkpt lat="48.98688" lon="-0.3361">
        <ele>120.3</ele>
        <time>2012-06-24T07:17:20Z</time>
      </trkpt>
      <trkpt lat="48.98683" lon="-0.33627">
        <ele>120.3</ele>
        <time>2012-06-24T07:17:22Z</time>
      </trkpt>
      <trkpt lat="48.98681" lon="-0.33634">
        <ele>119.82</ele>
        <time>2012-06-24T07:17:23Z</time>
      </trkpt>
      <trkpt lat="48.98679" lon="-0.33641">
        <ele>120.3</ele>
        <time>2012-06-24T07:17:24Z</time>
      </trkpt>
      <trkpt lat="48.98672" lon="-0.33662">
        <ele>121.26</ele>
        <time>2012-06-24T07:17:27Z</time>
      </trkpt>
      <trkpt lat="48.98666" lon="-0.33674">
        <ele>121.74</ele>
        <time>2012-06-24T07:17:29Z</time>
      </trkpt>
      <trkpt lat="48.98662" lon="-0.33679">
        <ele>120.3</ele>
        <time>2012-06-24T07:17:30Z</time>
      </trkpt>
      <trkpt lat="48.98658" lon="-0.33684">
        <ele>119.34</ele>
        <time>2012-06-24T07:17:31Z</time>
      </trkpt>
      <trkpt lat="48.98654" lon="-0.33689">
        <ele>119.34</ele>
        <time>2012-06-24T07:17:32Z</time>
      </trkpt>
      <trkpt lat="48.98649" lon="-0.33695">
        <ele>117.42</ele>
        <time>2012-06-24T07:17:33Z</time>
      </trkpt>
      <trkpt lat="48.98643" lon="-0.33701">
        <ele>117.42</ele>
        <time>2012-06-24T07:17:34Z</time>
      </trkpt>
      <trkpt lat="48.9863" lon="-0.33715">
        <ele>119.82</ele>
        <time>2012-06-24T07:17:37Z</time>
      </trkpt>
      <trkpt lat="48.98629" lon="-0.33721">
        <ele>119.82</ele>
        <time>2012-06-24T07:17:38Z</time>
      </trkpt>
      <trkpt lat="48.98629" lon="-0.33727">
        <ele>120.3</ele>
        <time>2012-06-24T07:17:39Z</time>
      </trkpt>
      <trkpt lat="48.9863" lon="-0.33733">
        <ele>120.3</ele>
        <time>2012-06-24T07:17:40Z</time>
      </trkpt>
      <trkpt lat="48.98632" lon="-0.33738">
        <ele>119.34</ele>
        <time>2012-06-24T07:17:41Z</time>
      </trkpt>
      <trkpt lat="48.98635" lon="-0.33742">
        <ele>119.82</ele>
        <time>2012-06-24T07:17:42Z</time>
      </trkpt>
      <trkpt lat="48.98639" lon="-0.33747">
        <ele>120.3</ele>
        <time>2012-06-24T07:17:43Z</time>
      </trkpt>
      <trkpt lat="48.98645" lon="-0.33756">
        <ele>119.34</ele>
        <time>2012-06-24T07:17:45Z</time>
      </trkpt>
      <trkpt lat="48.98648" lon="-0.33761">
        <ele>119.34</ele>
        <time>2012-06-24T07:17:46Z</time>
      </trkpt>
      <trkpt lat="48.98657" lon="-0.33777">
        <ele>119.82</ele>
        <time>2012-06-24T07:17:49Z</time>
      </trkpt>
      <trkpt lat="48.98662" lon="-0.33788">
        <ele>119.82</ele>
        <time>2012-06-24T07:17:51Z</time>
      </trkpt>
      <trkpt lat="48.98662" lon="-0.33796">
        <ele>118.86</ele>
        <time>2012-06-24T07:17:52Z</time>
      </trkpt>
      <trkpt lat="48.9866" lon="-0.33803">
        <ele>119.34</ele>
        <time>2012-06-24T07:17:53Z</time>
      </trkpt>
      <trkpt lat="48.98657" lon="-0.33809">
        <ele>118.38</ele>
        <time>2012-06-24T07:17:54Z</time>
      </trkpt>
      <trkpt lat="48.98653" lon="-0.33814">
        <ele>118.38</ele>
        <time>2012-06-24T07:17:55Z</time>
      </trkpt>
      <trkpt lat="48.98648" lon="-0.33818">
        <ele>117.9</ele>
        <time>2012-06-24T07:17:56Z</time>
      </trkpt>
      <trkpt lat="48.98633" lon="-0.33834">
        <ele>116.46</ele>
        <time>2012-06-24T07:17:59Z</time>
      </trkpt>
      <trkpt lat="48.98629" lon="-0.33841">
        <ele>115.5</ele>
        <time>2012-06-24T07:18:00Z</time>
      </trkpt>
      <trkpt lat="48.98625" lon="-0.33849">
        <ele>116.94</ele>
        <time>2012-06-24T07:18:01Z</time>
      </trkpt>
      <trkpt lat="48.9862" lon="-0.33865">
        <ele>115.98</ele>
        <time>2012-06-24T07:18:03Z</time>
      </trkpt>
      <trkpt lat="48.98618" lon="-0.33873">
        <ele>116.46</ele>
        <time>2012-06-24T07:18:04Z</time>
      </trkpt>
      <trkpt lat="48.98617" lon="-0.33882">
        <ele>116.46</ele>
        <time>2012-06-24T07:18:05Z</time>
      </trkpt>
      <trkpt lat="48.98616" lon="-0.3389">
        <ele>116.94</ele>
        <time>2012-06-24T07:18:06Z</time>
      </trkpt>
      <trkpt lat="48.98616" lon="-0.33899">
        <ele>116.94</ele>
        <time>2012-06-24T07:18:07Z</time>
      </trkpt>
      <trkpt lat="48.98616" lon="-0.33907">
        <ele>117.42</ele>
        <time>2012-06-24T07:18:08Z</time>
      </trkpt>
      <trkpt lat="48.98616" lon="-0.33916">
        <ele>117.42</ele>
        <time>2012-06-24T07:18:09Z</time>
      </trkpt>
      <trkpt lat="48.98617" lon="-0.33924">
        <ele>117.9</ele>
        <time>2012-06-24T07:18:10Z</time>
      </trkpt>
      <trkpt lat="48.98618" lon="-0.33932">
        <ele>117.9</ele>
        <time>2012-06-24T07:18:11Z</time>
      </trkpt>
      <trkpt lat="48.98619" lon="-0.3394">
        <ele>118.86</ele>
        <time>2012-06-24T07:18:12Z</time>
      </trkpt>
      <trkpt lat="48.9862" lon="-0.33948">
        <ele>119.34</ele>
        <time>2012-06-24T07:18:13Z</time>
      </trkpt>
      <trkpt lat="48.98622" lon="-0.33956">
        <ele>118.86</ele>
        <time>2012-06-24T07:18:14Z</time>
      </trkpt>
      <trkpt lat="48.9863" lon="-0.33993">
        <ele>117.9</ele>
        <time>2012-06-24T07:18:19Z</time>
      </trkpt>
      <trkpt lat="48.98635" lon="-0.34034">
        <ele>121.26</ele>
        <time>2012-06-24T07:18:25Z</time>
      </trkpt>
      <trkpt lat="48.98637" lon="-0.34067">
        <ele>122.22</ele>
        <time>2012-06-24T07:18:30Z</time>
      </trkpt>
      <trkpt lat="48.98637" lon="-0.34098">
        <ele>121.26</ele>
        <time>2012-06-24T07:18:35Z</time>
      </trkpt>
      <trkpt lat="48.98639" lon="-0.34105">
        <ele>121.74</ele>
        <time>2012-06-24T07:18:36Z</time>
      </trkpt>
      <trkpt lat="48.9864" lon="-0.3411">
        <ele>122.22</ele>
        <time>2012-06-24T07:18:37Z</time>
      </trkpt>
      <trkpt lat="48.98644" lon="-0.34112">
        <ele>122.71</ele>
        <time>2012-06-24T07:18:38Z</time>
      </trkpt>
      <trkpt lat="48.98647" lon="-0.34112">
        <ele>121.74</ele>
        <time>2012-06-24T07:18:39Z</time>
      </trkpt>
      <trkpt lat="48.98651" lon="-0.3411">
        <ele>123.19</ele>
        <time>2012-06-24T07:18:40Z</time>
      </trkpt>
      <trkpt lat="48.98654" lon="-0.34107">
        <ele>123.19</ele>
        <time>2012-06-24T07:18:41Z</time>
      </trkpt>
      <trkpt lat="48.98672" lon="-0.34094">
        <ele>123.67</ele>
        <time>2012-06-24T07:18:46Z</time>
      </trkpt>
      <trkpt lat="48.98693" lon="-0.3407">
        <ele>124.15</ele>
        <time>2012-06-24T07:18:52Z</time>
      </trkpt>
      <trkpt lat="48.98731" lon="-0.34025">
        <ele>122.22</ele>
        <time>2012-06-24T07:19:02Z</time>
      </trkpt>
      <trkpt lat="48.98735" lon="-0.34021">
        <ele>123.19</ele>
        <time>2012-06-24T07:19:03Z</time>
      </trkpt>
      <trkpt lat="48.98739" lon="-0.34017">
        <ele>123.19</ele>
        <time>2012-06-24T07:19:04Z</time>
      </trkpt>
      <trkpt lat="48.98743" lon="-0.34014">
        <ele>122.71</ele>
        <time>2012-06-24T07:19:05Z</time>
      </trkpt>
      <trkpt lat="48.98747" lon="-0.34012">
        <ele>122.71</ele>
        <time>2012-06-24T07:19:06Z</time>
      </trkpt>
      <trkpt lat="48.98751" lon="-0.3401">
        <ele>122.71</ele>
        <time>2012-06-24T07:19:07Z</time>
      </trkpt>
      <trkpt lat="48.98778" lon="-0.33987">
        <ele>126.07</ele>
        <time>2012-06-24T07:19:17Z</time>
      </trkpt>
      <trkpt lat="48.98794" lon="-0.33974">
        <ele>127.99</ele>
        <time>2012-06-24T07:19:24Z</time>
      </trkpt>
      <trkpt lat="48.98795" lon="-0.33972">
        <ele>128.95</ele>
        <time>2012-06-24T07:19:25Z</time>
      </trkpt>
      <trkpt lat="48.98796" lon="-0.33971">
        <ele>128.47</ele>
        <time>2012-06-24T07:19:26Z</time>
      </trkpt>
      <trkpt lat="48.98801" lon="-0.33967">
        <ele>129.43</ele>
        <time>2012-06-24T07:19:31Z</time>
      </trkpt>
      <trkpt lat="48.98803" lon="-0.33965">
        <ele>129.43</ele>
        <time>2012-06-24T07:19:32Z</time>
      </trkpt>
      <trkpt lat="48.98805" lon="-0.33963">
        <ele>129.92</ele>
        <time>2012-06-24T07:19:33Z</time>
      </trkpt>
      <trkpt lat="48.98824" lon="-0.33954">
        <ele>132.32</ele>
        <time>2012-06-24T07:19:42Z</time>
      </trkpt>
      <trkpt lat="48.98824" lon="-0.33955">
        <ele>131.84</ele>
        <time>2012-06-24T07:19:43Z</time>
      </trkpt>
      <trkpt lat="48.98828" lon="-0.33978">
        <ele>132.8</ele>
        <time>2012-06-24T07:19:57Z</time>
      </trkpt>
      <trkpt lat="48.98828" lon="-0.33978">
        <ele>132.32</ele>
        <time>2012-06-24T07:20:09Z</time>
      </trkpt>
      <trkpt lat="48.9883" lon="-0.33978">
        <ele>132.32</ele>
        <time>2012-06-24T07:20:45Z</time>
      </trkpt>
      <trkpt lat="48.9883" lon="-0.33978">
        <ele>132.32</ele>
        <time>2012-06-24T07:21:13Z</time>
      </trkpt>
      <trkpt lat="48.9883" lon="-0.33978">
        <ele>131.84</ele>
        <time>2012-06-24T07:21:46Z</time>
      </trkpt>
      <trkpt lat="48.9883" lon="-0.33979">
        <ele>132.32</ele>
        <time>2012-06-24T07:22:15Z</time>
      </trkpt>
      <trkpt lat="48.9883" lon="-0.33979">
        <ele>132.32</ele>
        <time>2012-06-24T07:22:48Z</time>
      </trkpt>
      <trkpt lat="48.98831" lon="-0.33979">
        <ele>132.8</ele>
        <time>2012-06-24T07:23:16Z</time>
      </trkpt>
      <trkpt lat="48.98831" lon="-0.33979">
        <ele>132.32</ele>
        <time>2012-06-24T07:23:44Z</time>
      </trkpt>
      <trkpt lat="48.98831" lon="-0.33979">
        <ele>132.8</ele>
        <time>2012-06-24T07:24:15Z</time>
      </trkpt>
      <trkpt lat="48.98831" lon="-0.33979">
        <ele>132.32</ele>
        <time>2012-06-24T07:24:44Z</time>
      </trkpt>
      <trkpt lat="48.98831" lon="-0.3398">
        <ele>131.84</ele>
        <time>2012-06-24T07:25:17Z</time>
      </trkpt>
      <trkpt lat="48.98831" lon="-0.3398">
        <ele>131.84</ele>
        <time>2012-06-24T07:25:46Z</time>
      </trkpt>
      <trkpt lat="48.98831" lon="-0.33979">
        <ele>132.32</ele>
        <time>2012-06-24T07:26:09Z</time>
      </trkpt>
      <trkpt lat="48.98831" lon="-0.33979">
        <ele>132.8</ele>
        <time>2012-06-24T07:26:32Z</time>
      </trkpt>
      <trkpt lat="48.98832" lon="-0.33977">
        <ele>131.84</ele>
        <time>2012-06-24T07:26:54Z</time>
      </trkpt>
      <trkpt lat="48.98833" lon="-0.33975">
        <ele>132.8</ele>
        <time>2012-06-24T07:27:03Z</time>
      </trkpt>
      <trkpt lat="48.98833" lon="-0.33975">
        <ele>131.84</ele>
        <time>2012-06-24T07:27:23Z</time>
      </trkpt>
      <trkpt lat="48.98831" lon="-0.33967">
        <ele>131.36</ele>
        <time>2012-06-24T07:27:29Z</time>
      </trkpt>
      <trkpt lat="48.98831" lon="-0.33965">
        <ele>131.84</ele>
        <time>2012-06-24T07:27:30Z</time>
      </trkpt>
      <trkpt lat="48.98831" lon="-0.33963">
        <ele>131.84</ele>
        <time>2012-06-24T07:27:31Z</time>
      </trkpt>
      <trkpt lat="48.98832" lon="-0.33961">
        <ele>131.84</ele>
        <time>2012-06-24T07:27:32Z</time>
      </trkpt>
      <trkpt lat="48.98832" lon="-0.33959">
        <ele>131.84</ele>
        <time>2012-06-24T07:27:33Z</time>
      </trkpt>
      <trkpt lat="48.98835" lon="-0.33953">
        <ele>131.84</ele>
        <time>2012-06-24T07:27:36Z</time>
      </trkpt>
      <trkpt lat="48.98837" lon="-0.33953">
        <ele>132.32</ele>
        <time>2012-06-24T07:27:37Z</time>
      </trkpt>
      <trkpt lat="48.98839" lon="-0.33953">
        <ele>132.32</ele>
        <time>2012-06-24T07:27:38Z</time>
      </trkpt>
      <trkpt lat="48.98863" lon="-0.33968">
        <ele>134.24</ele>
        <time>2012-06-24T07:27:51Z</time>
      </trkpt>
      <trkpt lat="48.98882" lon="-0.33982">
        <ele>135.2</ele>
        <time>2012-06-24T07:28:03Z</time>
      </trkpt>
      <trkpt lat="48.98884" lon="-0.33983">
        <ele>136.16</ele>
        <time>2012-06-24T07:28:04Z</time>
      </trkpt>
      <trkpt lat="48.98886" lon="-0.33984">
        <ele>136.16</ele>
        <time>2012-06-24T07:28:05Z</time>
      </trkpt>
      <trkpt lat="48.98922" lon="-0.33998">
        <ele>137.61</ele>
        <time>2012-06-24T07:28:18Z</time>
      </trkpt>
      <trkpt lat="48.98948" lon="-0.34009">
        <ele>139.53</ele>
        <time>2012-06-24T07:28:30Z</time>
      </trkpt>
      <trkpt lat="48.98958" lon="-0.34016">
        <ele>140.49</ele>
        <time>2012-06-24T07:28:35Z</time>
      </trkpt>
      <trkpt lat="48.98959" lon="-0.3402">
        <ele>140.49</ele>
        <time>2012-06-24T07:28:36Z</time>
      </trkpt>
      <trkpt lat="48.9896" lon="-0.34024">
        <ele>140.49</ele>
        <time>2012-06-24T07:28:37Z</time>
      </trkpt>
      <trkpt lat="48.98961" lon="-0.34027">
        <ele>140.01</ele>
        <time>2012-06-24T07:28:38Z</time>
      </trkpt>
      <trkpt lat="48.98962" lon="-0.34031">
        <ele>140.01</ele>
        <time>2012-06-24T07:28:39Z</time>
      </trkpt>
      <trkpt lat="48.98979" lon="-0.3409">
        <ele>140.01</ele>
        <time>2012-06-24T07:28:51Z</time>
      </trkpt>
      <trkpt lat="48.98983" lon="-0.34117">
        <ele>138.57</ele>
        <time>2012-06-24T07:28:57Z</time>
      </trkpt>
      <trkpt lat="48.98982" lon="-0.34122">
        <ele>137.61</ele>
        <time>2012-06-24T07:28:58Z</time>
      </trkpt>
      <trkpt lat="48.98981" lon="-0.34127">
        <ele>137.13</ele>
        <time>2012-06-24T07:28:59Z</time>
      </trkpt>
      <trkpt lat="48.9898" lon="-0.34133">
        <ele>135.68</ele>
        <time>2012-06-24T07:29:00Z</time>
      </trkpt>
      <trkpt lat="48.98978" lon="-0.34138">
        <ele>135.68</ele>
        <time>2012-06-24T07:29:01Z</time>
      </trkpt>
      <trkpt lat="48.98966" lon="-0.3417">
        <ele>131.84</ele>
        <time>2012-06-24T07:29:05Z</time>
      </trkpt>
      <trkpt lat="48.98954" lon="-0.34204">
        <ele>128.47</ele>
        <time>2012-06-24T07:29:08Z</time>
      </trkpt>
      <trkpt lat="48.98925" lon="-0.34283">
        <ele>125.11</ele>
        <time>2012-06-24T07:29:14Z</time>
      </trkpt>
      <trkpt lat="48.98921" lon="-0.34306">
        <ele>124.15</ele>
        <time>2012-06-24T07:29:16Z</time>
      </trkpt>
      <trkpt lat="48.9892" lon="-0.34319">
        <ele>123.67</ele>
        <time>2012-06-24T07:29:17Z</time>
      </trkpt>
      <trkpt lat="48.98921" lon="-0.3433">
        <ele>123.19</ele>
        <time>2012-06-24T07:29:18Z</time>
      </trkpt>
      <trkpt lat="48.98922" lon="-0.34342">
        <ele>123.19</ele>
        <time>2012-06-24T07:29:19Z</time>
      </trkpt>
      <trkpt lat="48.98923" lon="-0.34353">
        <ele>122.71</ele>
        <time>2012-06-24T07:29:20Z</time>
      </trkpt>
      <trkpt lat="48.98925" lon="-0.34363">
        <ele>123.67</ele>
        <time>2012-06-24T07:29:21Z</time>
      </trkpt>
      <trkpt lat="48.98926" lon="-0.34372">
        <ele>124.15</ele>
        <time>2012-06-24T07:29:22Z</time>
      </trkpt>
      <trkpt lat="48.98929" lon="-0.3438">
        <ele>125.59</ele>
        <time>2012-06-24T07:29:23Z</time>
      </trkpt>
      <trkpt lat="48.9893" lon="-0.34389">
        <ele>126.07</ele>
        <time>2012-06-24T07:29:24Z</time>
      </trkpt>
      <trkpt lat="48.98931" lon="-0.34395">
        <ele>125.59</ele>
        <time>2012-06-24T07:29:25Z</time>
      </trkpt>
      <trkpt lat="48.98937" lon="-0.34439">
        <ele>127.51</ele>
        <time>2012-06-24T07:29:35Z</time>
      </trkpt>
      <trkpt lat="48.9895" lon="-0.34507">
        <ele>128.95</ele>
        <time>2012-06-24T07:29:46Z</time>
      </trkpt>
      <trkpt lat="48.98955" lon="-0.34547">
        <ele>130.88</ele>
        <time>2012-06-24T07:29:54Z</time>
      </trkpt>
      <trkpt lat="48.98963" lon="-0.34608">
        <ele>131.84</ele>
        <time>2012-06-24T07:30:05Z</time>
      </trkpt>
      <trkpt lat="48.98969" lon="-0.34646">
        <ele>133.28</ele>
        <time>2012-06-24T07:30:11Z</time>
      </trkpt>
      <trkpt lat="48.9898" lon="-0.34686">
        <ele>135.2</ele>
        <time>2012-06-24T07:30:20Z</time>
      </trkpt>
      <trkpt lat="48.98998" lon="-0.34744">
        <ele>137.61</ele>
        <time>2012-06-24T07:30:33Z</time>
      </trkpt>
      <trkpt lat="48.99018" lon="-0.34796">
        <ele>139.53</ele>
        <time>2012-06-24T07:30:45Z</time>
      </trkpt>
      <trkpt lat="48.99041" lon="-0.34828">
        <ele>141.45</ele>
        <time>2012-06-24T07:30:55Z</time>
      </trkpt>
      <trkpt lat="48.99069" lon="-0.3487">
        <ele>142.89</ele>
        <time>2012-06-24T07:31:06Z</time>
      </trkpt>
      <trkpt lat="48.99096" lon="-0.34919">
        <ele>144.34</ele>
        <time>2012-06-24T07:31:19Z</time>
      </trkpt>
      <trkpt lat="48.99096" lon="-0.34924">
        <ele>142.89</ele>
        <time>2012-06-24T07:31:20Z</time>
      </trkpt>
      <trkpt lat="48.99094" lon="-0.34928">
        <ele>143.85</ele>
        <time>2012-06-24T07:31:21Z</time>
      </trkpt>
      <trkpt lat="48.99092" lon="-0.3493">
        <ele>142.89</ele>
        <time>2012-06-24T07:31:22Z</time>
      </trkpt>
      <trkpt lat="48.99089" lon="-0.34932">
        <ele>143.37</ele>
        <time>2012-06-24T07:31:23Z</time>
      </trkpt>
      <trkpt lat="48.99087" lon="-0.34935">
        <ele>142.89</ele>
        <time>2012-06-24T07:31:24Z</time>
      </trkpt>
      <trkpt lat="48.99035" lon="-0.34985">
        <ele>141.93</ele>
        <time>2012-06-24T07:31:40Z</time>
      </trkpt>
      <trkpt lat="48.98977" lon="-0.35039">
        <ele>141.45</ele>
        <time>2012-06-24T07:31:56Z</time>
      </trkpt>
      <trkpt lat="48.98925" lon="-0.35089">
        <ele>140.49</ele>
        <time>2012-06-24T07:32:09Z</time>
      </trkpt>
      <trkpt lat="48.98921" lon="-0.35091">
        <ele>140.97</ele>
        <time>2012-06-24T07:32:10Z</time>
      </trkpt>
      <trkpt lat="48.98916" lon="-0.35091">
        <ele>140.49</ele>
        <time>2012-06-24T07:32:11Z</time>
      </trkpt>
      <trkpt lat="48.98912" lon="-0.35088">
        <ele>140.49</ele>
        <time>2012-06-24T07:32:12Z</time>
      </trkpt>
      <trkpt lat="48.98909" lon="-0.35084">
        <ele>140.01</ele>
        <time>2012-06-24T07:32:13Z</time>
      </trkpt>
      <trkpt lat="48.98905" lon="-0.35079">
        <ele>140.01</ele>
        <time>2012-06-24T07:32:14Z</time>
      </trkpt>
      <trkpt lat="48.98901" lon="-0.35075">
        <ele>140.01</ele>
        <time>2012-06-24T07:32:15Z</time>
      </trkpt>
      <trkpt lat="48.98883" lon="-0.35059">
        <ele>140.49</ele>
        <time>2012-06-24T07:32:19Z</time>
      </trkpt>
      <trkpt lat="48.98878" lon="-0.35057">
        <ele>140.01</ele>
        <time>2012-06-24T07:32:20Z</time>
      </trkpt>
      <trkpt lat="48.98872" lon="-0.35056">
        <ele>139.53</ele>
        <time>2012-06-24T07:32:21Z</time>
      </trkpt>
      <trkpt lat="48.98867" lon="-0.35055">
        <ele>139.53</ele>
        <time>2012-06-24T07:32:22Z</time>
      </trkpt>
      <trkpt lat="48.98862" lon="-0.35053">
        <ele>139.53</ele>
        <time>2012-06-24T07:32:23Z</time>
      </trkpt>
      <trkpt lat="48.98857" lon="-0.35049">
        <ele>139.53</ele>
        <time>2012-06-24T07:32:24Z</time>
      </trkpt>
      <trkpt lat="48.98853" lon="-0.35044">
        <ele>139.05</ele>
        <time>2012-06-24T07:32:25Z</time>
      </trkpt>
      <trkpt lat="48.98848" lon="-0.35039">
        <ele>139.05</ele>
        <time>2012-06-24T07:32:26Z</time>
      </trkpt>
      <trkpt lat="48.98836" lon="-0.35024">
        <ele>137.61</ele>
        <time>2012-06-24T07:32:29Z</time>
      </trkpt>
      <trkpt lat="48.98824" lon="-0.3501">
        <ele>136.64</ele>
        <time>2012-06-24T07:32:32Z</time>
      </trkpt>
      <trkpt lat="48.98804" lon="-0.3498">
        <ele>138.09</ele>
        <time>2012-06-24T07:32:37Z</time>
      </trkpt>
      <trkpt lat="48.98799" lon="-0.34973">
        <ele>138.09</ele>
        <time>2012-06-24T07:32:38Z</time>
      </trkpt>
      <trkpt lat="48.98794" lon="-0.34967">
        <ele>137.13</ele>
        <time>2012-06-24T07:32:39Z</time>
      </trkpt>
      <trkpt lat="48.98788" lon="-0.34963">
        <ele>136.16</ele>
        <time>2012-06-24T07:32:40Z</time>
      </trkpt>
      <trkpt lat="48.98781" lon="-0.34961">
        <ele>135.2</ele>
        <time>2012-06-24T07:32:41Z</time>
      </trkpt>
      <trkpt lat="48.98774" lon="-0.34961">
        <ele>135.68</ele>
        <time>2012-06-24T07:32:42Z</time>
      </trkpt>
      <trkpt lat="48.98768" lon="-0.34962">
        <ele>134.72</ele>
        <time>2012-06-24T07:32:43Z</time>
      </trkpt>
      <trkpt lat="48.98761" lon="-0.34963">
        <ele>134.24</ele>
        <time>2012-06-24T07:32:44Z</time>
      </trkpt>
      <trkpt lat="48.98712" lon="-0.34971">
        <ele>130.88</ele>
        <time>2012-06-24T07:32:51Z</time>
      </trkpt>
      <trkpt lat="48.9868" lon="-0.34973">
        <ele>127.99</ele>
        <time>2012-06-24T07:32:55Z</time>
      </trkpt>
      <trkpt lat="48.98672" lon="-0.34974">
        <ele>127.99</ele>
        <time>2012-06-24T07:32:56Z</time>
      </trkpt>
      <trkpt lat="48.98664" lon="-0.34977">
        <ele>128.47</ele>
        <time>2012-06-24T07:32:57Z</time>
      </trkpt>
      <trkpt lat="48.98656" lon="-0.34981">
        <ele>126.07</ele>
        <time>2012-06-24T07:32:58Z</time>
      </trkpt>
      <trkpt lat="48.98649" lon="-0.34987">
        <ele>127.99</ele>
        <time>2012-06-24T07:32:59Z</time>
      </trkpt>
      <trkpt lat="48.98643" lon="-0.34995">
        <ele>127.99</ele>
        <time>2012-06-24T07:33:00Z</time>
      </trkpt>
      <trkpt lat="48.98637" lon="-0.35002">
        <ele>127.99</ele>
        <time>2012-06-24T07:33:01Z</time>
      </trkpt>
      <trkpt lat="48.98631" lon="-0.35008">
        <ele>126.55</ele>
        <time>2012-06-24T07:33:02Z</time>
      </trkpt>
      <trkpt lat="48.98625" lon="-0.35013">
        <ele>127.51</ele>
        <time>2012-06-24T07:33:03Z</time>
      </trkpt>
      <trkpt lat="48.98619" lon="-0.35016">
        <ele>127.03</ele>
        <time>2012-06-24T07:33:04Z</time>
      </trkpt>
      <trkpt lat="48.98613" lon="-0.35017">
        <ele>128.47</ele>
        <time>2012-06-24T07:33:05Z</time>
      </trkpt>
      <trkpt lat="48.98607" lon="-0.35017">
        <ele>128.47</ele>
        <time>2012-06-24T07:33:06Z</time>
      </trkpt>
      <trkpt lat="48.98602" lon="-0.35014">
        <ele>129.92</ele>
        <time>2012-06-24T07:33:07Z</time>
      </trkpt>
      <trkpt lat="48.98597" lon="-0.3501">
        <ele>130.4</ele>
        <time>2012-06-24T07:33:08Z</time>
      </trkpt>
      <trkpt lat="48.98592" lon="-0.35005">
        <ele>129.43</ele>
        <time>2012-06-24T07:33:09Z</time>
      </trkpt>
      <trkpt lat="48.98542" lon="-0.34956">
        <ele>133.28</ele>
        <time>2012-06-24T07:33:20Z</time>
      </trkpt>
      <trkpt lat="48.98534" lon="-0.34949">
        <ele>132.8</ele>
        <time>2012-06-24T07:33:22Z</time>
      </trkpt>
      <trkpt lat="48.9853" lon="-0.34947">
        <ele>133.28</ele>
        <time>2012-06-24T07:33:23Z</time>
      </trkpt>
      <trkpt lat="48.98525" lon="-0.34946">
        <ele>133.28</ele>
        <time>2012-06-24T07:33:24Z</time>
      </trkpt>
      <trkpt lat="48.98521" lon="-0.3495">
        <ele>133.28</ele>
        <time>2012-06-24T07:33:25Z</time>
      </trkpt>
      <trkpt lat="48.98518" lon="-0.34956">
        <ele>133.28</ele>
        <time>2012-06-24T07:33:26Z</time>
      </trkpt>
      <trkpt lat="48.98517" lon="-0.34964">
        <ele>132.32</ele>
        <time>2012-06-24T07:33:27Z</time>
      </trkpt>
      <trkpt lat="48.98516" lon="-0.34972">
        <ele>132.8</ele>
        <time>2012-06-24T07:33:28Z</time>
      </trkpt>
      <trkpt lat="48.98515" lon="-0.34979">
        <ele>133.28</ele>
        <time>2012-06-24T07:33:29Z</time>
      </trkpt>
      <trkpt lat="48.98513" lon="-0.34993">
        <ele>133.28</ele>
        <time>2012-06-24T07:33:31Z</time>
      </trkpt>
      <trkpt lat="48.98512" lon="-0.35">
        <ele>133.76</ele>
        <time>2012-06-24T07:33:32Z</time>
      </trkpt>
      <trkpt lat="48.98509" lon="-0.35006">
        <ele>133.76</ele>
        <time>2012-06-24T07:33:33Z</time>
      </trkpt>
      <trkpt lat="48.98507" lon="-0.35012">
        <ele>133.76</ele>
        <time>2012-06-24T07:33:34Z</time>
      </trkpt>
      <trkpt lat="48.98504" lon="-0.35017">
        <ele>133.28</ele>
        <time>2012-06-24T07:33:35Z</time>
      </trkpt>
      <trkpt lat="48.98501" lon="-0.35022">
        <ele>132.32</ele>
        <time>2012-06-24T07:33:36Z</time>
      </trkpt>
      <trkpt lat="48.98497" lon="-0.35027">
        <ele>132.8</ele>
        <time>2012-06-24T07:33:37Z</time>
      </trkpt>
      <trkpt lat="48.98493" lon="-0.35029">
        <ele>133.76</ele>
        <time>2012-06-24T07:33:38Z</time>
      </trkpt>
      <trkpt lat="48.98489" lon="-0.3503">
        <ele>133.76</ele>
        <time>2012-06-24T07:33:39Z</time>
      </trkpt>
      <trkpt lat="48.98484" lon="-0.35028">
        <ele>134.72</ele>
        <time>2012-06-24T07:33:40Z</time>
      </trkpt>
      <trkpt lat="48.9848" lon="-0.35026">
        <ele>135.2</ele>
        <time>2012-06-24T07:33:41Z</time>
      </trkpt>
      <trkpt lat="48.98476" lon="-0.35023">
        <ele>135.2</ele>
        <time>2012-06-24T07:33:42Z</time>
      </trkpt>
      <trkpt lat="48.98454" lon="-0.35003">
        <ele>134.24</ele>
        <time>2012-06-24T07:33:48Z</time>
      </trkpt>
      <trkpt lat="48.9845" lon="-0.35">
        <ele>133.76</ele>
        <time>2012-06-24T07:33:49Z</time>
      </trkpt>
      <trkpt lat="48.98445" lon="-0.34996">
        <ele>133.76</ele>
        <time>2012-06-24T07:33:50Z</time>
      </trkpt>
      <trkpt lat="48.9842" lon="-0.34972">
        <ele>133.28</ele>
        <time>2012-06-24T07:33:56Z</time>
      </trkpt>
      <trkpt lat="48.98398" lon="-0.34956">
        <ele>131.36</ele>
        <time>2012-06-24T07:34:01Z</time>
      </trkpt>
      <trkpt lat="48.98369" lon="-0.34932">
        <ele>131.84</ele>
        <time>2012-06-24T07:34:08Z</time>
      </trkpt>
      <trkpt lat="48.98365" lon="-0.3493">
        <ele>131.36</ele>
        <time>2012-06-24T07:34:09Z</time>
      </trkpt>
      <trkpt lat="48.98357" lon="-0.34923">
        <ele>131.84</ele>
        <time>2012-06-24T07:34:11Z</time>
      </trkpt>
      <trkpt lat="48.98353" lon="-0.3492">
        <ele>131.84</ele>
        <time>2012-06-24T07:34:12Z</time>
      </trkpt>
      <trkpt lat="48.98338" lon="-0.34907">
        <ele>131.36</ele>
        <time>2012-06-24T07:34:16Z</time>
      </trkpt>
      <trkpt lat="48.98334" lon="-0.34904">
        <ele>131.36</ele>
        <time>2012-06-24T07:34:17Z</time>
      </trkpt>
      <trkpt lat="48.98298" lon="-0.34872">
        <ele>129.92</ele>
        <time>2012-06-24T07:34:28Z</time>
      </trkpt>
      <trkpt lat="48.9827" lon="-0.34846">
        <ele>127.51</ele>
        <time>2012-06-24T07:34:36Z</time>
      </trkpt>
      <trkpt lat="48.98268" lon="-0.34844">
        <ele>127.99</ele>
        <time>2012-06-24T07:34:37Z</time>
      </trkpt>
      <trkpt lat="48.98266" lon="-0.34841">
        <ele>127.99</ele>
        <time>2012-06-24T07:34:38Z</time>
      </trkpt>
      <trkpt lat="48.98264" lon="-0.34839">
        <ele>128.47</ele>
        <time>2012-06-24T07:34:39Z</time>
      </trkpt>
      <trkpt lat="48.98261" lon="-0.34836">
        <ele>128.47</ele>
        <time>2012-06-24T07:34:40Z</time>
      </trkpt>
      <trkpt lat="48.98259" lon="-0.34833">
        <ele>128.47</ele>
        <time>2012-06-24T07:34:41Z</time>
      </trkpt>
      <trkpt lat="48.98256" lon="-0.3483">
        <ele>128.47</ele>
        <time>2012-06-24T07:34:42Z</time>
      </trkpt>
      <trkpt lat="48.98219" lon="-0.34792">
        <ele>126.07</ele>
        <time>2012-06-24T07:34:53Z</time>
      </trkpt>
      <trkpt lat="48.98201" lon="-0.34781">
        <ele>125.59</ele>
        <time>2012-06-24T07:34:59Z</time>
      </trkpt>
      <trkpt lat="48.98198" lon="-0.34781">
        <ele>124.63</ele>
        <time>2012-06-24T07:35:00Z</time>
      </trkpt>
      <trkpt lat="48.98196" lon="-0.34781">
        <ele>124.15</ele>
        <time>2012-06-24T07:35:01Z</time>
      </trkpt>
      <trkpt lat="48.98193" lon="-0.34782">
        <ele>124.15</ele>
        <time>2012-06-24T07:35:02Z</time>
      </trkpt>
      <trkpt lat="48.9819" lon="-0.34784">
        <ele>123.67</ele>
        <time>2012-06-24T07:35:03Z</time>
      </trkpt>
      <trkpt lat="48.98177" lon="-0.34785">
        <ele>122.22</ele>
        <time>2012-06-24T07:35:08Z</time>
      </trkpt>
      <trkpt lat="48.98175" lon="-0.34784">
        <ele>122.22</ele>
        <time>2012-06-24T07:35:09Z</time>
      </trkpt>
      <trkpt lat="48.98173" lon="-0.34782">
        <ele>122.22</ele>
        <time>2012-06-24T07:35:10Z</time>
      </trkpt>
      <trkpt lat="48.98172" lon="-0.3478">
        <ele>122.22</ele>
        <time>2012-06-24T07:35:11Z</time>
      </trkpt>
      <trkpt lat="48.9817" lon="-0.34777">
        <ele>122.22</ele>
        <time>2012-06-24T07:35:12Z</time>
      </trkpt>
      <trkpt lat="48.98168" lon="-0.34775">
        <ele>121.74</ele>
        <time>2012-06-24T07:35:13Z</time>
      </trkpt>
      <trkpt lat="48.98167" lon="-0.34772">
        <ele>121.74</ele>
        <time>2012-06-24T07:35:14Z</time>
      </trkpt>
      <trkpt lat="48.98165" lon="-0.34769">
        <ele>122.22</ele>
        <time>2012-06-24T07:35:15Z</time>
      </trkpt>
      <trkpt lat="48.98162" lon="-0.34766">
        <ele>121.74</ele>
        <time>2012-06-24T07:35:16Z</time>
      </trkpt>
      <trkpt lat="48.98147" lon="-0.34749">
        <ele>122.22</ele>
        <time>2012-06-24T07:35:27Z</time>
      </trkpt>
      <trkpt lat="48.98136" lon="-0.34743">
        <ele>122.22</ele>
        <time>2012-06-24T07:35:32Z</time>
      </trkpt>
      <trkpt lat="48.98135" lon="-0.34744">
        <ele>121.74</ele>
        <time>2012-06-24T07:35:33Z</time>
      </trkpt>
      <trkpt lat="48.98133" lon="-0.34744">
        <ele>121.26</ele>
        <time>2012-06-24T07:35:34Z</time>
      </trkpt>
      <trkpt lat="48.98131" lon="-0.34744">
        <ele>122.22</ele>
        <time>2012-06-24T07:35:35Z</time>
      </trkpt>
      <trkpt lat="48.98129" lon="-0.34742">
        <ele>121.74</ele>
        <time>2012-06-24T07:35:36Z</time>
      </trkpt>
      <trkpt lat="48.98126" lon="-0.34741">
        <ele>122.22</ele>
        <time>2012-06-24T07:35:37Z</time>
      </trkpt>
      <trkpt lat="48.98124" lon="-0.3474">
        <ele>122.22</ele>
        <time>2012-06-24T07:35:38Z</time>
      </trkpt>
      <trkpt lat="48.98121" lon="-0.34739">
        <ele>121.26</ele>
        <time>2012-06-24T07:35:39Z</time>
      </trkpt>
      <trkpt lat="48.98118" lon="-0.34739">
        <ele>121.74</ele>
        <time>2012-06-24T07:35:40Z</time>
      </trkpt>
      <trkpt lat="48.98115" lon="-0.34738">
        <ele>121.26</ele>
        <time>2012-06-24T07:35:41Z</time>
      </trkpt>
      <trkpt lat="48.98112" lon="-0.34737">
        <ele>122.22</ele>
        <time>2012-06-24T07:35:42Z</time>
      </trkpt>
      <trkpt lat="48.98108" lon="-0.34736">
        <ele>122.22</ele>
        <time>2012-06-24T07:35:51Z</time>
      </trkpt>
      <trkpt lat="48.98102" lon="-0.34734">
        <ele>121.74</ele>
        <time>2012-06-24T07:35:56Z</time>
      </trkpt>
      <trkpt lat="48.98101" lon="-0.34734">
        <ele>122.71</ele>
        <time>2012-06-24T07:35:57Z</time>
      </trkpt>
      <trkpt lat="48.98099" lon="-0.34733">
        <ele>122.22</ele>
        <time>2012-06-24T07:35:58Z</time>
      </trkpt>
      <trkpt lat="48.98097" lon="-0.34732">
        <ele>122.22</ele>
        <time>2012-06-24T07:36:02Z</time>
      </trkpt>
      <trkpt lat="48.98094" lon="-0.34731">
        <ele>122.22</ele>
        <time>2012-06-24T07:36:05Z</time>
      </trkpt>
      <trkpt lat="48.98093" lon="-0.3473">
        <ele>122.22</ele>
        <time>2012-06-24T07:36:06Z</time>
      </trkpt>
      <trkpt lat="48.98091" lon="-0.34729">
        <ele>122.71</ele>
        <time>2012-06-24T07:36:09Z</time>
      </trkpt>
      <trkpt lat="48.9809" lon="-0.34729">
        <ele>119.34</ele>
        <time>2012-06-24T07:36:10Z</time>
      </trkpt>
      <trkpt lat="48.9809" lon="-0.34729">
        <ele>137.13</ele>
        <time>2012-06-24T07:36:11Z</time>
      </trkpt>
      <trkpt lat="48.9809" lon="-0.34729">
        <ele>123.19</ele>
        <time>2012-06-24T07:36:12Z</time>
      </trkpt>
      <trkpt lat="48.98088" lon="-0.34728">
        <ele>122.22</ele>
        <time>2012-06-24T07:36:16Z</time>
      </trkpt>
      <trkpt lat="48.98087" lon="-0.34727">
        <ele>122.22</ele>
        <time>2012-06-24T07:36:17Z</time>
      </trkpt>
      <trkpt lat="48.98086" lon="-0.34727">
        <ele>122.22</ele>
        <time>2012-06-24T07:36:18Z</time>
      </trkpt>
      <trkpt lat="48.98068" lon="-0.34718">
        <ele>123.19</ele>
        <time>2012-06-24T07:36:33Z</time>
      </trkpt>
      <trkpt lat="48.98051" lon="-0.34708">
        <ele>123.67</ele>
        <time>2012-06-24T07:36:44Z</time>
      </trkpt>
      <trkpt lat="48.98025" lon="-0.34691">
        <ele>124.15</ele>
        <time>2012-06-24T07:36:57Z</time>
      </trkpt>
      <trkpt lat="48.97996" lon="-0.34672">
        <ele>125.59</ele>
        <time>2012-06-24T07:37:11Z</time>
      </trkpt>
      <trkpt lat="48.97965" lon="-0.34634">
        <ele>127.99</ele>
        <time>2012-06-24T07:37:27Z</time>
      </trkpt>
      <trkpt lat="48.97955" lon="-0.3458">
        <ele>129.92</ele>
        <time>2012-06-24T07:37:40Z</time>
      </trkpt>
      <trkpt lat="48.97945" lon="-0.34519">
        <ele>130.4</ele>
        <time>2012-06-24T07:37:54Z</time>
      </trkpt>
      <trkpt lat="48.97923" lon="-0.3448">
        <ele>130.4</ele>
        <time>2012-06-24T07:38:05Z</time>
      </trkpt>
      <trkpt lat="48.97891" lon="-0.3444">
        <ele>131.84</ele>
        <time>2012-06-24T07:38:17Z</time>
      </trkpt>
      <trkpt lat="48.97848" lon="-0.34397">
        <ele>133.28</ele>
        <time>2012-06-24T07:38:32Z</time>
      </trkpt>
      <trkpt lat="48.97819" lon="-0.3435">
        <ele>134.72</ele>
        <time>2012-06-24T07:38:46Z</time>
      </trkpt>
      <trkpt lat="48.97817" lon="-0.34349">
        <ele>134.72</ele>
        <time>2012-06-24T07:38:47Z</time>
      </trkpt>
      <trkpt lat="48.97803" lon="-0.34358">
        <ele>136.64</ele>
        <time>2012-06-24T07:38:56Z</time>
      </trkpt>
      <trkpt lat="48.97803" lon="-0.34357">
        <ele>137.13</ele>
        <time>2012-06-24T07:39:15Z</time>
      </trkpt>
      <trkpt lat="48.97803" lon="-0.34357">
        <ele>136.64</ele>
        <time>2012-06-24T07:39:26Z</time>
      </trkpt>
      <trkpt lat="48.97795" lon="-0.34349">
        <ele>136.64</ele>
        <time>2012-06-24T07:39:31Z</time>
      </trkpt>
      <trkpt lat="48.97766" lon="-0.34338">
        <ele>137.13</ele>
        <time>2012-06-24T07:39:44Z</time>
      </trkpt>
      <trkpt lat="48.97734" lon="-0.34326">
        <ele>137.61</ele>
        <time>2012-06-24T07:39:57Z</time>
      </trkpt>
      <trkpt lat="48.97702" lon="-0.34329">
        <ele>138.09</ele>
        <time>2012-06-24T07:40:10Z</time>
      </trkpt>
      <trkpt lat="48.97672" lon="-0.34334">
        <ele>139.05</ele>
        <time>2012-06-24T07:40:22Z</time>
      </trkpt>
      <trkpt lat="48.97639" lon="-0.34346">
        <ele>138.57</ele>
        <time>2012-06-24T07:40:35Z</time>
      </trkpt>
      <trkpt lat="48.97617" lon="-0.34355">
        <ele>144.82</ele>
        <time>2012-06-24T07:40:43Z</time>
      </trkpt>
      <trkpt lat="48.97614" lon="-0.34356">
        <ele>134.24</ele>
        <time>2012-06-24T07:40:44Z</time>
      </trkpt>
      <trkpt lat="48.97611" lon="-0.34357">
        <ele>137.61</ele>
        <time>2012-06-24T07:40:45Z</time>
      </trkpt>
      <trkpt lat="48.97578" lon="-0.34356">
        <ele>137.61</ele>
        <time>2012-06-24T07:40:56Z</time>
      </trkpt>
      <trkpt lat="48.97553" lon="-0.34342">
        <ele>138.57</ele>
        <time>2012-06-24T07:41:07Z</time>
      </trkpt>
      <trkpt lat="48.97515" lon="-0.34312">
        <ele>139.53</ele>
        <time>2012-06-24T07:41:21Z</time>
      </trkpt>
      <trkpt lat="48.97476" lon="-0.34279">
        <ele>141.93</ele>
        <time>2012-06-24T07:41:36Z</time>
      </trkpt>
      <trkpt lat="48.97448" lon="-0.34275">
        <ele>141.93</ele>
        <time>2012-06-24T07:41:47Z</time>
      </trkpt>
      <trkpt lat="48.97415" lon="-0.34259">
        <ele>141.93</ele>
        <time>2012-06-24T07:42:00Z</time>
      </trkpt>
      <trkpt lat="48.97371" lon="-0.34238">
        <ele>142.89</ele>
        <time>2012-06-24T07:42:16Z</time>
      </trkpt>
      <trkpt lat="48.97321" lon="-0.34226">
        <ele>144.82</ele>
        <time>2012-06-24T07:42:32Z</time>
      </trkpt>
      <trkpt lat="48.97279" lon="-0.34215">
        <ele>146.26</ele>
        <time>2012-06-24T07:42:45Z</time>
      </trkpt>
      <trkpt lat="48.9727" lon="-0.34209">
        <ele>146.74</ele>
        <time>2012-06-24T07:42:48Z</time>
      </trkpt>
      <trkpt lat="48.97259" lon="-0.34233">
        <ele>146.74</ele>
        <time>2012-06-24T07:42:55Z</time>
      </trkpt>
      <trkpt lat="48.97251" lon="-0.34303">
        <ele>148.66</ele>
        <time>2012-06-24T07:43:08Z</time>
      </trkpt>
      <trkpt lat="48.97243" lon="-0.34367">
        <ele>152.03</ele>
        <time>2012-06-24T07:43:20Z</time>
      </trkpt>
      <trkpt lat="48.97236" lon="-0.34415">
        <ele>153.47</ele>
        <time>2012-06-24T07:43:30Z</time>
      </trkpt>
      <trkpt lat="48.97231" lon="-0.34487">
        <ele>154.43</ele>
        <time>2012-06-24T07:43:44Z</time>
      </trkpt>
      <trkpt lat="48.9723" lon="-0.34561">
        <ele>155.39</ele>
        <time>2012-06-24T07:43:57Z</time>
      </trkpt>
      <trkpt lat="48.97224" lon="-0.34611">
        <ele>155.87</ele>
        <time>2012-06-24T07:44:05Z</time>
      </trkpt>
      <trkpt lat="48.97222" lon="-0.34623">
        <ele>155.39</ele>
        <time>2012-06-24T07:44:07Z</time>
      </trkpt>
      <trkpt lat="48.97221" lon="-0.34629">
        <ele>155.87</ele>
        <time>2012-06-24T07:44:08Z</time>
      </trkpt>
      <trkpt lat="48.97207" lon="-0.34726">
        <ele>156.83</ele>
        <time>2012-06-24T07:44:24Z</time>
      </trkpt>
      <trkpt lat="48.97191" lon="-0.3481">
        <ele>157.31</ele>
        <time>2012-06-24T07:44:39Z</time>
      </trkpt>
      <trkpt lat="48.97189" lon="-0.34822">
        <ele>157.31</ele>
        <time>2012-06-24T07:44:41Z</time>
      </trkpt>
      <trkpt lat="48.97188" lon="-0.34829">
        <ele>157.31</ele>
        <time>2012-06-24T07:44:42Z</time>
      </trkpt>
      <trkpt lat="48.97175" lon="-0.34927">
        <ele>159.72</ele>
        <time>2012-06-24T07:44:58Z</time>
      </trkpt>
      <trkpt lat="48.97176" lon="-0.34947">
        <ele>158.75</ele>
        <time>2012-06-24T07:45:01Z</time>
      </trkpt>
      <trkpt lat="48.97177" lon="-0.34954">
        <ele>159.24</ele>
        <time>2012-06-24T07:45:02Z</time>
      </trkpt>
      <trkpt lat="48.97202" lon="-0.35061">
        <ele>158.75</ele>
        <time>2012-06-24T07:45:17Z</time>
      </trkpt>
      <trkpt lat="48.97225" lon="-0.35169">
        <ele>155.87</ele>
        <time>2012-06-24T07:45:31Z</time>
      </trkpt>
      <trkpt lat="48.97222" lon="-0.35307">
        <ele>154.91</ele>
        <time>2012-06-24T07:45:47Z</time>
      </trkpt>
      <trkpt lat="48.97206" lon="-0.35466">
        <ele>152.51</ele>
        <time>2012-06-24T07:46:06Z</time>
      </trkpt>
      <trkpt lat="48.97203" lon="-0.35538">
        <ele>149.62</ele>
        <time>2012-06-24T07:46:14Z</time>
      </trkpt>
      <trkpt lat="48.97203" lon="-0.35557">
        <ele>147.7</ele>
        <time>2012-06-24T07:46:16Z</time>
      </trkpt>
      <trkpt lat="48.97203" lon="-0.35576">
        <ele>149.62</ele>
        <time>2012-06-24T07:46:18Z</time>
      </trkpt>
      <trkpt lat="48.97204" lon="-0.35651">
        <ele>146.26</ele>
        <time>2012-06-24T07:46:25Z</time>
      </trkpt>
      <trkpt lat="48.97205" lon="-0.35673">
        <ele>144.82</ele>
        <time>2012-06-24T07:46:27Z</time>
      </trkpt>
      <trkpt lat="48.97207" lon="-0.3573">
        <ele>144.82</ele>
        <time>2012-06-24T07:46:32Z</time>
      </trkpt>
      <trkpt lat="48.97209" lon="-0.35789">
        <ele>141.93</ele>
        <time>2012-06-24T07:46:37Z</time>
      </trkpt>
      <trkpt lat="48.9721" lon="-0.35799">
        <ele>141.93</ele>
        <time>2012-06-24T07:46:38Z</time>
      </trkpt>
      <trkpt lat="48.97211" lon="-0.35827">
        <ele>142.89</ele>
        <time>2012-06-24T07:46:42Z</time>
      </trkpt>
      <trkpt lat="48.97209" lon="-0.35832">
        <ele>142.89</ele>
        <time>2012-06-24T07:46:43Z</time>
      </trkpt>
      <trkpt lat="48.97206" lon="-0.35834">
        <ele>141.93</ele>
        <time>2012-06-24T07:46:44Z</time>
      </trkpt>
      <trkpt lat="48.97202" lon="-0.35836">
        <ele>141.93</ele>
        <time>2012-06-24T07:46:45Z</time>
      </trkpt>
      <trkpt lat="48.97199" lon="-0.35838">
        <ele>142.41</ele>
        <time>2012-06-24T07:46:46Z</time>
      </trkpt>
      <trkpt lat="48.97186" lon="-0.35845">
        <ele>141.45</ele>
        <time>2012-06-24T07:46:49Z</time>
      </trkpt>
      <trkpt lat="48.97141" lon="-0.35853">
        <ele>143.37</ele>
        <time>2012-06-24T07:46:59Z</time>
      </trkpt>
      <trkpt lat="48.97111" lon="-0.3586">
        <ele>144.82</ele>
        <time>2012-06-24T07:47:06Z</time>
      </trkpt>
      <trkpt lat="48.97086" lon="-0.35873">
        <ele>147.22</ele>
        <time>2012-06-24T07:47:12Z</time>
      </trkpt>
      <trkpt lat="48.97082" lon="-0.35875">
        <ele>147.22</ele>
        <time>2012-06-24T07:47:13Z</time>
      </trkpt>
      <trkpt lat="48.97057" lon="-0.35888">
        <ele>147.7</ele>
        <time>2012-06-24T07:47:19Z</time>
      </trkpt>
      <trkpt lat="48.97053" lon="-0.3589">
        <ele>148.18</ele>
        <time>2012-06-24T07:47:20Z</time>
      </trkpt>
      <trkpt lat="48.96987" lon="-0.35919">
        <ele>151.06</ele>
        <time>2012-06-24T07:47:34Z</time>
      </trkpt>
      <trkpt lat="48.96965" lon="-0.35923">
        <ele>152.51</ele>
        <time>2012-06-24T07:47:39Z</time>
      </trkpt>
      <trkpt lat="48.9691" lon="-0.35919">
        <ele>153.95</ele>
        <time>2012-06-24T07:47:52Z</time>
      </trkpt>
      <trkpt lat="48.96903" lon="-0.3592">
        <ele>152.99</ele>
        <time>2012-06-24T07:47:54Z</time>
      </trkpt>
      <trkpt lat="48.96901" lon="-0.35923">
        <ele>152.99</ele>
        <time>2012-06-24T07:47:55Z</time>
      </trkpt>
      <trkpt lat="48.96899" lon="-0.35927">
        <ele>153.47</ele>
        <time>2012-06-24T07:47:56Z</time>
      </trkpt>
      <trkpt lat="48.96898" lon="-0.35932">
        <ele>153.95</ele>
        <time>2012-06-24T07:47:57Z</time>
      </trkpt>
      <trkpt lat="48.96899" lon="-0.35936">
        <ele>154.43</ele>
        <time>2012-06-24T07:47:58Z</time>
      </trkpt>
      <trkpt lat="48.96899" lon="-0.35941">
        <ele>154.43</ele>
        <time>2012-06-24T07:47:59Z</time>
      </trkpt>
      <trkpt lat="48.96899" lon="-0.35946">
        <ele>154.91</ele>
        <time>2012-06-24T07:48:00Z</time>
      </trkpt>
      <trkpt lat="48.96899" lon="-0.35951">
        <ele>154.91</ele>
        <time>2012-06-24T07:48:01Z</time>
      </trkpt>
      <trkpt lat="48.96896" lon="-0.35999">
        <ele>155.39</ele>
        <time>2012-06-24T07:48:09Z</time>
      </trkpt>
      <trkpt lat="48.96892" lon="-0.36059">
        <ele>155.39</ele>
        <time>2012-06-24T07:48:20Z</time>
      </trkpt>
      <trkpt lat="48.9689" lon="-0.3612">
        <ele>156.35</ele>
        <time>2012-06-24T07:48:31Z</time>
      </trkpt>
      <trkpt lat="48.96888" lon="-0.36144">
        <ele>157.31</ele>
        <time>2012-06-24T07:48:35Z</time>
      </trkpt>
      <trkpt lat="48.96885" lon="-0.36201">
        <ele>158.75</ele>
        <time>2012-06-24T07:48:45Z</time>
      </trkpt>
      <trkpt lat="48.96883" lon="-0.36221">
        <ele>160.68</ele>
        <time>2012-06-24T07:48:49Z</time>
      </trkpt>
      <trkpt lat="48.96875" lon="-0.36287">
        <ele>160.68</ele>
        <time>2012-06-24T07:49:02Z</time>
      </trkpt>
      <trkpt lat="48.96866" lon="-0.36359">
        <ele>162.6</ele>
        <time>2012-06-24T07:49:16Z</time>
      </trkpt>
      <trkpt lat="48.96866" lon="-0.36381">
        <ele>162.12</ele>
        <time>2012-06-24T07:49:20Z</time>
      </trkpt>
      <trkpt lat="48.96866" lon="-0.36387">
        <ele>163.08</ele>
        <time>2012-06-24T07:49:21Z</time>
      </trkpt>
      <trkpt lat="48.96868" lon="-0.36392">
        <ele>163.08</ele>
        <time>2012-06-24T07:49:22Z</time>
      </trkpt>
      <trkpt lat="48.9687" lon="-0.36397">
        <ele>162.6</ele>
        <time>2012-06-24T07:49:23Z</time>
      </trkpt>
      <trkpt lat="48.96872" lon="-0.36402">
        <ele>163.08</ele>
        <time>2012-06-24T07:49:24Z</time>
      </trkpt>
      <trkpt lat="48.96901" lon="-0.36452">
        <ele>162.6</ele>
        <time>2012-06-24T07:49:34Z</time>
      </trkpt>
      <trkpt lat="48.96905" lon="-0.36459">
        <ele>162.12</ele>
        <time>2012-06-24T07:49:35Z</time>
      </trkpt>
      <trkpt lat="48.96909" lon="-0.36465">
        <ele>162.6</ele>
        <time>2012-06-24T07:49:36Z</time>
      </trkpt>
      <trkpt lat="48.96928" lon="-0.36506">
        <ele>162.12</ele>
        <time>2012-06-24T07:49:43Z</time>
      </trkpt>
      <trkpt lat="48.96931" lon="-0.36512">
        <ele>162.6</ele>
        <time>2012-06-24T07:49:44Z</time>
      </trkpt>
      <trkpt lat="48.96934" lon="-0.36518">
        <ele>162.12</ele>
        <time>2012-06-24T07:49:45Z</time>
      </trkpt>
      <trkpt lat="48.96944" lon="-0.36542">
        <ele>163.08</ele>
        <time>2012-06-24T07:49:49Z</time>
      </trkpt>
      <trkpt lat="48.96946" lon="-0.36548">
        <ele>162.6</ele>
        <time>2012-06-24T07:49:50Z</time>
      </trkpt>
      <trkpt lat="48.96984" lon="-0.36626">
        <ele>161.16</ele>
        <time>2012-06-24T07:50:02Z</time>
      </trkpt>
      <trkpt lat="48.97007" lon="-0.36678">
        <ele>160.68</ele>
        <time>2012-06-24T07:50:10Z</time>
      </trkpt>
      <trkpt lat="48.97012" lon="-0.36689">
        <ele>160.68</ele>
        <time>2012-06-24T07:50:12Z</time>
      </trkpt>
      <trkpt lat="48.97018" lon="-0.36717">
        <ele>159.72</ele>
        <time>2012-06-24T07:50:17Z</time>
      </trkpt>
      <trkpt lat="48.97016" lon="-0.36756">
        <ele>160.2</ele>
        <time>2012-06-24T07:50:22Z</time>
      </trkpt>
      <trkpt lat="48.97015" lon="-0.36763">
        <ele>159.72</ele>
        <time>2012-06-24T07:50:23Z</time>
      </trkpt>
      <trkpt lat="48.97008" lon="-0.36846">
        <ele>156.35</ele>
        <time>2012-06-24T07:50:32Z</time>
      </trkpt>
      <trkpt lat="48.97007" lon="-0.36856">
        <ele>156.35</ele>
        <time>2012-06-24T07:50:33Z</time>
      </trkpt>
      <trkpt lat="48.96997" lon="-0.36992">
        <ele>152.51</ele>
        <time>2012-06-24T07:50:46Z</time>
      </trkpt>
      <trkpt lat="48.96997" lon="-0.37016">
        <ele>151.06</ele>
        <time>2012-06-24T07:50:48Z</time>
      </trkpt>
      <trkpt lat="48.96996" lon="-0.3704">
        <ele>149.62</ele>
        <time>2012-06-24T07:50:50Z</time>
      </trkpt>
      <trkpt lat="48.96996" lon="-0.37076">
        <ele>150.1</ele>
        <time>2012-06-24T07:50:54Z</time>
      </trkpt>
      <trkpt lat="48.96995" lon="-0.37082">
        <ele>150.58</ele>
        <time>2012-06-24T07:50:55Z</time>
      </trkpt>
      <trkpt lat="48.96992" lon="-0.37086">
        <ele>150.58</ele>
        <time>2012-06-24T07:50:56Z</time>
      </trkpt>
      <trkpt lat="48.96988" lon="-0.37089">
        <ele>150.58</ele>
        <time>2012-06-24T07:50:57Z</time>
      </trkpt>
      <trkpt lat="48.96984" lon="-0.37092">
        <ele>150.1</ele>
        <time>2012-06-24T07:50:58Z</time>
      </trkpt>
      <trkpt lat="48.9698" lon="-0.37096">
        <ele>150.58</ele>
        <time>2012-06-24T07:50:59Z</time>
      </trkpt>
      <trkpt lat="48.96978" lon="-0.37101">
        <ele>151.06</ele>
        <time>2012-06-24T07:51:00Z</time>
      </trkpt>
      <trkpt lat="48.96978" lon="-0.37106">
        <ele>151.06</ele>
        <time>2012-06-24T07:51:01Z</time>
      </trkpt>
      <trkpt lat="48.96978" lon="-0.37111">
        <ele>151.06</ele>
        <time>2012-06-24T07:51:02Z</time>
      </trkpt>
      <trkpt lat="48.96979" lon="-0.37116">
        <ele>151.54</ele>
        <time>2012-06-24T07:51:03Z</time>
      </trkpt>
      <trkpt lat="48.9698" lon="-0.37126">
        <ele>151.54</ele>
        <time>2012-06-24T07:51:05Z</time>
      </trkpt>
      <trkpt lat="48.96981" lon="-0.37132">
        <ele>151.54</ele>
        <time>2012-06-24T07:51:06Z</time>
      </trkpt>
      <trkpt lat="48.96983" lon="-0.3714">
        <ele>153.47</ele>
        <time>2012-06-24T07:51:08Z</time>
      </trkpt>
      <trkpt lat="48.96984" lon="-0.3715">
        <ele>154.91</ele>
        <time>2012-06-24T07:51:11Z</time>
      </trkpt>
      <trkpt lat="48.96984" lon="-0.37182">
        <ele>157.31</ele>
        <time>2012-06-24T07:51:19Z</time>
      </trkpt>
      <trkpt lat="48.96974" lon="-0.37231">
        <ele>160.2</ele>
        <time>2012-06-24T07:51:31Z</time>
      </trkpt>
      <trkpt lat="48.96957" lon="-0.37276">
        <ele>161.16</ele>
        <time>2012-06-24T07:51:41Z</time>
      </trkpt>
      <trkpt lat="48.96935" lon="-0.37313">
        <ele>162.12</ele>
        <time>2012-06-24T07:51:52Z</time>
      </trkpt>
      <trkpt lat="48.96927" lon="-0.37319">
        <ele>162.6</ele>
        <time>2012-06-24T07:51:56Z</time>
      </trkpt>
      <trkpt lat="48.96926" lon="-0.3732">
        <ele>162.12</ele>
        <time>2012-06-24T07:51:57Z</time>
      </trkpt>
      <trkpt lat="48.96924" lon="-0.37321">
        <ele>162.6</ele>
        <time>2012-06-24T07:51:58Z</time>
      </trkpt>
      <trkpt lat="48.96923" lon="-0.37323">
        <ele>163.08</ele>
        <time>2012-06-24T07:51:59Z</time>
      </trkpt>
      <trkpt lat="48.9692" lon="-0.37325">
        <ele>163.08</ele>
        <time>2012-06-24T07:52:00Z</time>
      </trkpt>
      <trkpt lat="48.96918" lon="-0.37326">
        <ele>163.08</ele>
        <time>2012-06-24T07:52:01Z</time>
      </trkpt>
      <trkpt lat="48.96915" lon="-0.37328">
        <ele>162.6</ele>
        <time>2012-06-24T07:52:02Z</time>
      </trkpt>
      <trkpt lat="48.96914" lon="-0.37329">
        <ele>162.6</ele>
        <time>2012-06-24T07:52:03Z</time>
      </trkpt>
      <trkpt lat="48.96911" lon="-0.37329">
        <ele>163.08</ele>
        <time>2012-06-24T07:52:04Z</time>
      </trkpt>
      <trkpt lat="48.96886" lon="-0.37348">
        <ele>163.56</ele>
        <time>2012-06-24T07:52:14Z</time>
      </trkpt>
      <trkpt lat="48.96861" lon="-0.37363">
        <ele>165</ele>
        <time>2012-06-24T07:52:23Z</time>
      </trkpt>
      <trkpt lat="48.96839" lon="-0.37377">
        <ele>165.96</ele>
        <time>2012-06-24T07:52:32Z</time>
      </trkpt>
      <trkpt lat="48.96808" lon="-0.37397">
        <ele>167.41</ele>
        <time>2012-06-24T07:52:46Z</time>
      </trkpt>
      <trkpt lat="48.968" lon="-0.37403">
        <ele>168.37</ele>
        <time>2012-06-24T07:52:50Z</time>
      </trkpt>
      <trkpt lat="48.96791" lon="-0.37408">
        <ele>167.89</ele>
        <time>2012-06-24T07:52:54Z</time>
      </trkpt>
      <trkpt lat="48.96759" lon="-0.37431">
        <ele>168.85</ele>
        <time>2012-06-24T07:53:07Z</time>
      </trkpt>
      <trkpt lat="48.96747" lon="-0.37435">
        <ele>169.33</ele>
        <time>2012-06-24T07:53:13Z</time>
      </trkpt>
      <trkpt lat="48.96719" lon="-0.37454">
        <ele>169.81</ele>
        <time>2012-06-24T07:53:25Z</time>
      </trkpt>
      <trkpt lat="48.96696" lon="-0.37469">
        <ele>170.29</ele>
        <time>2012-06-24T07:53:35Z</time>
      </trkpt>
      <trkpt lat="48.96665" lon="-0.37489">
        <ele>170.77</ele>
        <time>2012-06-24T07:53:47Z</time>
      </trkpt>
      <trkpt lat="48.96636" lon="-0.3751">
        <ele>172.21</ele>
        <time>2012-06-24T07:53:57Z</time>
      </trkpt>
      <trkpt lat="48.96631" lon="-0.37514">
        <ele>172.21</ele>
        <time>2012-06-24T07:53:59Z</time>
      </trkpt>
      <trkpt lat="48.96603" lon="-0.3753">
        <ele>173.17</ele>
        <time>2012-06-24T07:54:10Z</time>
      </trkpt>
      <trkpt lat="48.96577" lon="-0.37545">
        <ele>175.1</ele>
        <time>2012-06-24T07:54:22Z</time>
      </trkpt>
      <trkpt lat="48.96549" lon="-0.37562">
        <ele>177.02</ele>
        <time>2012-06-24T07:54:33Z</time>
      </trkpt>
      <trkpt lat="48.96537" lon="-0.37571">
        <ele>177.02</ele>
        <time>2012-06-24T07:54:38Z</time>
      </trkpt>
      <trkpt lat="48.96528" lon="-0.37571">
        <ele>177.98</ele>
        <time>2012-06-24T07:54:43Z</time>
      </trkpt>
      <trkpt lat="48.96515" lon="-0.3758">
        <ele>178.46</ele>
        <time>2012-06-24T07:54:50Z</time>
      </trkpt>
      <trkpt lat="48.9651" lon="-0.37582">
        <ele>178.94</ele>
        <time>2012-06-24T07:54:52Z</time>
      </trkpt>
      <trkpt lat="48.96494" lon="-0.37593">
        <ele>179.42</ele>
        <time>2012-06-24T07:55:00Z</time>
      </trkpt>
      <trkpt lat="48.96476" lon="-0.3761">
        <ele>181.35</ele>
        <time>2012-06-24T07:55:09Z</time>
      </trkpt>
      <trkpt lat="48.96456" lon="-0.3764">
        <ele>181.83</ele>
        <time>2012-06-24T07:55:21Z</time>
      </trkpt>
      <trkpt lat="48.96426" lon="-0.37699">
        <ele>182.31</ele>
        <time>2012-06-24T07:55:35Z</time>
      </trkpt>
      <trkpt lat="48.96403" lon="-0.3775">
        <ele>183.27</ele>
        <time>2012-06-24T07:55:46Z</time>
      </trkpt>
      <trkpt lat="48.9638" lon="-0.37801">
        <ele>183.75</ele>
        <time>2012-06-24T07:55:57Z</time>
      </trkpt>
      <trkpt lat="48.96355" lon="-0.37856">
        <ele>185.19</ele>
        <time>2012-06-24T07:56:08Z</time>
      </trkpt>
      <trkpt lat="48.96323" lon="-0.37917">
        <ele>185.67</ele>
        <time>2012-06-24T07:56:21Z</time>
      </trkpt>
      <trkpt lat="48.96317" lon="-0.37929">
        <ele>186.15</ele>
        <time>2012-06-24T07:56:23Z</time>
      </trkpt>
      <trkpt lat="48.96287" lon="-0.37983">
        <ele>186.15</ele>
        <time>2012-06-24T07:56:35Z</time>
      </trkpt>
      <trkpt lat="48.9628" lon="-0.37995">
        <ele>185.67</ele>
        <time>2012-06-24T07:56:38Z</time>
      </trkpt>
      <trkpt lat="48.96296" lon="-0.38026">
        <ele>183.27</ele>
        <time>2012-06-24T07:56:45Z</time>
      </trkpt>
      <trkpt lat="48.96329" lon="-0.3807">
        <ele>179.42</ele>
        <time>2012-06-24T07:56:53Z</time>
      </trkpt>
      <trkpt lat="48.96347" lon="-0.38093">
        <ele>177.5</ele>
        <time>2012-06-24T07:56:57Z</time>
      </trkpt>
      <trkpt lat="48.96351" lon="-0.38098">
        <ele>177.02</ele>
        <time>2012-06-24T07:56:58Z</time>
      </trkpt>
      <trkpt lat="48.96354" lon="-0.38103">
        <ele>176.54</ele>
        <time>2012-06-24T07:56:59Z</time>
      </trkpt>
      <trkpt lat="48.96355" lon="-0.38107">
        <ele>176.54</ele>
        <time>2012-06-24T07:57:00Z</time>
      </trkpt>
      <trkpt lat="48.96355" lon="-0.38111">
        <ele>176.06</ele>
        <time>2012-06-24T07:57:01Z</time>
      </trkpt>
      <trkpt lat="48.96355" lon="-0.38113">
        <ele>177.02</ele>
        <time>2012-06-24T07:57:02Z</time>
      </trkpt>
      <trkpt lat="48.96356" lon="-0.38113">
        <ele>177.02</ele>
        <time>2012-06-24T07:57:16Z</time>
      </trkpt>
      <trkpt lat="48.96357" lon="-0.38112">
        <ele>177.02</ele>
        <time>2012-06-24T07:57:32Z</time>
      </trkpt>
      <trkpt lat="48.96354" lon="-0.38111">
        <ele>177.02</ele>
        <time>2012-06-24T07:57:53Z</time>
      </trkpt>
      <trkpt lat="48.96352" lon="-0.38111">
        <ele>177.5</ele>
        <time>2012-06-24T07:58:06Z</time>
      </trkpt>
      <trkpt lat="48.96352" lon="-0.38111">
        <ele>177.02</ele>
        <time>2012-06-24T07:58:33Z</time>
      </trkpt>
      <trkpt lat="48.96352" lon="-0.38111">
        <ele>177.5</ele>
        <time>2012-06-24T07:59:01Z</time>
      </trkpt>
      <trkpt lat="48.96352" lon="-0.38111">
        <ele>177.02</ele>
        <time>2012-06-24T07:59:31Z</time>
      </trkpt>
      <trkpt lat="48.96352" lon="-0.38111">
        <ele>177.5</ele>
        <time>2012-06-24T08:00:03Z</time>
      </trkpt>
      <trkpt lat="48.96352" lon="-0.38111">
        <ele>177.98</ele>
        <time>2012-06-24T08:00:31Z</time>
      </trkpt>
      <trkpt lat="48.96352" lon="-0.38111">
        <ele>178.46</ele>
        <time>2012-06-24T08:01:00Z</time>
      </trkpt>
      <trkpt lat="48.96352" lon="-0.38111">
        <ele>178.46</ele>
        <time>2012-06-24T08:01:28Z</time>
      </trkpt>
      <trkpt lat="48.96352" lon="-0.38111">
        <ele>178.94</ele>
        <time>2012-06-24T08:01:58Z</time>
      </trkpt>
      <trkpt lat="48.96352" lon="-0.38111">
        <ele>177.5</ele>
        <time>2012-06-24T08:02:32Z</time>
      </trkpt>
      <trkpt lat="48.96352" lon="-0.38111">
        <ele>177.98</ele>
        <time>2012-06-24T08:03:05Z</time>
      </trkpt>
      <trkpt lat="48.96352" lon="-0.38112">
        <ele>177.98</ele>
        <time>2012-06-24T08:03:30Z</time>
      </trkpt>
      <trkpt lat="48.96351" lon="-0.38112">
        <ele>177.5</ele>
        <time>2012-06-24T08:04:05Z</time>
      </trkpt>
      <trkpt lat="48.96351" lon="-0.38112">
        <ele>178.94</ele>
        <time>2012-06-24T08:04:36Z</time>
      </trkpt>
      <trkpt lat="48.96351" lon="-0.38112">
        <ele>177.98</ele>
        <time>2012-06-24T08:04:57Z</time>
      </trkpt>
      <trkpt lat="48.96352" lon="-0.38111">
        <ele>177.98</ele>
        <time>2012-06-24T08:05:01Z</time>
      </trkpt>
      <trkpt lat="48.96354" lon="-0.3811">
        <ele>177.98</ele>
        <time>2012-06-24T08:05:13Z</time>
      </trkpt>
      <trkpt lat="48.96356" lon="-0.38111">
        <ele>177.5</ele>
        <time>2012-06-24T08:05:25Z</time>
      </trkpt>
      <trkpt lat="48.96357" lon="-0.38112">
        <ele>177.5</ele>
        <time>2012-06-24T08:05:26Z</time>
      </trkpt>
      <trkpt lat="48.9636" lon="-0.38113">
        <ele>177.02</ele>
        <time>2012-06-24T08:05:27Z</time>
      </trkpt>
      <trkpt lat="48.96363" lon="-0.38113">
        <ele>177.5</ele>
        <time>2012-06-24T08:05:28Z</time>
      </trkpt>
      <trkpt lat="48.96366" lon="-0.38112">
        <ele>176.54</ele>
        <time>2012-06-24T08:05:29Z</time>
      </trkpt>
      <trkpt lat="48.96369" lon="-0.38111">
        <ele>177.5</ele>
        <time>2012-06-24T08:05:30Z</time>
      </trkpt>
      <trkpt lat="48.96373" lon="-0.3811">
        <ele>176.54</ele>
        <time>2012-06-24T08:05:31Z</time>
      </trkpt>
      <trkpt lat="48.96401" lon="-0.38104">
        <ele>173.66</ele>
        <time>2012-06-24T08:05:37Z</time>
      </trkpt>
      <trkpt lat="48.96439" lon="-0.38097">
        <ele>170.77</ele>
        <time>2012-06-24T08:05:43Z</time>
      </trkpt>
      <trkpt lat="48.96445" lon="-0.38097">
        <ele>169.81</ele>
        <time>2012-06-24T08:05:44Z</time>
      </trkpt>
      <trkpt lat="48.96451" lon="-0.38095">
        <ele>169.81</ele>
        <time>2012-06-24T08:05:45Z</time>
      </trkpt>
      <trkpt lat="48.96463" lon="-0.38092">
        <ele>169.81</ele>
        <time>2012-06-24T08:05:47Z</time>
      </trkpt>
      <trkpt lat="48.96469" lon="-0.38089">
        <ele>169.81</ele>
        <time>2012-06-24T08:05:48Z</time>
      </trkpt>
      <trkpt lat="48.96486" lon="-0.38079">
        <ele>168.85</ele>
        <time>2012-06-24T08:05:51Z</time>
      </trkpt>
      <trkpt lat="48.96491" lon="-0.38075">
        <ele>168.85</ele>
        <time>2012-06-24T08:05:52Z</time>
      </trkpt>
      <trkpt lat="48.96495" lon="-0.38071">
        <ele>169.33</ele>
        <time>2012-06-24T08:05:53Z</time>
      </trkpt>
      <trkpt lat="48.96498" lon="-0.38068">
        <ele>168.37</ele>
        <time>2012-06-24T08:05:54Z</time>
      </trkpt>
      <trkpt lat="48.96501" lon="-0.38065">
        <ele>168.37</ele>
        <time>2012-06-24T08:05:55Z</time>
      </trkpt>
      <trkpt lat="48.96531" lon="-0.3803">
        <ele>165.96</ele>
        <time>2012-06-24T08:06:06Z</time>
      </trkpt>
      <trkpt lat="48.96554" lon="-0.38003">
        <ele>164.52</ele>
        <time>2012-06-24T08:06:17Z</time>
      </trkpt>
      <trkpt lat="48.96574" lon="-0.37982">
        <ele>162.12</ele>
        <time>2012-06-24T08:06:23Z</time>
      </trkpt>
      <trkpt lat="48.96581" lon="-0.37978">
        <ele>160.68</ele>
        <time>2012-06-24T08:06:25Z</time>
      </trkpt>
      <trkpt lat="48.96594" lon="-0.37977">
        <ele>158.27</ele>
        <time>2012-06-24T08:06:28Z</time>
      </trkpt>
      <trkpt lat="48.96599" lon="-0.37978">
        <ele>157.31</ele>
        <time>2012-06-24T08:06:29Z</time>
      </trkpt>
      <trkpt lat="48.96604" lon="-0.37981">
        <ele>155.87</ele>
        <time>2012-06-24T08:06:30Z</time>
      </trkpt>
      <trkpt lat="48.96628" lon="-0.38003">
        <ele>152.99</ele>
        <time>2012-06-24T08:06:37Z</time>
      </trkpt>
      <trkpt lat="48.96643" lon="-0.38027">
        <ele>150.58</ele>
        <time>2012-06-24T08:06:44Z</time>
      </trkpt>
      <trkpt lat="48.96665" lon="-0.38048">
        <ele>152.51</ele>
        <time>2012-06-24T08:06:55Z</time>
      </trkpt>
      <trkpt lat="48.96668" lon="-0.38048">
        <ele>153.95</ele>
        <time>2012-06-24T08:06:58Z</time>
      </trkpt>
      <trkpt lat="48.96677" lon="-0.38053">
        <ele>154.91</ele>
        <time>2012-06-24T08:07:03Z</time>
      </trkpt>
      <trkpt lat="48.96678" lon="-0.38056">
        <ele>154.91</ele>
        <time>2012-06-24T08:07:04Z</time>
      </trkpt>
      <trkpt lat="48.9668" lon="-0.38058">
        <ele>154.91</ele>
        <time>2012-06-24T08:07:05Z</time>
      </trkpt>
      <trkpt lat="48.96681" lon="-0.3806">
        <ele>155.39</ele>
        <time>2012-06-24T08:07:06Z</time>
      </trkpt>
      <trkpt lat="48.96683" lon="-0.38063">
        <ele>155.87</ele>
        <time>2012-06-24T08:07:07Z</time>
      </trkpt>
      <trkpt lat="48.96685" lon="-0.38065">
        <ele>155.87</ele>
        <time>2012-06-24T08:07:08Z</time>
      </trkpt>
      <trkpt lat="48.96687" lon="-0.38067">
        <ele>155.87</ele>
        <time>2012-06-24T08:07:09Z</time>
      </trkpt>
      <trkpt lat="48.96689" lon="-0.38069">
        <ele>156.35</ele>
        <time>2012-06-24T08:07:10Z</time>
      </trkpt>
      <trkpt lat="48.96691" lon="-0.38072">
        <ele>156.35</ele>
        <time>2012-06-24T08:07:11Z</time>
      </trkpt>
      <trkpt lat="48.96694" lon="-0.38074">
        <ele>156.35</ele>
        <time>2012-06-24T08:07:12Z</time>
      </trkpt>
      <trkpt lat="48.96696" lon="-0.38077">
        <ele>156.83</ele>
        <time>2012-06-24T08:07:13Z</time>
      </trkpt>
      <trkpt lat="48.96698" lon="-0.38079">
        <ele>156.83</ele>
        <time>2012-06-24T08:07:14Z</time>
      </trkpt>
      <trkpt lat="48.967" lon="-0.38082">
        <ele>157.31</ele>
        <time>2012-06-24T08:07:15Z</time>
      </trkpt>
      <trkpt lat="48.96702" lon="-0.38083">
        <ele>156.83</ele>
        <time>2012-06-24T08:07:16Z</time>
      </trkpt>
      <trkpt lat="48.96703" lon="-0.38085">
        <ele>156.83</ele>
        <time>2012-06-24T08:07:17Z</time>
      </trkpt>
      <trkpt lat="48.96713" lon="-0.38095">
        <ele>157.79</ele>
        <time>2012-06-24T08:07:23Z</time>
      </trkpt>
      <trkpt lat="48.96715" lon="-0.38097">
        <ele>158.27</ele>
        <time>2012-06-24T08:07:25Z</time>
      </trkpt>
      <trkpt lat="48.96717" lon="-0.38099">
        <ele>158.27</ele>
        <time>2012-06-24T08:07:26Z</time>
      </trkpt>
      <trkpt lat="48.96718" lon="-0.38102">
        <ele>158.27</ele>
        <time>2012-06-24T08:07:27Z</time>
      </trkpt>
      <trkpt lat="48.96719" lon="-0.38103">
        <ele>158.75</ele>
        <time>2012-06-24T08:07:28Z</time>
      </trkpt>
      <trkpt lat="48.96721" lon="-0.38104">
        <ele>158.75</ele>
        <time>2012-06-24T08:07:29Z</time>
      </trkpt>
      <trkpt lat="48.96723" lon="-0.38106">
        <ele>159.24</ele>
        <time>2012-06-24T08:07:30Z</time>
      </trkpt>
      <trkpt lat="48.96724" lon="-0.38108">
        <ele>159.24</ele>
        <time>2012-06-24T08:07:31Z</time>
      </trkpt>
      <trkpt lat="48.96726" lon="-0.3811">
        <ele>159.24</ele>
        <time>2012-06-24T08:07:32Z</time>
      </trkpt>
      <trkpt lat="48.96727" lon="-0.38111">
        <ele>158.75</ele>
        <time>2012-06-24T08:07:33Z</time>
      </trkpt>
      <trkpt lat="48.96729" lon="-0.38113">
        <ele>159.24</ele>
        <time>2012-06-24T08:07:34Z</time>
      </trkpt>
      <trkpt lat="48.96731" lon="-0.38115">
        <ele>159.72</ele>
        <time>2012-06-24T08:07:35Z</time>
      </trkpt>
      <trkpt lat="48.96733" lon="-0.38117">
        <ele>159.24</ele>
        <time>2012-06-24T08:07:36Z</time>
      </trkpt>
      <trkpt lat="48.96735" lon="-0.38119">
        <ele>159.72</ele>
        <time>2012-06-24T08:07:37Z</time>
      </trkpt>
      <trkpt lat="48.96737" lon="-0.38122">
        <ele>159.72</ele>
        <time>2012-06-24T08:07:38Z</time>
      </trkpt>
      <trkpt lat="48.9675" lon="-0.38134">
        <ele>161.16</ele>
        <time>2012-06-24T08:07:45Z</time>
      </trkpt>
      <trkpt lat="48.96752" lon="-0.38135">
        <ele>160.68</ele>
        <time>2012-06-24T08:07:46Z</time>
      </trkpt>
      <trkpt lat="48.96754" lon="-0.38136">
        <ele>160.68</ele>
        <time>2012-06-24T08:07:47Z</time>
      </trkpt>
      <trkpt lat="48.96765" lon="-0.38146">
        <ele>161.16</ele>
        <time>2012-06-24T08:07:54Z</time>
      </trkpt>
      <trkpt lat="48.96778" lon="-0.3816">
        <ele>161.64</ele>
        <time>2012-06-24T08:08:04Z</time>
      </trkpt>
      <trkpt lat="48.96794" lon="-0.38174">
        <ele>163.08</ele>
        <time>2012-06-24T08:08:12Z</time>
      </trkpt>
      <trkpt lat="48.96802" lon="-0.38179">
        <ele>162.6</ele>
        <time>2012-06-24T08:08:17Z</time>
      </trkpt>
      <trkpt lat="48.96806" lon="-0.38177">
        <ele>162.6</ele>
        <time>2012-06-24T08:08:19Z</time>
      </trkpt>
      <trkpt lat="48.96807" lon="-0.38175">
        <ele>163.08</ele>
        <time>2012-06-24T08:08:20Z</time>
      </trkpt>
      <trkpt lat="48.96808" lon="-0.38171">
        <ele>162.6</ele>
        <time>2012-06-24T08:08:21Z</time>
      </trkpt>
      <trkpt lat="48.96809" lon="-0.38168">
        <ele>162.6</ele>
        <time>2012-06-24T08:08:22Z</time>
      </trkpt>
      <trkpt lat="48.9681" lon="-0.38166">
        <ele>162.6</ele>
        <time>2012-06-24T08:08:23Z</time>
      </trkpt>
      <trkpt lat="48.96812" lon="-0.38163">
        <ele>162.12</ele>
        <time>2012-06-24T08:08:24Z</time>
      </trkpt>
      <trkpt lat="48.96814" lon="-0.3816">
        <ele>161.64</ele>
        <time>2012-06-24T08:08:25Z</time>
      </trkpt>
      <trkpt lat="48.96816" lon="-0.38157">
        <ele>162.6</ele>
        <time>2012-06-24T08:08:26Z</time>
      </trkpt>
      <trkpt lat="48.96838" lon="-0.38125">
        <ele>161.16</ele>
        <time>2012-06-24T08:08:37Z</time>
      </trkpt>
      <trkpt lat="48.96868" lon="-0.38093">
        <ele>162.12</ele>
        <time>2012-06-24T08:08:48Z</time>
      </trkpt>
      <trkpt lat="48.96883" lon="-0.38067">
        <ele>160.68</ele>
        <time>2012-06-24T08:08:57Z</time>
      </trkpt>
      <trkpt lat="48.96893" lon="-0.38051">
        <ele>161.16</ele>
        <time>2012-06-24T08:09:03Z</time>
      </trkpt>
      <trkpt lat="48.96895" lon="-0.38048">
        <ele>160.68</ele>
        <time>2012-06-24T08:09:04Z</time>
      </trkpt>
      <trkpt lat="48.96897" lon="-0.38045">
        <ele>161.16</ele>
        <time>2012-06-24T08:09:05Z</time>
      </trkpt>
      <trkpt lat="48.96899" lon="-0.38042">
        <ele>160.68</ele>
        <time>2012-06-24T08:09:06Z</time>
      </trkpt>
      <trkpt lat="48.96901" lon="-0.38038">
        <ele>160.68</ele>
        <time>2012-06-24T08:09:07Z</time>
      </trkpt>
      <trkpt lat="48.96904" lon="-0.38035">
        <ele>160.68</ele>
        <time>2012-06-24T08:09:08Z</time>
      </trkpt>
      <trkpt lat="48.96936" lon="-0.37992">
        <ele>160.2</ele>
        <time>2012-06-24T08:09:20Z</time>
      </trkpt>
      <trkpt lat="48.96953" lon="-0.37975">
        <ele>159.72</ele>
        <time>2012-06-24T08:09:25Z</time>
      </trkpt>
      <trkpt lat="48.9697" lon="-0.37961">
        <ele>159.24</ele>
        <time>2012-06-24T08:09:29Z</time>
      </trkpt>
      <trkpt lat="48.96986" lon="-0.37954">
        <ele>158.75</ele>
        <time>2012-06-24T08:09:32Z</time>
      </trkpt>
      <trkpt lat="48.97001" lon="-0.37951">
        <ele>159.24</ele>
        <time>2012-06-24T08:09:35Z</time>
      </trkpt>
      <trkpt lat="48.97005" lon="-0.3795">
        <ele>158.75</ele>
        <time>2012-06-24T08:09:36Z</time>
      </trkpt>
      <trkpt lat="48.9701" lon="-0.37949">
        <ele>158.75</ele>
        <time>2012-06-24T08:09:37Z</time>
      </trkpt>
      <trkpt lat="48.97059" lon="-0.37929">
        <ele>158.27</ele>
        <time>2012-06-24T08:09:46Z</time>
      </trkpt>
      <trkpt lat="48.97083" lon="-0.37926">
        <ele>158.27</ele>
        <time>2012-06-24T08:09:50Z</time>
      </trkpt>
      <trkpt lat="48.9713" lon="-0.37938">
        <ele>158.27</ele>
        <time>2012-06-24T08:09:58Z</time>
      </trkpt>
      <trkpt lat="48.97134" lon="-0.37938">
        <ele>158.27</ele>
        <time>2012-06-24T08:09:59Z</time>
      </trkpt>
      <trkpt lat="48.97138" lon="-0.37939">
        <ele>158.75</ele>
        <time>2012-06-24T08:10:00Z</time>
      </trkpt>
      <trkpt lat="48.9716" lon="-0.37941">
        <ele>158.75</ele>
        <time>2012-06-24T08:10:10Z</time>
      </trkpt>
      <trkpt lat="48.97171" lon="-0.37941">
        <ele>158.27</ele>
        <time>2012-06-24T08:10:14Z</time>
      </trkpt>
      <trkpt lat="48.97174" lon="-0.3794">
        <ele>157.79</ele>
        <time>2012-06-24T08:10:15Z</time>
      </trkpt>
      <trkpt lat="48.97201" lon="-0.37936">
        <ele>157.31</ele>
        <time>2012-06-24T08:10:22Z</time>
      </trkpt>
      <trkpt lat="48.97225" lon="-0.37932">
        <ele>155.87</ele>
        <time>2012-06-24T08:10:26Z</time>
      </trkpt>
      <trkpt lat="48.97228" lon="-0.37932">
        <ele>155.39</ele>
        <time>2012-06-24T08:10:27Z</time>
      </trkpt>
      <trkpt lat="48.97265" lon="-0.37942">
        <ele>154.43</ele>
        <time>2012-06-24T08:10:35Z</time>
      </trkpt>
      <trkpt lat="48.97282" lon="-0.37952">
        <ele>152.03</ele>
        <time>2012-06-24T08:10:39Z</time>
      </trkpt>
      <trkpt lat="48.97324" lon="-0.37982">
        <ele>152.03</ele>
        <time>2012-06-24T08:10:48Z</time>
      </trkpt>
      <trkpt lat="48.97329" lon="-0.37984">
        <ele>152.03</ele>
        <time>2012-06-24T08:10:49Z</time>
      </trkpt>
      <trkpt lat="48.97334" lon="-0.37984">
        <ele>152.51</ele>
        <time>2012-06-24T08:10:50Z</time>
      </trkpt>
      <trkpt lat="48.97377" lon="-0.37982">
        <ele>152.51</ele>
        <time>2012-06-24T08:10:58Z</time>
      </trkpt>
      <trkpt lat="48.97381" lon="-0.37979">
        <ele>152.99</ele>
        <time>2012-06-24T08:10:59Z</time>
      </trkpt>
      <trkpt lat="48.97385" lon="-0.37974">
        <ele>152.51</ele>
        <time>2012-06-24T08:11:00Z</time>
      </trkpt>
      <trkpt lat="48.97389" lon="-0.37969">
        <ele>152.51</ele>
        <time>2012-06-24T08:11:01Z</time>
      </trkpt>
      <trkpt lat="48.97392" lon="-0.37963">
        <ele>152.51</ele>
        <time>2012-06-24T08:11:02Z</time>
      </trkpt>
      <trkpt lat="48.97395" lon="-0.37956">
        <ele>152.03</ele>
        <time>2012-06-24T08:11:03Z</time>
      </trkpt>
      <trkpt lat="48.97398" lon="-0.3795">
        <ele>152.51</ele>
        <time>2012-06-24T08:11:04Z</time>
      </trkpt>
      <trkpt lat="48.97409" lon="-0.37918">
        <ele>151.54</ele>
        <time>2012-06-24T08:11:08Z</time>
      </trkpt>
      <trkpt lat="48.97411" lon="-0.37908">
        <ele>150.58</ele>
        <time>2012-06-24T08:11:09Z</time>
      </trkpt>
      <trkpt lat="48.97412" lon="-0.37898">
        <ele>150.1</ele>
        <time>2012-06-24T08:11:10Z</time>
      </trkpt>
      <trkpt lat="48.97413" lon="-0.37875">
        <ele>149.14</ele>
        <time>2012-06-24T08:11:12Z</time>
      </trkpt>
      <trkpt lat="48.97414" lon="-0.37742">
        <ele>149.14</ele>
        <time>2012-06-24T08:11:24Z</time>
      </trkpt>
      <trkpt lat="48.97419" lon="-0.37655">
        <ele>150.58</ele>
        <time>2012-06-24T08:11:33Z</time>
      </trkpt>
      <trkpt lat="48.97418" lon="-0.37646">
        <ele>150.1</ele>
        <time>2012-06-24T08:11:34Z</time>
      </trkpt>
      <trkpt lat="48.97417" lon="-0.37638">
        <ele>149.14</ele>
        <time>2012-06-24T08:11:35Z</time>
      </trkpt>
      <trkpt lat="48.97418" lon="-0.3763">
        <ele>150.1</ele>
        <time>2012-06-24T08:11:36Z</time>
      </trkpt>
      <trkpt lat="48.97421" lon="-0.37623">
        <ele>150.1</ele>
        <time>2012-06-24T08:11:37Z</time>
      </trkpt>
      <trkpt lat="48.97425" lon="-0.37618">
        <ele>150.1</ele>
        <time>2012-06-24T08:11:38Z</time>
      </trkpt>
      <trkpt lat="48.9743" lon="-0.37616">
        <ele>151.06</ele>
        <time>2012-06-24T08:11:39Z</time>
      </trkpt>
      <trkpt lat="48.97435" lon="-0.37615">
        <ele>151.06</ele>
        <time>2012-06-24T08:11:40Z</time>
      </trkpt>
      <trkpt lat="48.9744" lon="-0.37612">
        <ele>152.03</ele>
        <time>2012-06-24T08:11:41Z</time>
      </trkpt>
      <trkpt lat="48.97445" lon="-0.37608">
        <ele>152.03</ele>
        <time>2012-06-24T08:11:42Z</time>
      </trkpt>
      <trkpt lat="48.9745" lon="-0.37604">
        <ele>152.51</ele>
        <time>2012-06-24T08:11:43Z</time>
      </trkpt>
      <trkpt lat="48.97455" lon="-0.37602">
        <ele>152.99</ele>
        <time>2012-06-24T08:11:44Z</time>
      </trkpt>
      <trkpt lat="48.97465" lon="-0.37598">
        <ele>153.47</ele>
        <time>2012-06-24T08:11:46Z</time>
      </trkpt>
      <trkpt lat="48.9747" lon="-0.37597">
        <ele>153.95</ele>
        <time>2012-06-24T08:11:47Z</time>
      </trkpt>
      <trkpt lat="48.97486" lon="-0.37595">
        <ele>154.91</ele>
        <time>2012-06-24T08:11:50Z</time>
      </trkpt>
      <trkpt lat="48.97494" lon="-0.37596">
        <ele>155.39</ele>
        <time>2012-06-24T08:11:52Z</time>
      </trkpt>
      <trkpt lat="48.97498" lon="-0.37596">
        <ele>155.39</ele>
        <time>2012-06-24T08:11:53Z</time>
      </trkpt>
      <trkpt lat="48.97503" lon="-0.37595">
        <ele>156.35</ele>
        <time>2012-06-24T08:11:54Z</time>
      </trkpt>
      <trkpt lat="48.97507" lon="-0.37595">
        <ele>156.35</ele>
        <time>2012-06-24T08:11:55Z</time>
      </trkpt>
      <trkpt lat="48.97512" lon="-0.37596">
        <ele>155.87</ele>
        <time>2012-06-24T08:11:56Z</time>
      </trkpt>
      <trkpt lat="48.9756" lon="-0.37594">
        <ele>159.24</ele>
        <time>2012-06-24T08:12:07Z</time>
      </trkpt>
      <trkpt lat="48.97573" lon="-0.37591">
        <ele>159.72</ele>
        <time>2012-06-24T08:12:10Z</time>
      </trkpt>
      <trkpt lat="48.97585" lon="-0.37585">
        <ele>161.16</ele>
        <time>2012-06-24T08:12:13Z</time>
      </trkpt>
      <trkpt lat="48.97638" lon="-0.37559">
        <ele>163.56</ele>
        <time>2012-06-24T08:12:27Z</time>
      </trkpt>
      <trkpt lat="48.97695" lon="-0.37551">
        <ele>164.52</ele>
        <time>2012-06-24T08:12:41Z</time>
      </trkpt>
      <trkpt lat="48.97766" lon="-0.37566">
        <ele>165.96</ele>
        <time>2012-06-24T08:12:57Z</time>
      </trkpt>
      <trkpt lat="48.97783" lon="-0.37569">
        <ele>166.45</ele>
        <time>2012-06-24T08:13:01Z</time>
      </trkpt>
      <trkpt lat="48.97848" lon="-0.37585">
        <ele>169.81</ele>
        <time>2012-06-24T08:13:17Z</time>
      </trkpt>
      <trkpt lat="48.97895" lon="-0.37597">
        <ele>172.21</ele>
        <time>2012-06-24T08:13:30Z</time>
      </trkpt>
      <trkpt lat="48.97947" lon="-0.37606">
        <ele>174.14</ele>
        <time>2012-06-24T08:13:45Z</time>
      </trkpt>
      <trkpt lat="48.97991" lon="-0.37613">
        <ele>176.54</ele>
        <time>2012-06-24T08:13:58Z</time>
      </trkpt>
      <trkpt lat="48.98035" lon="-0.37624">
        <ele>177.5</ele>
        <time>2012-06-24T08:14:11Z</time>
      </trkpt>
      <trkpt lat="48.98095" lon="-0.37637">
        <ele>179.42</ele>
        <time>2012-06-24T08:14:28Z</time>
      </trkpt>
      <trkpt lat="48.98147" lon="-0.37648">
        <ele>180.87</ele>
        <time>2012-06-24T08:14:42Z</time>
      </trkpt>
      <trkpt lat="48.98202" lon="-0.37665">
        <ele>182.31</ele>
        <time>2012-06-24T08:14:56Z</time>
      </trkpt>
      <trkpt lat="48.98234" lon="-0.37674">
        <ele>182.31</ele>
        <time>2012-06-24T08:15:04Z</time>
      </trkpt>
      <trkpt lat="48.98273" lon="-0.37685">
        <ele>184.71</ele>
        <time>2012-06-24T08:15:14Z</time>
      </trkpt>
      <trkpt lat="48.98329" lon="-0.377">
        <ele>191.44</ele>
        <time>2012-06-24T08:15:28Z</time>
      </trkpt>
      <trkpt lat="48.98333" lon="-0.37701">
        <ele>184.23</ele>
        <time>2012-06-24T08:15:29Z</time>
      </trkpt>
      <trkpt lat="48.98373" lon="-0.37714">
        <ele>184.71</ele>
        <time>2012-06-24T08:15:39Z</time>
      </trkpt>
      <trkpt lat="48.9838" lon="-0.37715">
        <ele>185.19</ele>
        <time>2012-06-24T08:15:41Z</time>
      </trkpt>
      <trkpt lat="48.9842" lon="-0.37725">
        <ele>187.11</ele>
        <time>2012-06-24T08:15:53Z</time>
      </trkpt>
      <trkpt lat="48.98464" lon="-0.37739">
        <ele>186.63</ele>
        <time>2012-06-24T08:16:04Z</time>
      </trkpt>
      <trkpt lat="48.98508" lon="-0.37755">
        <ele>188.08</ele>
        <time>2012-06-24T08:16:14Z</time>
      </trkpt>
      <trkpt lat="48.98517" lon="-0.37757">
        <ele>189.04</ele>
        <time>2012-06-24T08:16:16Z</time>
      </trkpt>
      <trkpt lat="48.98521" lon="-0.37759">
        <ele>189.04</ele>
        <time>2012-06-24T08:16:17Z</time>
      </trkpt>
      <trkpt lat="48.98526" lon="-0.37761">
        <ele>189.04</ele>
        <time>2012-06-24T08:16:18Z</time>
      </trkpt>
      <trkpt lat="48.98539" lon="-0.37765">
        <ele>189.52</ele>
        <time>2012-06-24T08:16:21Z</time>
      </trkpt>
      <trkpt lat="48.98548" lon="-0.37767">
        <ele>189.52</ele>
        <time>2012-06-24T08:16:23Z</time>
      </trkpt>
      <trkpt lat="48.98592" lon="-0.37772">
        <ele>189.52</ele>
        <time>2012-06-24T08:16:32Z</time>
      </trkpt>
      <trkpt lat="48.98607" lon="-0.37773">
        <ele>189.52</ele>
        <time>2012-06-24T08:16:35Z</time>
      </trkpt>
      <trkpt lat="48.98639" lon="-0.37774">
        <ele>190.48</ele>
        <time>2012-06-24T08:16:42Z</time>
      </trkpt>
      <trkpt lat="48.98643" lon="-0.37771">
        <ele>190</ele>
        <time>2012-06-24T08:16:43Z</time>
      </trkpt>
      <trkpt lat="48.98646" lon="-0.37766">
        <ele>190</ele>
        <time>2012-06-24T08:16:44Z</time>
      </trkpt>
      <trkpt lat="48.98675" lon="-0.3773">
        <ele>190</ele>
        <time>2012-06-24T08:16:52Z</time>
      </trkpt>
      <trkpt lat="48.98686" lon="-0.37715">
        <ele>189.04</ele>
        <time>2012-06-24T08:16:55Z</time>
      </trkpt>
      <trkpt lat="48.98721" lon="-0.37664">
        <ele>189.04</ele>
        <time>2012-06-24T08:17:04Z</time>
      </trkpt>
      <trkpt lat="48.98724" lon="-0.37657">
        <ele>188.56</ele>
        <time>2012-06-24T08:17:05Z</time>
      </trkpt>
      <trkpt lat="48.98734" lon="-0.37635">
        <ele>188.56</ele>
        <time>2012-06-24T08:17:08Z</time>
      </trkpt>
      <trkpt lat="48.98761" lon="-0.37529">
        <ele>187.11</ele>
        <time>2012-06-24T08:17:20Z</time>
      </trkpt>
      <trkpt lat="48.98763" lon="-0.37519">
        <ele>186.63</ele>
        <time>2012-06-24T08:17:21Z</time>
      </trkpt>
      <trkpt lat="48.98777" lon="-0.37424">
        <ele>187.11</ele>
        <time>2012-06-24T08:17:31Z</time>
      </trkpt>
      <trkpt lat="48.9878" lon="-0.37415">
        <ele>186.15</ele>
        <time>2012-06-24T08:17:32Z</time>
      </trkpt>
      <trkpt lat="48.98792" lon="-0.37389">
        <ele>187.11</ele>
        <time>2012-06-24T08:17:35Z</time>
      </trkpt>
      <trkpt lat="48.98796" lon="-0.37382">
        <ele>186.63</ele>
        <time>2012-06-24T08:17:36Z</time>
      </trkpt>
      <trkpt lat="48.9888" lon="-0.37297">
        <ele>184.23</ele>
        <time>2012-06-24T08:17:49Z</time>
      </trkpt>
      <trkpt lat="48.98942" lon="-0.37184">
        <ele>180.38</ele>
        <time>2012-06-24T08:18:01Z</time>
      </trkpt>
      <trkpt lat="48.98948" lon="-0.37174">
        <ele>180.87</ele>
        <time>2012-06-24T08:18:02Z</time>
      </trkpt>
      <trkpt lat="48.98981" lon="-0.37123">
        <ele>177.98</ele>
        <time>2012-06-24T08:18:07Z</time>
      </trkpt>
      <trkpt lat="48.99013" lon="-0.37088">
        <ele>173.66</ele>
        <time>2012-06-24T08:18:11Z</time>
      </trkpt>
      <trkpt lat="48.99022" lon="-0.37081">
        <ele>173.66</ele>
        <time>2012-06-24T08:18:12Z</time>
      </trkpt>
      <trkpt lat="48.99048" lon="-0.37062">
        <ele>172.21</ele>
        <time>2012-06-24T08:18:15Z</time>
      </trkpt>
      <trkpt lat="48.99092" lon="-0.37032">
        <ele>167.89</ele>
        <time>2012-06-24T08:18:20Z</time>
      </trkpt>
      <trkpt lat="48.99132" lon="-0.37008">
        <ele>165</ele>
        <time>2012-06-24T08:18:24Z</time>
      </trkpt>
      <trkpt lat="48.99143" lon="-0.36999">
        <ele>165</ele>
        <time>2012-06-24T08:18:25Z</time>
      </trkpt>
      <trkpt lat="48.99233" lon="-0.36891">
        <ele>163.56</ele>
        <time>2012-06-24T08:18:35Z</time>
      </trkpt>
      <trkpt lat="48.99324" lon="-0.36756">
        <ele>164.04</ele>
        <time>2012-06-24T08:18:47Z</time>
      </trkpt>
      <trkpt lat="48.99326" lon="-0.36747">
        <ele>164.04</ele>
        <time>2012-06-24T08:18:48Z</time>
      </trkpt>
      <trkpt lat="48.99325" lon="-0.36738">
        <ele>164.04</ele>
        <time>2012-06-24T08:18:49Z</time>
      </trkpt>
      <trkpt lat="48.99322" lon="-0.36731">
        <ele>164.04</ele>
        <time>2012-06-24T08:18:50Z</time>
      </trkpt>
      <trkpt lat="48.99318" lon="-0.36724">
        <ele>163.56</ele>
        <time>2012-06-24T08:18:51Z</time>
      </trkpt>
      <trkpt lat="48.99314" lon="-0.36718">
        <ele>164.04</ele>
        <time>2012-06-24T08:18:52Z</time>
      </trkpt>
      <trkpt lat="48.99311" lon="-0.36711">
        <ele>163.56</ele>
        <time>2012-06-24T08:18:53Z</time>
      </trkpt>
      <trkpt lat="48.99276" lon="-0.36631">
        <ele>166.93</ele>
        <time>2012-06-24T08:19:05Z</time>
      </trkpt>
      <trkpt lat="48.99244" lon="-0.36557">
        <ele>169.81</ele>
        <time>2012-06-24T08:19:18Z</time>
      </trkpt>
      <trkpt lat="48.99212" lon="-0.36484">
        <ele>171.73</ele>
        <time>2012-06-24T08:19:32Z</time>
      </trkpt>
      <trkpt lat="48.99196" lon="-0.36442">
        <ele>171.25</ele>
        <time>2012-06-24T08:19:40Z</time>
      </trkpt>
      <trkpt lat="48.99195" lon="-0.36436">
        <ele>171.25</ele>
        <time>2012-06-24T08:19:41Z</time>
      </trkpt>
      <trkpt lat="48.99191" lon="-0.36424">
        <ele>170.77</ele>
        <time>2012-06-24T08:19:43Z</time>
      </trkpt>
      <trkpt lat="48.99174" lon="-0.36323">
        <ele>168.85</ele>
        <time>2012-06-24T08:19:56Z</time>
      </trkpt>
      <trkpt lat="48.99169" lon="-0.36297">
        <ele>153.47</ele>
        <time>2012-06-24T08:19:59Z</time>
      </trkpt>
      <trkpt lat="48.99168" lon="-0.36288">
        <ele>170.29</ele>
        <time>2012-06-24T08:20:00Z</time>
      </trkpt>
      <trkpt lat="48.99152" lon="-0.36191">
        <ele>166.45</ele>
        <time>2012-06-24T08:20:11Z</time>
      </trkpt>
      <trkpt lat="48.99127" lon="-0.36048">
        <ele>162.6</ele>
        <time>2012-06-24T08:20:25Z</time>
      </trkpt>
      <trkpt lat="48.99125" lon="-0.36037">
        <ele>162.6</ele>
        <time>2012-06-24T08:20:26Z</time>
      </trkpt>
      <trkpt lat="48.99115" lon="-0.35977">
        <ele>160.2</ele>
        <time>2012-06-24T08:20:31Z</time>
      </trkpt>
      <trkpt lat="48.99092" lon="-0.35841">
        <ele>157.31</ele>
        <time>2012-06-24T08:20:42Z</time>
      </trkpt>
      <trkpt lat="48.99058" lon="-0.35637">
        <ele>153.95</ele>
        <time>2012-06-24T08:20:58Z</time>
      </trkpt>
      <trkpt lat="48.99053" lon="-0.35611">
        <ele>152.99</ele>
        <time>2012-06-24T08:21:00Z</time>
      </trkpt>
      <trkpt lat="48.99041" lon="-0.35536">
        <ele>156.83</ele>
        <time>2012-06-24T08:21:06Z</time>
      </trkpt>
      <trkpt lat="48.99038" lon="-0.35523">
        <ele>152.51</ele>
        <time>2012-06-24T08:21:07Z</time>
      </trkpt>
      <trkpt lat="48.99026" lon="-0.35451">
        <ele>151.06</ele>
        <time>2012-06-24T08:21:13Z</time>
      </trkpt>
      <trkpt lat="48.99007" lon="-0.35338">
        <ele>149.62</ele>
        <time>2012-06-24T08:21:23Z</time>
      </trkpt>
      <trkpt lat="48.99004" lon="-0.35328">
        <ele>149.14</ele>
        <time>2012-06-24T08:21:24Z</time>
      </trkpt>
      <trkpt lat="48.99" lon="-0.35318">
        <ele>148.66</ele>
        <time>2012-06-24T08:21:25Z</time>
      </trkpt>
      <trkpt lat="48.98961" lon="-0.35204">
        <ele>145.3</ele>
        <time>2012-06-24T08:21:35Z</time>
      </trkpt>
      <trkpt lat="48.98925" lon="-0.35107">
        <ele>144.82</ele>
        <time>2012-06-24T08:21:44Z</time>
      </trkpt>
      <trkpt lat="48.98924" lon="-0.35099">
        <ele>144.34</ele>
        <time>2012-06-24T08:21:45Z</time>
      </trkpt>
      <trkpt lat="48.98925" lon="-0.3509">
        <ele>145.78</ele>
        <time>2012-06-24T08:21:46Z</time>
      </trkpt>
      <trkpt lat="48.98929" lon="-0.35083">
        <ele>146.26</ele>
        <time>2012-06-24T08:21:47Z</time>
      </trkpt>
      <trkpt lat="48.98933" lon="-0.35079">
        <ele>146.26</ele>
        <time>2012-06-24T08:21:48Z</time>
      </trkpt>
      <trkpt lat="48.98938" lon="-0.35074">
        <ele>146.74</ele>
        <time>2012-06-24T08:21:49Z</time>
      </trkpt>
      <trkpt lat="48.98975" lon="-0.35039">
        <ele>147.7</ele>
        <time>2012-06-24T08:21:56Z</time>
      </trkpt>
      <trkpt lat="48.98991" lon="-0.35024">
        <ele>146.26</ele>
        <time>2012-06-24T08:21:59Z</time>
      </trkpt>
      <trkpt lat="48.9906" lon="-0.3496">
        <ele>147.7</ele>
        <time>2012-06-24T08:22:13Z</time>
      </trkpt>
      <trkpt lat="48.99062" lon="-0.3496">
        <ele>148.18</ele>
        <time>2012-06-24T08:22:21Z</time>
      </trkpt>
      <trkpt lat="48.99062" lon="-0.3496">
        <ele>148.18</ele>
        <time>2012-06-24T08:22:41Z</time>
      </trkpt>
      <trkpt lat="48.99062" lon="-0.3496">
        <ele>148.66</ele>
        <time>2012-06-24T08:23:08Z</time>
      </trkpt>
      <trkpt lat="48.99064" lon="-0.34958">
        <ele>148.18</ele>
        <time>2012-06-24T08:23:29Z</time>
      </trkpt>
      <trkpt lat="48.99066" lon="-0.34956">
        <ele>148.18</ele>
        <time>2012-06-24T08:23:30Z</time>
      </trkpt>
      <trkpt lat="48.99068" lon="-0.34954">
        <ele>148.18</ele>
        <time>2012-06-24T08:23:31Z</time>
      </trkpt>
      <trkpt lat="48.99099" lon="-0.34926">
        <ele>148.18</ele>
        <time>2012-06-24T08:23:43Z</time>
      </trkpt>
      <trkpt lat="48.99106" lon="-0.34929">
        <ele>148.18</ele>
        <time>2012-06-24T08:23:45Z</time>
      </trkpt>
      <trkpt lat="48.99108" lon="-0.34931">
        <ele>148.18</ele>
        <time>2012-06-24T08:23:46Z</time>
      </trkpt>
      <trkpt lat="48.99126" lon="-0.34953">
        <ele>148.66</ele>
        <time>2012-06-24T08:23:53Z</time>
      </trkpt>
      <trkpt lat="48.99129" lon="-0.34953">
        <ele>149.62</ele>
        <time>2012-06-24T08:23:54Z</time>
      </trkpt>
      <trkpt lat="48.99131" lon="-0.3495">
        <ele>149.14</ele>
        <time>2012-06-24T08:23:55Z</time>
      </trkpt>
      <trkpt lat="48.99133" lon="-0.34947">
        <ele>148.66</ele>
        <time>2012-06-24T08:23:56Z</time>
      </trkpt>
      <trkpt lat="48.99135" lon="-0.34945">
        <ele>149.14</ele>
        <time>2012-06-24T08:23:57Z</time>
      </trkpt>
      <trkpt lat="48.99137" lon="-0.34942">
        <ele>148.66</ele>
        <time>2012-06-24T08:23:58Z</time>
      </trkpt>
      <trkpt lat="48.99139" lon="-0.34939">
        <ele>148.66</ele>
        <time>2012-06-24T08:23:59Z</time>
      </trkpt>
      <trkpt lat="48.99141" lon="-0.34937">
        <ele>148.66</ele>
        <time>2012-06-24T08:24:00Z</time>
      </trkpt>
      <trkpt lat="48.99144" lon="-0.34934">
        <ele>148.66</ele>
        <time>2012-06-24T08:24:01Z</time>
      </trkpt>
      <trkpt lat="48.99183" lon="-0.34893">
        <ele>145.3</ele>
        <time>2012-06-24T08:24:15Z</time>
      </trkpt>
      <trkpt lat="48.99186" lon="-0.34889">
        <ele>145.3</ele>
        <time>2012-06-24T08:24:16Z</time>
      </trkpt>
      <trkpt lat="48.99198" lon="-0.34876">
        <ele>143.85</ele>
        <time>2012-06-24T08:24:19Z</time>
      </trkpt>
      <trkpt lat="48.99215" lon="-0.34856">
        <ele>141.93</ele>
        <time>2012-06-24T08:24:23Z</time>
      </trkpt>
      <trkpt lat="48.99253" lon="-0.34809">
        <ele>139.05</ele>
        <time>2012-06-24T08:24:32Z</time>
      </trkpt>
      <trkpt lat="48.99277" lon="-0.3478">
        <ele>139.53</ele>
        <time>2012-06-24T08:24:39Z</time>
      </trkpt>
      <trkpt lat="48.99281" lon="-0.34777">
        <ele>139.53</ele>
        <time>2012-06-24T08:24:40Z</time>
      </trkpt>
      <trkpt lat="48.99284" lon="-0.34775">
        <ele>139.53</ele>
        <time>2012-06-24T08:24:41Z</time>
      </trkpt>
      <trkpt lat="48.99288" lon="-0.34774">
        <ele>140.49</ele>
        <time>2012-06-24T08:24:42Z</time>
      </trkpt>
      <trkpt lat="48.99292" lon="-0.34772">
        <ele>139.53</ele>
        <time>2012-06-24T08:24:43Z</time>
      </trkpt>
      <trkpt lat="48.99295" lon="-0.34771">
        <ele>140.01</ele>
        <time>2012-06-24T08:24:44Z</time>
      </trkpt>
      <trkpt lat="48.99298" lon="-0.34771">
        <ele>140.01</ele>
        <time>2012-06-24T08:24:45Z</time>
      </trkpt>
      <trkpt lat="48.99302" lon="-0.34771">
        <ele>140.01</ele>
        <time>2012-06-24T08:24:46Z</time>
      </trkpt>
      <trkpt lat="48.99305" lon="-0.34771">
        <ele>139.53</ele>
        <time>2012-06-24T08:24:47Z</time>
      </trkpt>
      <trkpt lat="48.99309" lon="-0.34771">
        <ele>140.49</ele>
        <time>2012-06-24T08:24:48Z</time>
      </trkpt>
      <trkpt lat="48.99335" lon="-0.34777">
        <ele>143.37</ele>
        <time>2012-06-24T08:24:58Z</time>
      </trkpt>
      <trkpt lat="48.99348" lon="-0.34785">
        <ele>146.26</ele>
        <time>2012-06-24T08:25:06Z</time>
      </trkpt>
      <trkpt lat="48.99357" lon="-0.34792">
        <ele>149.62</ele>
        <time>2012-06-24T08:25:14Z</time>
      </trkpt>
      <trkpt lat="48.99366" lon="-0.34796">
        <ele>150.58</ele>
        <time>2012-06-24T08:25:20Z</time>
      </trkpt>
      <trkpt lat="48.99371" lon="-0.34799">
        <ele>151.06</ele>
        <time>2012-06-24T08:25:23Z</time>
      </trkpt>
      <trkpt lat="48.99372" lon="-0.34799">
        <ele>152.03</ele>
        <time>2012-06-24T08:25:24Z</time>
      </trkpt>
      <trkpt lat="48.99374" lon="-0.348">
        <ele>151.54</ele>
        <time>2012-06-24T08:25:25Z</time>
      </trkpt>
      <trkpt lat="48.99392" lon="-0.34804">
        <ele>152.99</ele>
        <time>2012-06-24T08:25:36Z</time>
      </trkpt>
      <trkpt lat="48.9941" lon="-0.34797">
        <ele>156.35</ele>
        <time>2012-06-24T08:25:47Z</time>
      </trkpt>
      <trkpt lat="48.99423" lon="-0.34785">
        <ele>158.75</ele>
        <time>2012-06-24T08:26:01Z</time>
      </trkpt>
      <trkpt lat="48.99426" lon="-0.34782">
        <ele>159.24</ele>
        <time>2012-06-24T08:26:04Z</time>
      </trkpt>
      <trkpt lat="48.9944" lon="-0.34775">
        <ele>160.68</ele>
        <time>2012-06-24T08:26:16Z</time>
      </trkpt>
      <trkpt lat="48.99441" lon="-0.34775">
        <ele>161.64</ele>
        <time>2012-06-24T08:26:17Z</time>
      </trkpt>
      <trkpt lat="48.99455" lon="-0.34776">
        <ele>163.08</ele>
        <time>2012-06-24T08:26:30Z</time>
      </trkpt>
      <trkpt lat="48.99463" lon="-0.34778">
        <ele>164.04</ele>
        <time>2012-06-24T08:26:43Z</time>
      </trkpt>
      <trkpt lat="48.99474" lon="-0.3478">
        <ele>165.48</ele>
        <time>2012-06-24T08:26:53Z</time>
      </trkpt>
      <trkpt lat="48.99492" lon="-0.34781">
        <ele>167.89</ele>
        <time>2012-06-24T08:27:05Z</time>
      </trkpt>
      <trkpt lat="48.99497" lon="-0.34781">
        <ele>168.37</ele>
        <time>2012-06-24T08:27:09Z</time>
      </trkpt>
      <trkpt lat="48.99499" lon="-0.34781">
        <ele>169.33</ele>
        <time>2012-06-24T08:27:10Z</time>
      </trkpt>
      <trkpt lat="48.99501" lon="-0.34781">
        <ele>169.33</ele>
        <time>2012-06-24T08:27:11Z</time>
      </trkpt>
      <trkpt lat="48.99502" lon="-0.34782">
        <ele>168.85</ele>
        <time>2012-06-24T08:27:12Z</time>
      </trkpt>
      <trkpt lat="48.99522" lon="-0.34782">
        <ele>171.73</ele>
        <time>2012-06-24T08:27:26Z</time>
      </trkpt>
      <trkpt lat="48.99538" lon="-0.3478">
        <ele>173.66</ele>
        <time>2012-06-24T08:27:38Z</time>
      </trkpt>
      <trkpt lat="48.99548" lon="-0.34782">
        <ele>173.66</ele>
        <time>2012-06-24T08:27:44Z</time>
      </trkpt>
      <trkpt lat="48.99565" lon="-0.34778">
        <ele>176.06</ele>
        <time>2012-06-24T08:27:56Z</time>
      </trkpt>
      <trkpt lat="48.99571" lon="-0.34776">
        <ele>177.02</ele>
        <time>2012-06-24T08:28:00Z</time>
      </trkpt>
      <trkpt lat="48.99574" lon="-0.34776">
        <ele>176.54</ele>
        <time>2012-06-24T08:28:01Z</time>
      </trkpt>
      <trkpt lat="48.99575" lon="-0.34775">
        <ele>177.02</ele>
        <time>2012-06-24T08:28:02Z</time>
      </trkpt>
      <trkpt lat="48.99577" lon="-0.34773">
        <ele>177.02</ele>
        <time>2012-06-24T08:28:03Z</time>
      </trkpt>
      <trkpt lat="48.99579" lon="-0.34771">
        <ele>177.5</ele>
        <time>2012-06-24T08:28:04Z</time>
      </trkpt>
      <trkpt lat="48.9958" lon="-0.34769">
        <ele>177.5</ele>
        <time>2012-06-24T08:28:05Z</time>
      </trkpt>
      <trkpt lat="48.9958" lon="-0.34766">
        <ele>177.5</ele>
        <time>2012-06-24T08:28:06Z</time>
      </trkpt>
      <trkpt lat="48.99579" lon="-0.34765">
        <ele>177.98</ele>
        <time>2012-06-24T08:28:07Z</time>
      </trkpt>
      <trkpt lat="48.99577" lon="-0.34764">
        <ele>176.54</ele>
        <time>2012-06-24T08:28:08Z</time>
      </trkpt>
      <trkpt lat="48.99575" lon="-0.34764">
        <ele>177.02</ele>
        <time>2012-06-24T08:28:09Z</time>
      </trkpt>
      <trkpt lat="48.99546" lon="-0.34743">
        <ele>173.66</ele>
        <time>2012-06-24T08:28:18Z</time>
      </trkpt>
      <trkpt lat="48.99542" lon="-0.34739">
        <ele>172.21</ele>
        <time>2012-06-24T08:28:19Z</time>
      </trkpt>
      <trkpt lat="48.99537" lon="-0.34733">
        <ele>172.21</ele>
        <time>2012-06-24T08:28:20Z</time>
      </trkpt>
      <trkpt lat="48.99526" lon="-0.34722">
        <ele>170.29</ele>
        <time>2012-06-24T08:28:22Z</time>
      </trkpt>
      <trkpt lat="48.99496" lon="-0.34688">
        <ele>167.89</ele>
        <time>2012-06-24T08:28:27Z</time>
      </trkpt>
      <trkpt lat="48.99477" lon="-0.34665">
        <ele>165.96</ele>
        <time>2012-06-24T08:28:30Z</time>
      </trkpt>
      <trkpt lat="48.99444" lon="-0.34618">
        <ele>163.08</ele>
        <time>2012-06-24T08:28:35Z</time>
      </trkpt>
      <trkpt lat="48.9941" lon="-0.34566">
        <ele>160.2</ele>
        <time>2012-06-24T08:28:40Z</time>
      </trkpt>
      <trkpt lat="48.99404" lon="-0.34556">
        <ele>160.2</ele>
        <time>2012-06-24T08:28:41Z</time>
      </trkpt>
      <trkpt lat="48.99372" lon="-0.34504">
        <ele>158.27</ele>
        <time>2012-06-24T08:28:46Z</time>
      </trkpt>
      <trkpt lat="48.99342" lon="-0.34463">
        <ele>154.43</ele>
        <time>2012-06-24T08:28:50Z</time>
      </trkpt>
      <trkpt lat="48.99319" lon="-0.3443">
        <ele>152.99</ele>
        <time>2012-06-24T08:28:53Z</time>
      </trkpt>
      <trkpt lat="48.99303" lon="-0.34409">
        <ele>151.06</ele>
        <time>2012-06-24T08:28:55Z</time>
      </trkpt>
      <trkpt lat="48.9927" lon="-0.34368">
        <ele>149.14</ele>
        <time>2012-06-24T08:28:59Z</time>
      </trkpt>
      <trkpt lat="48.99215" lon="-0.34274">
        <ele>147.7</ele>
        <time>2012-06-24T08:29:07Z</time>
      </trkpt>
      <trkpt lat="48.99195" lon="-0.3422">
        <ele>147.22</ele>
        <time>2012-06-24T08:29:11Z</time>
      </trkpt>
      <trkpt lat="48.99144" lon="-0.34114">
        <ele>144.82</ele>
        <time>2012-06-24T08:29:20Z</time>
      </trkpt>
      <trkpt lat="48.99063" lon="-0.34037">
        <ele>145.3</ele>
        <time>2012-06-24T08:29:31Z</time>
      </trkpt>
      <trkpt lat="48.9905" lon="-0.34024">
        <ele>145.78</ele>
        <time>2012-06-24T08:29:33Z</time>
      </trkpt>
      <trkpt lat="48.99044" lon="-0.34016">
        <ele>146.26</ele>
        <time>2012-06-24T08:29:34Z</time>
      </trkpt>
      <trkpt lat="48.99039" lon="-0.34007">
        <ele>146.26</ele>
        <time>2012-06-24T08:29:35Z</time>
      </trkpt>
      <trkpt lat="48.99035" lon="-0.33999">
        <ele>146.26</ele>
        <time>2012-06-24T08:29:36Z</time>
      </trkpt>
      <trkpt lat="48.99032" lon="-0.33989">
        <ele>146.74</ele>
        <time>2012-06-24T08:29:37Z</time>
      </trkpt>
      <trkpt lat="48.9903" lon="-0.3398">
        <ele>146.74</ele>
        <time>2012-06-24T08:29:38Z</time>
      </trkpt>
      <trkpt lat="48.99028" lon="-0.3397">
        <ele>146.74</ele>
        <time>2012-06-24T08:29:39Z</time>
      </trkpt>
      <trkpt lat="48.99018" lon="-0.33931">
        <ele>145.3</ele>
        <time>2012-06-24T08:29:43Z</time>
      </trkpt>
      <trkpt lat="48.99012" lon="-0.33901">
        <ele>144.82</ele>
        <time>2012-06-24T08:29:46Z</time>
      </trkpt>
      <trkpt lat="48.99008" lon="-0.33892">
        <ele>144.34</ele>
        <time>2012-06-24T08:29:47Z</time>
      </trkpt>
      <trkpt lat="48.99003" lon="-0.33883">
        <ele>144.34</ele>
        <time>2012-06-24T08:29:48Z</time>
      </trkpt>
      <trkpt lat="48.98998" lon="-0.33875">
        <ele>142.89</ele>
        <time>2012-06-24T08:29:49Z</time>
      </trkpt>
      <trkpt lat="48.98992" lon="-0.33867">
        <ele>143.37</ele>
        <time>2012-06-24T08:29:50Z</time>
      </trkpt>
      <trkpt lat="48.98981" lon="-0.33849">
        <ele>140.01</ele>
        <time>2012-06-24T08:29:52Z</time>
      </trkpt>
      <trkpt lat="48.98962" lon="-0.33815">
        <ele>137.61</ele>
        <time>2012-06-24T08:29:56Z</time>
      </trkpt>
      <trkpt lat="48.98959" lon="-0.33806">
        <ele>137.61</ele>
        <time>2012-06-24T08:29:57Z</time>
      </trkpt>
      <trkpt lat="48.98957" lon="-0.33797">
        <ele>139.05</ele>
        <time>2012-06-24T08:29:58Z</time>
      </trkpt>
      <trkpt lat="48.98955" lon="-0.33787">
        <ele>139.05</ele>
        <time>2012-06-24T08:29:59Z</time>
      </trkpt>
      <trkpt lat="48.98954" lon="-0.33777">
        <ele>139.05</ele>
        <time>2012-06-24T08:30:00Z</time>
      </trkpt>
      <trkpt lat="48.98952" lon="-0.33722">
        <ele>140.49</ele>
        <time>2012-06-24T08:30:05Z</time>
      </trkpt>
      <trkpt lat="48.98954" lon="-0.33699">
        <ele>140.97</ele>
        <time>2012-06-24T08:30:07Z</time>
      </trkpt>
      <trkpt lat="48.9896" lon="-0.33554">
        <ele>141.45</ele>
        <time>2012-06-24T08:30:20Z</time>
      </trkpt>
      <trkpt lat="48.98963" lon="-0.33524">
        <ele>141.45</ele>
        <time>2012-06-24T08:30:23Z</time>
      </trkpt>
      <trkpt lat="48.98971" lon="-0.33497">
        <ele>141.93</ele>
        <time>2012-06-24T08:30:26Z</time>
      </trkpt>
      <trkpt lat="48.98984" lon="-0.33461">
        <ele>144.82</ele>
        <time>2012-06-24T08:30:31Z</time>
      </trkpt>
      <trkpt lat="48.99007" lon="-0.33386">
        <ele>147.7</ele>
        <time>2012-06-24T08:30:42Z</time>
      </trkpt>
      <trkpt lat="48.99012" lon="-0.33365">
        <ele>147.22</ele>
        <time>2012-06-24T08:30:45Z</time>
      </trkpt>
      <trkpt lat="48.9902" lon="-0.33332">
        <ele>148.18</ele>
        <time>2012-06-24T08:30:50Z</time>
      </trkpt>
      <trkpt lat="48.99022" lon="-0.33326">
        <ele>148.66</ele>
        <time>2012-06-24T08:30:51Z</time>
      </trkpt>
      <trkpt lat="48.99023" lon="-0.33319">
        <ele>148.66</ele>
        <time>2012-06-24T08:30:52Z</time>
      </trkpt>
      <trkpt lat="48.99031" lon="-0.33265">
        <ele>151.54</ele>
        <time>2012-06-24T08:31:01Z</time>
      </trkpt>
      <trkpt lat="48.99045" lon="-0.33194">
        <ele>155.39</ele>
        <time>2012-06-24T08:31:14Z</time>
      </trkpt>
      <trkpt lat="48.99087" lon="-0.33133">
        <ele>158.27</ele>
        <time>2012-06-24T08:31:30Z</time>
      </trkpt>
      <trkpt lat="48.99134" lon="-0.33104">
        <ele>161.64</ele>
        <time>2012-06-24T08:31:44Z</time>
      </trkpt>
      <trkpt lat="48.99138" lon="-0.33102">
        <ele>161.64</ele>
        <time>2012-06-24T08:31:45Z</time>
      </trkpt>
      <trkpt lat="48.99191" lon="-0.33081">
        <ele>163.08</ele>
        <time>2012-06-24T08:32:00Z</time>
      </trkpt>
      <trkpt lat="48.99241" lon="-0.3306">
        <ele>163.56</ele>
        <time>2012-06-24T08:32:14Z</time>
      </trkpt>
      <trkpt lat="48.99304" lon="-0.33033">
        <ele>160.68</ele>
        <time>2012-06-24T08:32:28Z</time>
      </trkpt>
      <trkpt lat="48.99316" lon="-0.33026">
        <ele>158.75</ele>
        <time>2012-06-24T08:32:30Z</time>
      </trkpt>
      <trkpt lat="48.99321" lon="-0.33019">
        <ele>158.27</ele>
        <time>2012-06-24T08:32:31Z</time>
      </trkpt>
      <trkpt lat="48.99325" lon="-0.3301">
        <ele>157.79</ele>
        <time>2012-06-24T08:32:32Z</time>
      </trkpt>
      <trkpt lat="48.99326" lon="-0.33">
        <ele>155.87</ele>
        <time>2012-06-24T08:32:33Z</time>
      </trkpt>
      <trkpt lat="48.99326" lon="-0.3299">
        <ele>155.87</ele>
        <time>2012-06-24T08:32:34Z</time>
      </trkpt>
      <trkpt lat="48.99324" lon="-0.32979">
        <ele>154.91</ele>
        <time>2012-06-24T08:32:35Z</time>
      </trkpt>
      <trkpt lat="48.99323" lon="-0.32969">
        <ele>154.43</ele>
        <time>2012-06-24T08:32:36Z</time>
      </trkpt>
      <trkpt lat="48.99321" lon="-0.32959">
        <ele>154.43</ele>
        <time>2012-06-24T08:32:37Z</time>
      </trkpt>
      <trkpt lat="48.99319" lon="-0.32947">
        <ele>154.43</ele>
        <time>2012-06-24T08:32:38Z</time>
      </trkpt>
      <trkpt lat="48.99318" lon="-0.32935">
        <ele>153.47</ele>
        <time>2012-06-24T08:32:39Z</time>
      </trkpt>
      <trkpt lat="48.99319" lon="-0.32923">
        <ele>152.99</ele>
        <time>2012-06-24T08:32:40Z</time>
      </trkpt>
      <trkpt lat="48.99323" lon="-0.32911">
        <ele>151.06</ele>
        <time>2012-06-24T08:32:41Z</time>
      </trkpt>
      <trkpt lat="48.99328" lon="-0.329">
        <ele>150.58</ele>
        <time>2012-06-24T08:32:42Z</time>
      </trkpt>
      <trkpt lat="48.99334" lon="-0.32891">
        <ele>151.54</ele>
        <time>2012-06-24T08:32:43Z</time>
      </trkpt>
      <trkpt lat="48.99383" lon="-0.32824">
        <ele>147.7</ele>
        <time>2012-06-24T08:32:51Z</time>
      </trkpt>
      <trkpt lat="48.99427" lon="-0.32756">
        <ele>147.7</ele>
        <time>2012-06-24T08:32:59Z</time>
      </trkpt>
      <trkpt lat="48.99436" lon="-0.32741">
        <ele>148.18</ele>
        <time>2012-06-24T08:33:04Z</time>
      </trkpt>
      <trkpt lat="48.99431" lon="-0.32751">
        <ele>148.18</ele>
        <time>2012-06-24T08:33:13Z</time>
      </trkpt>
      <trkpt lat="48.99428" lon="-0.32756">
        <ele>148.18</ele>
        <time>2012-06-24T08:33:15Z</time>
      </trkpt>
      <trkpt lat="48.99406" lon="-0.32795">
        <ele>148.66</ele>
        <time>2012-06-24T08:33:27Z</time>
      </trkpt>
      <trkpt lat="48.99378" lon="-0.32833">
        <ele>150.1</ele>
        <time>2012-06-24T08:33:40Z</time>
      </trkpt>
      <trkpt lat="48.99351" lon="-0.3287">
        <ele>151.06</ele>
        <time>2012-06-24T08:33:53Z</time>
      </trkpt>
      <trkpt lat="48.99323" lon="-0.32914">
        <ele>152.51</ele>
        <time>2012-06-24T08:34:08Z</time>
      </trkpt>
      <trkpt lat="48.9932" lon="-0.32953">
        <ele>153.47</ele>
        <time>2012-06-24T08:34:17Z</time>
      </trkpt>
      <trkpt lat="48.99325" lon="-0.3299">
        <ele>156.83</ele>
        <time>2012-06-24T08:34:26Z</time>
      </trkpt>
      <trkpt lat="48.99325" lon="-0.32994">
        <ele>156.83</ele>
        <time>2012-06-24T08:34:27Z</time>
      </trkpt>
      <trkpt lat="48.99313" lon="-0.33031">
        <ele>159.24</ele>
        <time>2012-06-24T08:34:38Z</time>
      </trkpt>
      <trkpt lat="48.99302" lon="-0.33036">
        <ele>160.2</ele>
        <time>2012-06-24T08:34:42Z</time>
      </trkpt>
      <trkpt lat="48.99253" lon="-0.33058">
        <ele>162.12</ele>
        <time>2012-06-24T08:34:59Z</time>
      </trkpt>
      <trkpt lat="48.99205" lon="-0.33078">
        <ele>162.12</ele>
        <time>2012-06-24T08:35:14Z</time>
      </trkpt>
      <trkpt lat="48.99164" lon="-0.33093">
        <ele>161.64</ele>
        <time>2012-06-24T08:35:25Z</time>
      </trkpt>
      <trkpt lat="48.99135" lon="-0.33106">
        <ele>159.24</ele>
        <time>2012-06-24T08:35:31Z</time>
      </trkpt>
      <trkpt lat="48.9913" lon="-0.33109">
        <ele>159.24</ele>
        <time>2012-06-24T08:35:32Z</time>
      </trkpt>
      <trkpt lat="48.99125" lon="-0.33111">
        <ele>158.75</ele>
        <time>2012-06-24T08:35:33Z</time>
      </trkpt>
      <trkpt lat="48.9912" lon="-0.33114">
        <ele>158.27</ele>
        <time>2012-06-24T08:35:34Z</time>
      </trkpt>
      <trkpt lat="48.99074" lon="-0.33143">
        <ele>153.95</ele>
        <time>2012-06-24T08:35:42Z</time>
      </trkpt>
      <trkpt lat="48.99068" lon="-0.33149">
        <ele>154.43</ele>
        <time>2012-06-24T08:35:43Z</time>
      </trkpt>
      <trkpt lat="48.99063" lon="-0.33155">
        <ele>153.47</ele>
        <time>2012-06-24T08:35:44Z</time>
      </trkpt>
      <trkpt lat="48.99058" lon="-0.33163">
        <ele>153.47</ele>
        <time>2012-06-24T08:35:45Z</time>
      </trkpt>
      <trkpt lat="48.99053" lon="-0.33171">
        <ele>153.47</ele>
        <time>2012-06-24T08:35:46Z</time>
      </trkpt>
      <trkpt lat="48.99048" lon="-0.33179">
        <ele>152.51</ele>
        <time>2012-06-24T08:35:47Z</time>
      </trkpt>
      <trkpt lat="48.99044" lon="-0.33188">
        <ele>152.03</ele>
        <time>2012-06-24T08:35:48Z</time>
      </trkpt>
      <trkpt lat="48.99041" lon="-0.33198">
        <ele>151.54</ele>
        <time>2012-06-24T08:35:49Z</time>
      </trkpt>
      <trkpt lat="48.99038" lon="-0.33208">
        <ele>151.54</ele>
        <time>2012-06-24T08:35:50Z</time>
      </trkpt>
      <trkpt lat="48.99031" lon="-0.33241">
        <ele>149.14</ele>
        <time>2012-06-24T08:35:53Z</time>
      </trkpt>
      <trkpt lat="48.99022" lon="-0.33322">
        <ele>149.14</ele>
        <time>2012-06-24T08:36:01Z</time>
      </trkpt>
      <trkpt lat="48.99008" lon="-0.33381">
        <ele>146.26</ele>
        <time>2012-06-24T08:36:13Z</time>
      </trkpt>
      <trkpt lat="48.98997" lon="-0.33428">
        <ele>145.3</ele>
        <time>2012-06-24T08:36:20Z</time>
      </trkpt>
      <trkpt lat="48.98986" lon="-0.33459">
        <ele>142.89</ele>
        <time>2012-06-24T08:36:24Z</time>
      </trkpt>
      <trkpt lat="48.98971" lon="-0.33503">
        <ele>141.93</ele>
        <time>2012-06-24T08:36:29Z</time>
      </trkpt>
      <trkpt lat="48.98959" lon="-0.33559">
        <ele>141.45</ele>
        <time>2012-06-24T08:36:38Z</time>
      </trkpt>
      <trkpt lat="48.98958" lon="-0.33594">
        <ele>141.93</ele>
        <time>2012-06-24T08:36:44Z</time>
      </trkpt>
      <trkpt lat="48.98955" lon="-0.33675">
        <ele>142.89</ele>
        <time>2012-06-24T08:36:57Z</time>
      </trkpt>
      <trkpt lat="48.98951" lon="-0.33714">
        <ele>141.45</ele>
        <time>2012-06-24T08:37:03Z</time>
      </trkpt>
      <trkpt lat="48.9895" lon="-0.3372">
        <ele>141.93</ele>
        <time>2012-06-24T08:37:04Z</time>
      </trkpt>
      <trkpt lat="48.9895" lon="-0.33727">
        <ele>141.45</ele>
        <time>2012-06-24T08:37:05Z</time>
      </trkpt>
      <trkpt lat="48.98949" lon="-0.3374">
        <ele>140.49</ele>
        <time>2012-06-24T08:37:07Z</time>
      </trkpt>
      <trkpt lat="48.98949" lon="-0.33746">
        <ele>141.93</ele>
        <time>2012-06-24T08:37:08Z</time>
      </trkpt>
      <trkpt lat="48.98949" lon="-0.33752">
        <ele>141.45</ele>
        <time>2012-06-24T08:37:09Z</time>
      </trkpt>
      <trkpt lat="48.9895" lon="-0.33765">
        <ele>140.97</ele>
        <time>2012-06-24T08:37:11Z</time>
      </trkpt>
      <trkpt lat="48.98951" lon="-0.33772">
        <ele>140.97</ele>
        <time>2012-06-24T08:37:12Z</time>
      </trkpt>
      <trkpt lat="48.98953" lon="-0.33784">
        <ele>140.97</ele>
        <time>2012-06-24T08:37:14Z</time>
      </trkpt>
      <trkpt lat="48.98954" lon="-0.3379">
        <ele>140.01</ele>
        <time>2012-06-24T08:37:15Z</time>
      </trkpt>
      <trkpt lat="48.9896" lon="-0.33812">
        <ele>140.01</ele>
        <time>2012-06-24T08:37:20Z</time>
      </trkpt>
      <trkpt lat="48.98963" lon="-0.33813">
        <ele>140.97</ele>
        <time>2012-06-24T08:37:21Z</time>
      </trkpt>
      <trkpt lat="48.98965" lon="-0.33812">
        <ele>140.01</ele>
        <time>2012-06-24T08:37:22Z</time>
      </trkpt>
      <trkpt lat="48.98967" lon="-0.33811">
        <ele>140.97</ele>
        <time>2012-06-24T08:37:23Z</time>
      </trkpt>
      <trkpt lat="48.98968" lon="-0.33809">
        <ele>141.45</ele>
        <time>2012-06-24T08:37:24Z</time>
      </trkpt>
      <trkpt lat="48.9897" lon="-0.33808">
        <ele>141.93</ele>
        <time>2012-06-24T08:37:25Z</time>
      </trkpt>
      <trkpt lat="48.98972" lon="-0.33806">
        <ele>142.89</ele>
        <time>2012-06-24T08:37:26Z</time>
      </trkpt>
      <trkpt lat="48.98974" lon="-0.33805">
        <ele>141.93</ele>
        <time>2012-06-24T08:37:27Z</time>
      </trkpt>
      <trkpt lat="48.98975" lon="-0.33804">
        <ele>142.41</ele>
        <time>2012-06-24T08:37:28Z</time>
      </trkpt>
      <trkpt lat="48.98977" lon="-0.33804">
        <ele>142.41</ele>
        <time>2012-06-24T08:37:29Z</time>
      </trkpt>
      <trkpt lat="48.9898" lon="-0.33803">
        <ele>141.93</ele>
        <time>2012-06-24T08:37:30Z</time>
      </trkpt>
      <trkpt lat="48.98981" lon="-0.33803">
        <ele>142.41</ele>
        <time>2012-06-24T08:37:31Z</time>
      </trkpt>
      <trkpt lat="48.98983" lon="-0.33802">
        <ele>142.41</ele>
        <time>2012-06-24T08:37:32Z</time>
      </trkpt>
      <trkpt lat="48.9899" lon="-0.338">
        <ele>142.41</ele>
        <time>2012-06-24T08:37:35Z</time>
      </trkpt>
      <trkpt lat="48.99018" lon="-0.33785">
        <ele>145.78</ele>
        <time>2012-06-24T08:37:49Z</time>
      </trkpt>
      <trkpt lat="48.99043" lon="-0.33776">
        <ele>147.22</ele>
        <time>2012-06-24T08:38:00Z</time>
      </trkpt>
      <trkpt lat="48.99075" lon="-0.33761">
        <ele>150.1</ele>
        <time>2012-06-24T08:38:15Z</time>
      </trkpt>
      <trkpt lat="48.9909" lon="-0.33753">
        <ele>151.54</ele>
        <time>2012-06-24T08:38:24Z</time>
      </trkpt>
      <trkpt lat="48.99106" lon="-0.33745">
        <ele>153.47</ele>
        <time>2012-06-24T08:38:37Z</time>
      </trkpt>
      <trkpt lat="48.99119" lon="-0.33739">
        <ele>153.95</ele>
        <time>2012-06-24T08:38:53Z</time>
      </trkpt>
      <trkpt lat="48.99132" lon="-0.33732">
        <ele>155.87</ele>
        <time>2012-06-24T08:39:07Z</time>
      </trkpt>
      <trkpt lat="48.99134" lon="-0.33729">
        <ele>155.87</ele>
        <time>2012-06-24T08:39:09Z</time>
      </trkpt>
      <trkpt lat="48.99136" lon="-0.33728">
        <ele>156.35</ele>
        <time>2012-06-24T08:39:10Z</time>
      </trkpt>
      <trkpt lat="48.99138" lon="-0.33727">
        <ele>155.87</ele>
        <time>2012-06-24T08:39:11Z</time>
      </trkpt>
      <trkpt lat="48.9915" lon="-0.33719">
        <ele>157.79</ele>
        <time>2012-06-24T08:39:19Z</time>
      </trkpt>
      <trkpt lat="48.99157" lon="-0.33715">
        <ele>159.24</ele>
        <time>2012-06-24T08:39:24Z</time>
      </trkpt>
      <trkpt lat="48.99159" lon="-0.33714">
        <ele>159.72</ele>
        <time>2012-06-24T08:39:25Z</time>
      </trkpt>
      <trkpt lat="48.99161" lon="-0.33714">
        <ele>160.2</ele>
        <time>2012-06-24T08:39:26Z</time>
      </trkpt>
      <trkpt lat="48.99176" lon="-0.33706">
        <ele>162.6</ele>
        <time>2012-06-24T08:39:39Z</time>
      </trkpt>
      <trkpt lat="48.99192" lon="-0.33691">
        <ele>164.52</ele>
        <time>2012-06-24T08:39:52Z</time>
      </trkpt>
      <trkpt lat="48.99193" lon="-0.33689">
        <ele>165.48</ele>
        <time>2012-06-24T08:39:53Z</time>
      </trkpt>
      <trkpt lat="48.99195" lon="-0.33687">
        <ele>165</ele>
        <time>2012-06-24T08:39:54Z</time>
      </trkpt>
      <trkpt lat="48.99197" lon="-0.33684">
        <ele>166.45</ele>
        <time>2012-06-24T08:39:55Z</time>
      </trkpt>
      <trkpt lat="48.99199" lon="-0.33682">
        <ele>165.96</ele>
        <time>2012-06-24T08:39:56Z</time>
      </trkpt>
      <trkpt lat="48.99203" lon="-0.33678">
        <ele>165.96</ele>
        <time>2012-06-24T08:39:59Z</time>
      </trkpt>
      <trkpt lat="48.99207" lon="-0.33673">
        <ele>166.45</ele>
        <time>2012-06-24T08:40:02Z</time>
      </trkpt>
      <trkpt lat="48.99225" lon="-0.33652">
        <ele>169.33</ele>
        <time>2012-06-24T08:40:14Z</time>
      </trkpt>
      <trkpt lat="48.99226" lon="-0.33651">
        <ele>168.37</ele>
        <time>2012-06-24T08:40:15Z</time>
      </trkpt>
      <trkpt lat="48.99244" lon="-0.33634">
        <ele>170.29</ele>
        <time>2012-06-24T08:40:27Z</time>
      </trkpt>
      <trkpt lat="48.9926" lon="-0.33623">
        <ele>171.73</ele>
        <time>2012-06-24T08:40:37Z</time>
      </trkpt>
      <trkpt lat="48.99266" lon="-0.33618">
        <ele>171.25</ele>
        <time>2012-06-24T08:40:41Z</time>
      </trkpt>
      <trkpt lat="48.99268" lon="-0.33618">
        <ele>172.21</ele>
        <time>2012-06-24T08:40:42Z</time>
      </trkpt>
      <trkpt lat="48.9927" lon="-0.33617">
        <ele>172.21</ele>
        <time>2012-06-24T08:40:43Z</time>
      </trkpt>
      <trkpt lat="48.99292" lon="-0.3361">
        <ele>173.17</ele>
        <time>2012-06-24T08:40:54Z</time>
      </trkpt>
      <trkpt lat="48.99294" lon="-0.3361">
        <ele>173.17</ele>
        <time>2012-06-24T08:40:55Z</time>
      </trkpt>
      <trkpt lat="48.99296" lon="-0.33611">
        <ele>172.69</ele>
        <time>2012-06-24T08:40:56Z</time>
      </trkpt>
      <trkpt lat="48.99304" lon="-0.33614">
        <ele>173.17</ele>
        <time>2012-06-24T08:41:00Z</time>
      </trkpt>
      <trkpt lat="48.99312" lon="-0.33616">
        <ele>173.66</ele>
        <time>2012-06-24T08:41:04Z</time>
      </trkpt>
      <trkpt lat="48.99314" lon="-0.33617">
        <ele>174.14</ele>
        <time>2012-06-24T08:41:05Z</time>
      </trkpt>
      <trkpt lat="48.99316" lon="-0.33618">
        <ele>174.14</ele>
        <time>2012-06-24T08:41:06Z</time>
      </trkpt>
      <trkpt lat="48.99318" lon="-0.33619">
        <ele>174.62</ele>
        <time>2012-06-24T08:41:07Z</time>
      </trkpt>
      <trkpt lat="48.99321" lon="-0.3362">
        <ele>174.14</ele>
        <time>2012-06-24T08:41:08Z</time>
      </trkpt>
      <trkpt lat="48.99323" lon="-0.33622">
        <ele>174.14</ele>
        <time>2012-06-24T08:41:09Z</time>
      </trkpt>
      <trkpt lat="48.99346" lon="-0.3363">
        <ele>174.14</ele>
        <time>2012-06-24T08:41:19Z</time>
      </trkpt>
      <trkpt lat="48.99363" lon="-0.33642">
        <ele>175.1</ele>
        <time>2012-06-24T08:41:26Z</time>
      </trkpt>
      <trkpt lat="48.99365" lon="-0.33643">
        <ele>174.62</ele>
        <time>2012-06-24T08:41:27Z</time>
      </trkpt>
      <trkpt lat="48.99366" lon="-0.33644">
        <ele>174.14</ele>
        <time>2012-06-24T08:41:28Z</time>
      </trkpt>
      <trkpt lat="48.99367" lon="-0.33645">
        <ele>174.62</ele>
        <time>2012-06-24T08:41:29Z</time>
      </trkpt>
      <trkpt lat="48.9937" lon="-0.33646">
        <ele>174.62</ele>
        <time>2012-06-24T08:41:30Z</time>
      </trkpt>
      <trkpt lat="48.99372" lon="-0.33648">
        <ele>174.62</ele>
        <time>2012-06-24T08:41:31Z</time>
      </trkpt>
      <trkpt lat="48.99434" lon="-0.33674">
        <ele>173.66</ele>
        <time>2012-06-24T08:41:46Z</time>
      </trkpt>
      <trkpt lat="48.9945" lon="-0.3368">
        <ele>174.14</ele>
        <time>2012-06-24T08:41:52Z</time>
      </trkpt>
      <trkpt lat="48.99452" lon="-0.33682">
        <ele>173.66</ele>
        <time>2012-06-24T08:41:53Z</time>
      </trkpt>
      <trkpt lat="48.99455" lon="-0.33683">
        <ele>174.14</ele>
        <time>2012-06-24T08:41:54Z</time>
      </trkpt>
      <trkpt lat="48.99457" lon="-0.33683">
        <ele>173.66</ele>
        <time>2012-06-24T08:41:55Z</time>
      </trkpt>
      <trkpt lat="48.9946" lon="-0.33684">
        <ele>174.14</ele>
        <time>2012-06-24T08:41:56Z</time>
      </trkpt>
      <trkpt lat="48.99462" lon="-0.33685">
        <ele>174.62</ele>
        <time>2012-06-24T08:41:57Z</time>
      </trkpt>
      <trkpt lat="48.99469" lon="-0.33686">
        <ele>174.14</ele>
        <time>2012-06-24T08:42:00Z</time>
      </trkpt>
      <trkpt lat="48.99503" lon="-0.33704">
        <ele>174.14</ele>
        <time>2012-06-24T08:42:10Z</time>
      </trkpt>
      <trkpt lat="48.99536" lon="-0.33712">
        <ele>174.14</ele>
        <time>2012-06-24T08:42:21Z</time>
      </trkpt>
      <trkpt lat="48.99584" lon="-0.33725">
        <ele>174.62</ele>
        <time>2012-06-24T08:42:32Z</time>
      </trkpt>
      <trkpt lat="48.99636" lon="-0.33739">
        <ele>174.14</ele>
        <time>2012-06-24T08:42:44Z</time>
      </trkpt>
      <trkpt lat="48.99686" lon="-0.33756">
        <ele>173.66</ele>
        <time>2012-06-24T08:42:55Z</time>
      </trkpt>
      <trkpt lat="48.99744" lon="-0.33765">
        <ele>173.17</ele>
        <time>2012-06-24T08:43:06Z</time>
      </trkpt>
      <trkpt lat="48.99749" lon="-0.33766">
        <ele>172.69</ele>
        <time>2012-06-24T08:43:07Z</time>
      </trkpt>
      <trkpt lat="48.99765" lon="-0.33767">
        <ele>171.73</ele>
        <time>2012-06-24T08:43:12Z</time>
      </trkpt>
      <trkpt lat="48.998" lon="-0.33777">
        <ele>172.21</ele>
        <time>2012-06-24T08:43:22Z</time>
      </trkpt>
      <trkpt lat="48.99833" lon="-0.33784">
        <ele>171.25</ele>
        <time>2012-06-24T08:43:32Z</time>
      </trkpt>
      <trkpt lat="48.99864" lon="-0.3379">
        <ele>170.77</ele>
        <time>2012-06-24T08:43:42Z</time>
      </trkpt>
      <trkpt lat="48.99896" lon="-0.33797">
        <ele>170.29</ele>
        <time>2012-06-24T08:43:54Z</time>
      </trkpt>
      <trkpt lat="48.99898" lon="-0.33797">
        <ele>169.33</ele>
        <time>2012-06-24T08:43:55Z</time>
      </trkpt>
      <trkpt lat="48.99931" lon="-0.33803">
        <ele>168.85</ele>
        <time>2012-06-24T08:44:06Z</time>
      </trkpt>
      <trkpt lat="48.99977" lon="-0.3381">
        <ele>166.93</ele>
        <time>2012-06-24T08:44:16Z</time>
      </trkpt>
      <trkpt lat="48.99981" lon="-0.33812">
        <ele>167.41</ele>
        <time>2012-06-24T08:44:17Z</time>
      </trkpt>
      <trkpt lat="49.00035" lon="-0.33822">
        <ele>166.45</ele>
        <time>2012-06-24T08:44:30Z</time>
      </trkpt>
      <trkpt lat="49.00059" lon="-0.33817">
        <ele>166.45</ele>
        <time>2012-06-24T08:44:36Z</time>
      </trkpt>
      <trkpt lat="49.0007" lon="-0.33815">
        <ele>165.96</ele>
        <time>2012-06-24T08:44:38Z</time>
      </trkpt>
      <trkpt lat="49.00087" lon="-0.33811">
        <ele>165</ele>
        <time>2012-06-24T08:44:41Z</time>
      </trkpt>
      <trkpt lat="49.00092" lon="-0.33809">
        <ele>165</ele>
        <time>2012-06-24T08:44:42Z</time>
      </trkpt>
      <trkpt lat="49.00098" lon="-0.33808">
        <ele>165</ele>
        <time>2012-06-24T08:44:43Z</time>
      </trkpt>
      <trkpt lat="49.00103" lon="-0.33806">
        <ele>164.04</ele>
        <time>2012-06-24T08:44:44Z</time>
      </trkpt>
      <trkpt lat="49.00108" lon="-0.33804">
        <ele>165</ele>
        <time>2012-06-24T08:44:45Z</time>
      </trkpt>
      <trkpt lat="49.00114" lon="-0.33802">
        <ele>164.52</ele>
        <time>2012-06-24T08:44:46Z</time>
      </trkpt>
      <trkpt lat="49.00125" lon="-0.33799">
        <ele>164.52</ele>
        <time>2012-06-24T08:44:48Z</time>
      </trkpt>
      <trkpt lat="49.0013" lon="-0.33798">
        <ele>164.04</ele>
        <time>2012-06-24T08:44:49Z</time>
      </trkpt>
      <trkpt lat="49.00183" lon="-0.33784">
        <ele>163.56</ele>
        <time>2012-06-24T08:44:58Z</time>
      </trkpt>
      <trkpt lat="49.0023" lon="-0.33773">
        <ele>163.56</ele>
        <time>2012-06-24T08:45:06Z</time>
      </trkpt>
      <trkpt lat="49.00235" lon="-0.33771">
        <ele>163.56</ele>
        <time>2012-06-24T08:45:07Z</time>
      </trkpt>
      <trkpt lat="49.00282" lon="-0.33761">
        <ele>164.04</ele>
        <time>2012-06-24T08:45:18Z</time>
      </trkpt>
      <trkpt lat="49.00286" lon="-0.33765">
        <ele>164.52</ele>
        <time>2012-06-24T08:45:20Z</time>
      </trkpt>
      <trkpt lat="49.00289" lon="-0.3377">
        <ele>163.56</ele>
        <time>2012-06-24T08:45:21Z</time>
      </trkpt>
      <trkpt lat="49.00291" lon="-0.33776">
        <ele>164.04</ele>
        <time>2012-06-24T08:45:22Z</time>
      </trkpt>
      <trkpt lat="49.00292" lon="-0.33781">
        <ele>163.56</ele>
        <time>2012-06-24T08:45:23Z</time>
      </trkpt>
      <trkpt lat="49.00295" lon="-0.33786">
        <ele>164.04</ele>
        <time>2012-06-24T08:45:24Z</time>
      </trkpt>
      <trkpt lat="49.00299" lon="-0.33792">
        <ele>164.04</ele>
        <time>2012-06-24T08:45:25Z</time>
      </trkpt>
      <trkpt lat="49.00303" lon="-0.338">
        <ele>163.56</ele>
        <time>2012-06-24T08:45:26Z</time>
      </trkpt>
      <trkpt lat="49.00312" lon="-0.33821">
        <ele>163.08</ele>
        <time>2012-06-24T08:45:29Z</time>
      </trkpt>
      <trkpt lat="49.0032" lon="-0.33834">
        <ele>163.08</ele>
        <time>2012-06-24T08:45:31Z</time>
      </trkpt>
      <trkpt lat="49.00322" lon="-0.3384">
        <ele>163.08</ele>
        <time>2012-06-24T08:45:32Z</time>
      </trkpt>
      <trkpt lat="49.00326" lon="-0.33847">
        <ele>163.08</ele>
        <time>2012-06-24T08:45:33Z</time>
      </trkpt>
      <trkpt lat="49.00359" lon="-0.33935">
        <ele>164.04</ele>
        <time>2012-06-24T08:45:45Z</time>
      </trkpt>
      <trkpt lat="49.00363" lon="-0.33947">
        <ele>164.52</ele>
        <time>2012-06-24T08:45:47Z</time>
      </trkpt>
      <trkpt lat="49.00372" lon="-0.33979">
        <ele>167.41</ele>
        <time>2012-06-24T08:45:52Z</time>
      </trkpt>
      <trkpt lat="49.00373" lon="-0.33986">
        <ele>166.93</ele>
        <time>2012-06-24T08:45:53Z</time>
      </trkpt>
      <trkpt lat="49.00376" lon="-0.33999">
        <ele>167.41</ele>
        <time>2012-06-24T08:45:55Z</time>
      </trkpt>
      <trkpt lat="49.00378" lon="-0.34005">
        <ele>165.48</ele>
        <time>2012-06-24T08:45:56Z</time>
      </trkpt>
      <trkpt lat="49.00381" lon="-0.3401">
        <ele>166.93</ele>
        <time>2012-06-24T08:45:57Z</time>
      </trkpt>
      <trkpt lat="49.00385" lon="-0.34016">
        <ele>165.96</ele>
        <time>2012-06-24T08:45:58Z</time>
      </trkpt>
      <trkpt lat="49.00388" lon="-0.34021">
        <ele>167.89</ele>
        <time>2012-06-24T08:45:59Z</time>
      </trkpt>
      <trkpt lat="49.00391" lon="-0.34027">
        <ele>167.41</ele>
        <time>2012-06-24T08:46:00Z</time>
      </trkpt>
      <trkpt lat="49.00394" lon="-0.34033">
        <ele>167.41</ele>
        <time>2012-06-24T08:46:01Z</time>
      </trkpt>
      <trkpt lat="49.004" lon="-0.34044">
        <ele>168.85</ele>
        <time>2012-06-24T08:46:03Z</time>
      </trkpt>
      <trkpt lat="49.00451" lon="-0.34128">
        <ele>170.77</ele>
        <time>2012-06-24T08:46:19Z</time>
      </trkpt>
      <trkpt lat="49.00464" lon="-0.34149">
        <ele>169.33</ele>
        <time>2012-06-24T08:46:23Z</time>
      </trkpt>
      <trkpt lat="49.00468" lon="-0.34154">
        <ele>170.77</ele>
        <time>2012-06-24T08:46:24Z</time>
      </trkpt>
      <trkpt lat="49.00512" lon="-0.34225">
        <ele>170.77</ele>
        <time>2012-06-24T08:46:38Z</time>
      </trkpt>
      <trkpt lat="49.0052" lon="-0.34235">
        <ele>169.81</ele>
        <time>2012-06-24T08:46:40Z</time>
      </trkpt>
      <trkpt lat="49.00528" lon="-0.34243">
        <ele>169.81</ele>
        <time>2012-06-24T08:46:42Z</time>
      </trkpt>
      <trkpt lat="49.00533" lon="-0.34245">
        <ele>170.29</ele>
        <time>2012-06-24T08:46:43Z</time>
      </trkpt>
      <trkpt lat="49.00543" lon="-0.34249">
        <ele>169.81</ele>
        <time>2012-06-24T08:46:45Z</time>
      </trkpt>
      <trkpt lat="49.00582" lon="-0.34261">
        <ele>169.81</ele>
        <time>2012-06-24T08:46:51Z</time>
      </trkpt>
      <trkpt lat="49.0061" lon="-0.34271">
        <ele>167.89</ele>
        <time>2012-06-24T08:46:55Z</time>
      </trkpt>
      <trkpt lat="49.00701" lon="-0.34304">
        <ele>164.52</ele>
        <time>2012-06-24T08:47:07Z</time>
      </trkpt>
      <trkpt lat="49.00726" lon="-0.34315">
        <ele>163.08</ele>
        <time>2012-06-24T08:47:10Z</time>
      </trkpt>
      <trkpt lat="49.00777" lon="-0.34338">
        <ele>161.16</ele>
        <time>2012-06-24T08:47:16Z</time>
      </trkpt>
      <trkpt lat="49.00853" lon="-0.34349">
        <ele>158.27</ele>
        <time>2012-06-24T08:47:24Z</time>
      </trkpt>
      <trkpt lat="49.00957" lon="-0.34303">
        <ele>156.35</ele>
        <time>2012-06-24T08:47:35Z</time>
      </trkpt>
      <trkpt lat="49.00965" lon="-0.34299">
        <ele>155.39</ele>
        <time>2012-06-24T08:47:36Z</time>
      </trkpt>
      <trkpt lat="49.00972" lon="-0.34296">
        <ele>155.87</ele>
        <time>2012-06-24T08:47:37Z</time>
      </trkpt>
      <trkpt lat="49.00978" lon="-0.34296">
        <ele>155.87</ele>
        <time>2012-06-24T08:47:38Z</time>
      </trkpt>
      <trkpt lat="49.00983" lon="-0.34298">
        <ele>154.91</ele>
        <time>2012-06-24T08:47:39Z</time>
      </trkpt>
      <trkpt lat="49.00986" lon="-0.34303">
        <ele>154.91</ele>
        <time>2012-06-24T08:47:40Z</time>
      </trkpt>
      <trkpt lat="49.00987" lon="-0.34311">
        <ele>153.95</ele>
        <time>2012-06-24T08:47:41Z</time>
      </trkpt>
      <trkpt lat="49.00986" lon="-0.34319">
        <ele>151.54</ele>
        <time>2012-06-24T08:47:42Z</time>
      </trkpt>
      <trkpt lat="49.00985" lon="-0.34328">
        <ele>152.51</ele>
        <time>2012-06-24T08:47:43Z</time>
      </trkpt>
      <trkpt lat="49.00983" lon="-0.34338">
        <ele>152.51</ele>
        <time>2012-06-24T08:47:44Z</time>
      </trkpt>
      <trkpt lat="49.00982" lon="-0.34348">
        <ele>152.03</ele>
        <time>2012-06-24T08:47:45Z</time>
      </trkpt>
      <trkpt lat="49.0098" lon="-0.34366">
        <ele>151.06</ele>
        <time>2012-06-24T08:47:47Z</time>
      </trkpt>
      <trkpt lat="49.00971" lon="-0.34475">
        <ele>153.95</ele>
        <time>2012-06-24T08:47:59Z</time>
      </trkpt>
      <trkpt lat="49.00968" lon="-0.34619">
        <ele>151.06</ele>
        <time>2012-06-24T08:48:14Z</time>
      </trkpt>
      <trkpt lat="49.00968" lon="-0.34636">
        <ele>152.03</ele>
        <time>2012-06-24T08:48:16Z</time>
      </trkpt>
      <trkpt lat="49.00969" lon="-0.34645">
        <ele>152.03</ele>
        <time>2012-06-24T08:48:17Z</time>
      </trkpt>
      <trkpt lat="49.00971" lon="-0.34653">
        <ele>152.03</ele>
        <time>2012-06-24T08:48:18Z</time>
      </trkpt>
      <trkpt lat="49.00975" lon="-0.34659">
        <ele>151.54</ele>
        <time>2012-06-24T08:48:19Z</time>
      </trkpt>
      <trkpt lat="49.0098" lon="-0.34661">
        <ele>152.99</ele>
        <time>2012-06-24T08:48:20Z</time>
      </trkpt>
      <trkpt lat="49.00985" lon="-0.34657">
        <ele>153.47</ele>
        <time>2012-06-24T08:48:21Z</time>
      </trkpt>
      <trkpt lat="49.0099" lon="-0.34651">
        <ele>152.51</ele>
        <time>2012-06-24T08:48:22Z</time>
      </trkpt>
      <trkpt lat="49.00994" lon="-0.34644">
        <ele>152.51</ele>
        <time>2012-06-24T08:48:23Z</time>
      </trkpt>
      <trkpt lat="49.00999" lon="-0.34637">
        <ele>152.03</ele>
        <time>2012-06-24T08:48:24Z</time>
      </trkpt>
      <trkpt lat="49.01029" lon="-0.34596">
        <ele>151.06</ele>
        <time>2012-06-24T08:48:30Z</time>
      </trkpt>
      <trkpt lat="49.01082" lon="-0.34535">
        <ele>149.14</ele>
        <time>2012-06-24T08:48:39Z</time>
      </trkpt>
      <trkpt lat="49.01119" lon="-0.34493">
        <ele>148.66</ele>
        <time>2012-06-24T08:48:45Z</time>
      </trkpt>
      <trkpt lat="49.01125" lon="-0.34485">
        <ele>147.22</ele>
        <time>2012-06-24T08:48:46Z</time>
      </trkpt>
      <trkpt lat="49.01131" lon="-0.34478">
        <ele>146.74</ele>
        <time>2012-06-24T08:48:47Z</time>
      </trkpt>
      <trkpt lat="49.01138" lon="-0.34473">
        <ele>146.74</ele>
        <time>2012-06-24T08:48:48Z</time>
      </trkpt>
      <trkpt lat="49.01144" lon="-0.34468">
        <ele>146.26</ele>
        <time>2012-06-24T08:48:49Z</time>
      </trkpt>
      <trkpt lat="49.01151" lon="-0.34465">
        <ele>145.78</ele>
        <time>2012-06-24T08:48:50Z</time>
      </trkpt>
      <trkpt lat="49.01159" lon="-0.34461">
        <ele>145.3</ele>
        <time>2012-06-24T08:48:51Z</time>
      </trkpt>
      <trkpt lat="49.01177" lon="-0.34452">
        <ele>144.34</ele>
        <time>2012-06-24T08:48:53Z</time>
      </trkpt>
      <trkpt lat="49.01203" lon="-0.34434">
        <ele>142.41</ele>
        <time>2012-06-24T08:48:56Z</time>
      </trkpt>
      <trkpt lat="49.01239" lon="-0.34413">
        <ele>142.89</ele>
        <time>2012-06-24T08:49:00Z</time>
      </trkpt>
      <trkpt lat="49.01249" lon="-0.34413">
        <ele>142.89</ele>
        <time>2012-06-24T08:49:01Z</time>
      </trkpt>
      <trkpt lat="49.01268" lon="-0.34414">
        <ele>140.97</ele>
        <time>2012-06-24T08:49:03Z</time>
      </trkpt>
      <trkpt lat="49.01278" lon="-0.34411">
        <ele>140.49</ele>
        <time>2012-06-24T08:49:04Z</time>
      </trkpt>
      <trkpt lat="49.01286" lon="-0.34405">
        <ele>140.49</ele>
        <time>2012-06-24T08:49:05Z</time>
      </trkpt>
      <trkpt lat="49.01294" lon="-0.34397">
        <ele>139.53</ele>
        <time>2012-06-24T08:49:06Z</time>
      </trkpt>
      <trkpt lat="49.01302" lon="-0.34387">
        <ele>140.49</ele>
        <time>2012-06-24T08:49:07Z</time>
      </trkpt>
      <trkpt lat="49.01308" lon="-0.34377">
        <ele>140.01</ele>
        <time>2012-06-24T08:49:08Z</time>
      </trkpt>
      <trkpt lat="49.01315" lon="-0.34365">
        <ele>138.09</ele>
        <time>2012-06-24T08:49:09Z</time>
      </trkpt>
      <trkpt lat="49.01321" lon="-0.34353">
        <ele>138.09</ele>
        <time>2012-06-24T08:49:10Z</time>
      </trkpt>
      <trkpt lat="49.01329" lon="-0.34342">
        <ele>138.57</ele>
        <time>2012-06-24T08:49:11Z</time>
      </trkpt>
      <trkpt lat="49.01337" lon="-0.34334">
        <ele>138.57</ele>
        <time>2012-06-24T08:49:12Z</time>
      </trkpt>
      <trkpt lat="49.0144" lon="-0.34246">
        <ele>137.61</ele>
        <time>2012-06-24T08:49:25Z</time>
      </trkpt>
      <trkpt lat="49.01471" lon="-0.34224">
        <ele>136.64</ele>
        <time>2012-06-24T08:49:29Z</time>
      </trkpt>
      <trkpt lat="49.01477" lon="-0.34216">
        <ele>136.16</ele>
        <time>2012-06-24T08:49:30Z</time>
      </trkpt>
      <trkpt lat="49.01481" lon="-0.34207">
        <ele>136.64</ele>
        <time>2012-06-24T08:49:31Z</time>
      </trkpt>
      <trkpt lat="49.01483" lon="-0.34196">
        <ele>136.16</ele>
        <time>2012-06-24T08:49:32Z</time>
      </trkpt>
      <trkpt lat="49.01484" lon="-0.34185">
        <ele>136.16</ele>
        <time>2012-06-24T08:49:33Z</time>
      </trkpt>
      <trkpt lat="49.01483" lon="-0.34174">
        <ele>136.16</ele>
        <time>2012-06-24T08:49:34Z</time>
      </trkpt>
      <trkpt lat="49.01482" lon="-0.34152">
        <ele>136.16</ele>
        <time>2012-06-24T08:49:36Z</time>
      </trkpt>
      <trkpt lat="49.0148" lon="-0.34141">
        <ele>136.64</ele>
        <time>2012-06-24T08:49:37Z</time>
      </trkpt>
      <trkpt lat="49.01478" lon="-0.34131">
        <ele>136.64</ele>
        <time>2012-06-24T08:49:38Z</time>
      </trkpt>
      <trkpt lat="49.01475" lon="-0.34122">
        <ele>137.61</ele>
        <time>2012-06-24T08:49:39Z</time>
      </trkpt>
      <trkpt lat="49.01472" lon="-0.34113">
        <ele>139.53</ele>
        <time>2012-06-24T08:49:40Z</time>
      </trkpt>
      <trkpt lat="49.01469" lon="-0.34104">
        <ele>139.53</ele>
        <time>2012-06-24T08:49:41Z</time>
      </trkpt>
      <trkpt lat="49.01464" lon="-0.34088">
        <ele>140.97</ele>
        <time>2012-06-24T08:49:43Z</time>
      </trkpt>
      <trkpt lat="49.01449" lon="-0.34042">
        <ele>142.41</ele>
        <time>2012-06-24T08:49:49Z</time>
      </trkpt>
      <trkpt lat="49.01446" lon="-0.34036">
        <ele>142.89</ele>
        <time>2012-06-24T08:49:50Z</time>
      </trkpt>
      <trkpt lat="49.01416" lon="-0.33933">
        <ele>144.34</ele>
        <time>2012-06-24T08:50:04Z</time>
      </trkpt>
      <trkpt lat="49.01417" lon="-0.33927">
        <ele>144.82</ele>
        <time>2012-06-24T08:50:05Z</time>
      </trkpt>
      <trkpt lat="49.0142" lon="-0.33922">
        <ele>144.34</ele>
        <time>2012-06-24T08:50:06Z</time>
      </trkpt>
      <trkpt lat="49.01425" lon="-0.33919">
        <ele>144.82</ele>
        <time>2012-06-24T08:50:07Z</time>
      </trkpt>
      <trkpt lat="49.0143" lon="-0.33916">
        <ele>144.82</ele>
        <time>2012-06-24T08:50:08Z</time>
      </trkpt>
      <trkpt lat="49.01485" lon="-0.33887">
        <ele>143.85</ele>
        <time>2012-06-24T08:50:18Z</time>
      </trkpt>
      <trkpt lat="49.01509" lon="-0.3388">
        <ele>142.41</ele>
        <time>2012-06-24T08:50:22Z</time>
      </trkpt>
      <trkpt lat="49.01527" lon="-0.33878">
        <ele>142.41</ele>
        <time>2012-06-24T08:50:25Z</time>
      </trkpt>
      <trkpt lat="49.01568" lon="-0.33882">
        <ele>142.41</ele>
        <time>2012-06-24T08:50:32Z</time>
      </trkpt>
      <trkpt lat="49.01575" lon="-0.33881">
        <ele>142.41</ele>
        <time>2012-06-24T08:50:33Z</time>
      </trkpt>
      <trkpt lat="49.01581" lon="-0.33878">
        <ele>142.41</ele>
        <time>2012-06-24T08:50:34Z</time>
      </trkpt>
      <trkpt lat="49.01587" lon="-0.33874">
        <ele>141.93</ele>
        <time>2012-06-24T08:50:35Z</time>
      </trkpt>
      <trkpt lat="49.01593" lon="-0.33868">
        <ele>142.41</ele>
        <time>2012-06-24T08:50:36Z</time>
      </trkpt>
      <trkpt lat="49.01607" lon="-0.33849">
        <ele>141.45</ele>
        <time>2012-06-24T08:50:39Z</time>
      </trkpt>
      <trkpt lat="49.01645" lon="-0.33793">
        <ele>140.97</ele>
        <time>2012-06-24T08:50:48Z</time>
      </trkpt>
      <trkpt lat="49.01664" lon="-0.33774">
        <ele>140.01</ele>
        <time>2012-06-24T08:50:52Z</time>
      </trkpt>
      <trkpt lat="49.01678" lon="-0.33763">
        <ele>140.01</ele>
        <time>2012-06-24T08:50:55Z</time>
      </trkpt>
      <trkpt lat="49.01683" lon="-0.33759">
        <ele>140.01</ele>
        <time>2012-06-24T08:50:56Z</time>
      </trkpt>
      <trkpt lat="49.01688" lon="-0.33754">
        <ele>138.57</ele>
        <time>2012-06-24T08:50:57Z</time>
      </trkpt>
      <trkpt lat="49.01716" lon="-0.33726">
        <ele>138.57</ele>
        <time>2012-06-24T08:51:03Z</time>
      </trkpt>
      <trkpt lat="49.01737" lon="-0.33714">
        <ele>138.09</ele>
        <time>2012-06-24T08:51:07Z</time>
      </trkpt>
      <trkpt lat="49.01768" lon="-0.33699">
        <ele>137.13</ele>
        <time>2012-06-24T08:51:12Z</time>
      </trkpt>
      <trkpt lat="49.01773" lon="-0.33695">
        <ele>137.61</ele>
        <time>2012-06-24T08:51:13Z</time>
      </trkpt>
      <trkpt lat="49.01777" lon="-0.33691">
        <ele>137.61</ele>
        <time>2012-06-24T08:51:14Z</time>
      </trkpt>
      <trkpt lat="49.0179" lon="-0.33674">
        <ele>135.68</ele>
        <time>2012-06-24T08:51:17Z</time>
      </trkpt>
      <trkpt lat="49.01793" lon="-0.33667">
        <ele>135.68</ele>
        <time>2012-06-24T08:51:18Z</time>
      </trkpt>
      <trkpt lat="49.01796" lon="-0.3366">
        <ele>135.68</ele>
        <time>2012-06-24T08:51:19Z</time>
      </trkpt>
      <trkpt lat="49.018" lon="-0.33653">
        <ele>135.68</ele>
        <time>2012-06-24T08:51:20Z</time>
      </trkpt>
      <trkpt lat="49.01803" lon="-0.33646">
        <ele>135.68</ele>
        <time>2012-06-24T08:51:21Z</time>
      </trkpt>
      <trkpt lat="49.01808" lon="-0.33631">
        <ele>135.68</ele>
        <time>2012-06-24T08:51:23Z</time>
      </trkpt>
      <trkpt lat="49.0181" lon="-0.33625">
        <ele>135.2</ele>
        <time>2012-06-24T08:51:24Z</time>
      </trkpt>
      <trkpt lat="49.01818" lon="-0.33605">
        <ele>135.2</ele>
        <time>2012-06-24T08:51:27Z</time>
      </trkpt>
      <trkpt lat="49.01824" lon="-0.33594">
        <ele>135.2</ele>
        <time>2012-06-24T08:51:29Z</time>
      </trkpt>
      <trkpt lat="49.0184" lon="-0.33548">
        <ele>134.72</ele>
        <time>2012-06-24T08:51:35Z</time>
      </trkpt>
      <trkpt lat="49.01841" lon="-0.3354">
        <ele>135.2</ele>
        <time>2012-06-24T08:51:36Z</time>
      </trkpt>
      <trkpt lat="49.0184" lon="-0.33533">
        <ele>134.72</ele>
        <time>2012-06-24T08:51:37Z</time>
      </trkpt>
      <trkpt lat="49.01833" lon="-0.33507">
        <ele>134.72</ele>
        <time>2012-06-24T08:51:41Z</time>
      </trkpt>
      <trkpt lat="49.01817" lon="-0.33476">
        <ele>134.72</ele>
        <time>2012-06-24T08:51:47Z</time>
      </trkpt>
      <trkpt lat="49.01814" lon="-0.33472">
        <ele>134.24</ele>
        <time>2012-06-24T08:51:48Z</time>
      </trkpt>
      <trkpt lat="49.01811" lon="-0.33465">
        <ele>135.2</ele>
        <time>2012-06-24T08:51:49Z</time>
      </trkpt>
      <trkpt lat="49.01782" lon="-0.33398">
        <ele>136.16</ele>
        <time>2012-06-24T08:52:00Z</time>
      </trkpt>
      <trkpt lat="49.01776" lon="-0.33387">
        <ele>136.64</ele>
        <time>2012-06-24T08:52:02Z</time>
      </trkpt>
      <trkpt lat="49.01773" lon="-0.33382">
        <ele>136.16</ele>
        <time>2012-06-24T08:52:03Z</time>
      </trkpt>
      <trkpt lat="49.01746" lon="-0.33332">
        <ele>138.09</ele>
        <time>2012-06-24T08:52:14Z</time>
      </trkpt>
      <trkpt lat="49.0172" lon="-0.3328">
        <ele>139.53</ele>
        <time>2012-06-24T08:52:25Z</time>
      </trkpt>
      <trkpt lat="49.01686" lon="-0.33221">
        <ele>140.49</ele>
        <time>2012-06-24T08:52:39Z</time>
      </trkpt>
      <trkpt lat="49.01654" lon="-0.33156">
        <ele>141.45</ele>
        <time>2012-06-24T08:52:54Z</time>
      </trkpt>
      <trkpt lat="49.0161" lon="-0.33075">
        <ele>141.45</ele>
        <time>2012-06-24T08:53:12Z</time>
      </trkpt>
      <trkpt lat="49.01567" lon="-0.32991">
        <ele>142.41</ele>
        <time>2012-06-24T08:53:30Z</time>
      </trkpt>
      <trkpt lat="49.01521" lon="-0.32903">
        <ele>142.89</ele>
        <time>2012-06-24T08:53:48Z</time>
      </trkpt>
      <trkpt lat="49.01519" lon="-0.32893">
        <ele>143.37</ele>
        <time>2012-06-24T08:53:50Z</time>
      </trkpt>
      <trkpt lat="49.01522" lon="-0.32889">
        <ele>142.89</ele>
        <time>2012-06-24T08:53:51Z</time>
      </trkpt>
      <trkpt lat="49.01525" lon="-0.32888">
        <ele>142.41</ele>
        <time>2012-06-24T08:53:52Z</time>
      </trkpt>
      <trkpt lat="49.01563" lon="-0.32872">
        <ele>142.41</ele>
        <time>2012-06-24T08:54:00Z</time>
      </trkpt>
      <trkpt lat="49.01603" lon="-0.32848">
        <ele>141.93</ele>
        <time>2012-06-24T08:54:07Z</time>
      </trkpt>
      <trkpt lat="49.01609" lon="-0.32847">
        <ele>140.97</ele>
        <time>2012-06-24T08:54:08Z</time>
      </trkpt>
      <trkpt lat="49.01615" lon="-0.32851">
        <ele>141.45</ele>
        <time>2012-06-24T08:54:09Z</time>
      </trkpt>
      <trkpt lat="49.0162" lon="-0.32857">
        <ele>140.01</ele>
        <time>2012-06-24T08:54:10Z</time>
      </trkpt>
      <trkpt lat="49.01624" lon="-0.32864">
        <ele>140.01</ele>
        <time>2012-06-24T08:54:11Z</time>
      </trkpt>
      <trkpt lat="49.01628" lon="-0.32872">
        <ele>139.53</ele>
        <time>2012-06-24T08:54:12Z</time>
      </trkpt>
      <trkpt lat="49.01637" lon="-0.32885">
        <ele>140.01</ele>
        <time>2012-06-24T08:54:14Z</time>
      </trkpt>
      <trkpt lat="49.01648" lon="-0.32895">
        <ele>140.49</ele>
        <time>2012-06-24T08:54:16Z</time>
      </trkpt>
      <trkpt lat="49.01655" lon="-0.32898">
        <ele>140.01</ele>
        <time>2012-06-24T08:54:17Z</time>
      </trkpt>
      <trkpt lat="49.01662" lon="-0.329">
        <ele>140.01</ele>
        <time>2012-06-24T08:54:18Z</time>
      </trkpt>
      <trkpt lat="49.01669" lon="-0.329">
        <ele>140.49</ele>
        <time>2012-06-24T08:54:19Z</time>
      </trkpt>
      <trkpt lat="49.01676" lon="-0.32899">
        <ele>139.05</ele>
        <time>2012-06-24T08:54:20Z</time>
      </trkpt>
      <trkpt lat="49.01684" lon="-0.32898">
        <ele>138.57</ele>
        <time>2012-06-24T08:54:21Z</time>
      </trkpt>
      <trkpt lat="49.01797" lon="-0.3288">
        <ele>136.64</ele>
        <time>2012-06-24T08:54:35Z</time>
      </trkpt>
      <trkpt lat="49.01912" lon="-0.32864">
        <ele>135.68</ele>
        <time>2012-06-24T08:54:49Z</time>
      </trkpt>
      <trkpt lat="49.01916" lon="-0.32867">
        <ele>135.2</ele>
        <time>2012-06-24T08:54:50Z</time>
      </trkpt>
      <trkpt lat="49.01919" lon="-0.32874">
        <ele>133.76</ele>
        <time>2012-06-24T08:54:51Z</time>
      </trkpt>
      <trkpt lat="49.0192" lon="-0.32883">
        <ele>134.24</ele>
        <time>2012-06-24T08:54:52Z</time>
      </trkpt>
      <trkpt lat="49.01922" lon="-0.32892">
        <ele>133.28</ele>
        <time>2012-06-24T08:54:53Z</time>
      </trkpt>
      <trkpt lat="49.01924" lon="-0.32901">
        <ele>132.8</ele>
        <time>2012-06-24T08:54:54Z</time>
      </trkpt>
      <trkpt lat="49.01926" lon="-0.3291">
        <ele>133.76</ele>
        <time>2012-06-24T08:54:55Z</time>
      </trkpt>
      <trkpt lat="49.01929" lon="-0.32918">
        <ele>134.24</ele>
        <time>2012-06-24T08:54:56Z</time>
      </trkpt>
      <trkpt lat="49.01956" lon="-0.33015">
        <ele>132.8</ele>
        <time>2012-06-24T08:55:06Z</time>
      </trkpt>
      <trkpt lat="49.01971" lon="-0.33066">
        <ele>130.88</ele>
        <time>2012-06-24T08:55:11Z</time>
      </trkpt>
      <trkpt lat="49.02006" lon="-0.33189">
        <ele>130.4</ele>
        <time>2012-06-24T08:55:23Z</time>
      </trkpt>
      <trkpt lat="49.02026" lon="-0.33253">
        <ele>128.47</ele>
        <time>2012-06-24T08:55:29Z</time>
      </trkpt>
      <trkpt lat="49.02031" lon="-0.33262">
        <ele>128.47</ele>
        <time>2012-06-24T08:55:30Z</time>
      </trkpt>
      <trkpt lat="49.02037" lon="-0.33271">
        <ele>127.99</ele>
        <time>2012-06-24T08:55:31Z</time>
      </trkpt>
      <trkpt lat="49.0205" lon="-0.33288">
        <ele>124.63</ele>
        <time>2012-06-24T08:55:33Z</time>
      </trkpt>
      <trkpt lat="49.02069" lon="-0.33313">
        <ele>124.15</ele>
        <time>2012-06-24T08:55:36Z</time>
      </trkpt>
      <trkpt lat="49.02073" lon="-0.33324">
        <ele>123.19</ele>
        <time>2012-06-24T08:55:37Z</time>
      </trkpt>
      <trkpt lat="49.02076" lon="-0.33337">
        <ele>122.22</ele>
        <time>2012-06-24T08:55:38Z</time>
      </trkpt>
      <trkpt lat="49.02077" lon="-0.3335">
        <ele>121.26</ele>
        <time>2012-06-24T08:55:39Z</time>
      </trkpt>
      <trkpt lat="49.02078" lon="-0.33364">
        <ele>121.26</ele>
        <time>2012-06-24T08:55:40Z</time>
      </trkpt>
      <trkpt lat="49.02091" lon="-0.3352">
        <ele>120.3</ele>
        <time>2012-06-24T08:55:52Z</time>
      </trkpt>
      <trkpt lat="49.02093" lon="-0.33532">
        <ele>120.78</ele>
        <time>2012-06-24T08:55:53Z</time>
      </trkpt>
      <trkpt lat="49.02096" lon="-0.33542">
        <ele>120.3</ele>
        <time>2012-06-24T08:55:54Z</time>
      </trkpt>
      <trkpt lat="49.02099" lon="-0.33551">
        <ele>120.78</ele>
        <time>2012-06-24T08:55:55Z</time>
      </trkpt>
      <trkpt lat="49.02104" lon="-0.33559">
        <ele>120.78</ele>
        <time>2012-06-24T08:55:56Z</time>
      </trkpt>
      <trkpt lat="49.02109" lon="-0.33567">
        <ele>120.78</ele>
        <time>2012-06-24T08:55:57Z</time>
      </trkpt>
      <trkpt lat="49.02178" lon="-0.33663">
        <ele>123.67</ele>
        <time>2012-06-24T08:56:10Z</time>
      </trkpt>
      <trkpt lat="49.02193" lon="-0.33686">
        <ele>126.07</ele>
        <time>2012-06-24T08:56:14Z</time>
      </trkpt>
      <trkpt lat="49.02224" lon="-0.33743">
        <ele>128.47</ele>
        <time>2012-06-24T08:56:26Z</time>
      </trkpt>
      <trkpt lat="49.02258" lon="-0.33807">
        <ele>130.4</ele>
        <time>2012-06-24T08:56:40Z</time>
      </trkpt>
      <trkpt lat="49.02302" lon="-0.33891">
        <ele>131.84</ele>
        <time>2012-06-24T08:56:57Z</time>
      </trkpt>
      <trkpt lat="49.02313" lon="-0.33911">
        <ele>132.32</ele>
        <time>2012-06-24T08:57:01Z</time>
      </trkpt>
      <trkpt lat="49.02354" lon="-0.33989">
        <ele>132.32</ele>
        <time>2012-06-24T08:57:14Z</time>
      </trkpt>
      <trkpt lat="49.02394" lon="-0.34077">
        <ele>131.84</ele>
        <time>2012-06-24T08:57:27Z</time>
      </trkpt>
      <trkpt lat="49.02398" lon="-0.34084">
        <ele>131.36</ele>
        <time>2012-06-24T08:57:28Z</time>
      </trkpt>
      <trkpt lat="49.02422" lon="-0.34142">
        <ele>131.84</ele>
        <time>2012-06-24T08:57:38Z</time>
      </trkpt>
      <trkpt lat="49.02423" lon="-0.34143">
        <ele>131.84</ele>
        <time>2012-06-24T08:57:50Z</time>
      </trkpt>
      <trkpt lat="49.02423" lon="-0.34143">
        <ele>132.32</ele>
        <time>2012-06-24T08:58:15Z</time>
      </trkpt>
      <trkpt lat="49.02424" lon="-0.34144">
        <ele>132.8</ele>
        <time>2012-06-24T08:58:42Z</time>
      </trkpt>
      <trkpt lat="49.02433" lon="-0.34169">
        <ele>131.84</ele>
        <time>2012-06-24T08:58:56Z</time>
      </trkpt>
      <trkpt lat="49.02451" lon="-0.34212">
        <ele>130.4</ele>
        <time>2012-06-24T08:59:04Z</time>
      </trkpt>
      <trkpt lat="49.0246" lon="-0.3424">
        <ele>128.95</ele>
        <time>2012-06-24T08:59:08Z</time>
      </trkpt>
      <trkpt lat="49.02479" lon="-0.34291">
        <ele>125.59</ele>
        <time>2012-06-24T08:59:14Z</time>
      </trkpt>
      <trkpt lat="49.02494" lon="-0.34333">
        <ele>122.22</ele>
        <time>2012-06-24T08:59:18Z</time>
      </trkpt>
      <trkpt lat="49.02509" lon="-0.34381">
        <ele>117.9</ele>
        <time>2012-06-24T08:59:22Z</time>
      </trkpt>
      <trkpt lat="49.02517" lon="-0.34406">
        <ele>116.46</ele>
        <time>2012-06-24T08:59:24Z</time>
      </trkpt>
      <trkpt lat="49.0253" lon="-0.34474">
        <ele>113.57</ele>
        <time>2012-06-24T08:59:29Z</time>
      </trkpt>
      <trkpt lat="49.02533" lon="-0.34498">
        <ele>114.05</ele>
        <time>2012-06-24T08:59:31Z</time>
      </trkpt>
      <trkpt lat="49.02536" lon="-0.34509">
        <ele>114.05</ele>
        <time>2012-06-24T08:59:32Z</time>
      </trkpt>
      <trkpt lat="49.0254" lon="-0.34517">
        <ele>115.5</ele>
        <time>2012-06-24T08:59:33Z</time>
      </trkpt>
      <trkpt lat="49.02543" lon="-0.34526">
        <ele>115.98</ele>
        <time>2012-06-24T08:59:34Z</time>
      </trkpt>
      <trkpt lat="49.02546" lon="-0.34534">
        <ele>115.98</ele>
        <time>2012-06-24T08:59:35Z</time>
      </trkpt>
      <trkpt lat="49.0256" lon="-0.34571">
        <ele>118.38</ele>
        <time>2012-06-24T08:59:40Z</time>
      </trkpt>
      <trkpt lat="49.02571" lon="-0.346">
        <ele>121.74</ele>
        <time>2012-06-24T08:59:45Z</time>
      </trkpt>
      <trkpt lat="49.02573" lon="-0.34606">
        <ele>123.19</ele>
        <time>2012-06-24T08:59:46Z</time>
      </trkpt>
      <trkpt lat="49.02575" lon="-0.34611">
        <ele>122.22</ele>
        <time>2012-06-24T08:59:47Z</time>
      </trkpt>
      <trkpt lat="49.02578" lon="-0.34623">
        <ele>123.19</ele>
        <time>2012-06-24T08:59:49Z</time>
      </trkpt>
      <trkpt lat="49.02596" lon="-0.34658">
        <ele>126.55</ele>
        <time>2012-06-24T08:59:58Z</time>
      </trkpt>
      <trkpt lat="49.02623" lon="-0.34669">
        <ele>127.51</ele>
        <time>2012-06-24T09:00:08Z</time>
      </trkpt>
      <trkpt lat="49.02646" lon="-0.34712">
        <ele>127.99</ele>
        <time>2012-06-24T09:00:21Z</time>
      </trkpt>
      <trkpt lat="49.02655" lon="-0.34752">
        <ele>128.95</ele>
        <time>2012-06-24T09:00:31Z</time>
      </trkpt>
      <trkpt lat="49.02668" lon="-0.34809">
        <ele>130.4</ele>
        <time>2012-06-24T09:00:44Z</time>
      </trkpt>
      <trkpt lat="49.02685" lon="-0.34876">
        <ele>132.8</ele>
        <time>2012-06-24T09:00:58Z</time>
      </trkpt>
      <trkpt lat="49.02705" lon="-0.34939">
        <ele>134.24</ele>
        <time>2012-06-24T09:01:12Z</time>
      </trkpt>
      <trkpt lat="49.02708" lon="-0.3494">
        <ele>134.24</ele>
        <time>2012-06-24T09:01:13Z</time>
      </trkpt>
      <trkpt lat="49.02716" lon="-0.34942">
        <ele>133.76</ele>
        <time>2012-06-24T09:01:15Z</time>
      </trkpt>
      <trkpt lat="49.0272" lon="-0.34943">
        <ele>133.28</ele>
        <time>2012-06-24T09:01:16Z</time>
      </trkpt>
      <trkpt lat="49.02725" lon="-0.34944">
        <ele>133.28</ele>
        <time>2012-06-24T09:01:17Z</time>
      </trkpt>
      <trkpt lat="49.02729" lon="-0.34943">
        <ele>133.76</ele>
        <time>2012-06-24T09:01:18Z</time>
      </trkpt>
      <trkpt lat="49.02733" lon="-0.34943">
        <ele>132.8</ele>
        <time>2012-06-24T09:01:19Z</time>
      </trkpt>
      <trkpt lat="49.02736" lon="-0.34944">
        <ele>133.76</ele>
        <time>2012-06-24T09:01:20Z</time>
      </trkpt>
      <trkpt lat="49.0274" lon="-0.34945">
        <ele>133.28</ele>
        <time>2012-06-24T09:01:21Z</time>
      </trkpt>
      <trkpt lat="49.02762" lon="-0.34948">
        <ele>133.76</ele>
        <time>2012-06-24T09:01:30Z</time>
      </trkpt>
      <trkpt lat="49.02763" lon="-0.3494">
        <ele>133.28</ele>
        <time>2012-06-24T09:01:33Z</time>
      </trkpt>
      <trkpt lat="49.02758" lon="-0.34898">
        <ele>133.28</ele>
        <time>2012-06-24T09:01:42Z</time>
      </trkpt>
      <trkpt lat="49.02759" lon="-0.34857">
        <ele>131.84</ele>
        <time>2012-06-24T09:01:49Z</time>
      </trkpt>
      <trkpt lat="49.02755" lon="-0.34825">
        <ele>130.4</ele>
        <time>2012-06-24T09:01:53Z</time>
      </trkpt>
      <trkpt lat="49.02753" lon="-0.34805">
        <ele>130.4</ele>
        <time>2012-06-24T09:01:55Z</time>
      </trkpt>
      <trkpt lat="49.02752" lon="-0.34794">
        <ele>130.4</ele>
        <time>2012-06-24T09:01:56Z</time>
      </trkpt>
      <trkpt lat="49.02747" lon="-0.34757">
        <ele>130.88</ele>
        <time>2012-06-24T09:02:00Z</time>
      </trkpt>
      <trkpt lat="49.02747" lon="-0.3473">
        <ele>129.43</ele>
        <time>2012-06-24T09:02:03Z</time>
      </trkpt>
      <trkpt lat="49.02746" lon="-0.34719">
        <ele>129.43</ele>
        <time>2012-06-24T09:02:04Z</time>
      </trkpt>
      <trkpt lat="49.02732" lon="-0.34634">
        <ele>126.55</ele>
        <time>2012-06-24T09:02:13Z</time>
      </trkpt>
      <trkpt lat="49.02728" lon="-0.34612">
        <ele>126.07</ele>
        <time>2012-06-24T09:02:15Z</time>
      </trkpt>
      <trkpt lat="49.02727" lon="-0.34602">
        <ele>125.59</ele>
        <time>2012-06-24T09:02:16Z</time>
      </trkpt>
      <trkpt lat="49.02721" lon="-0.34549">
        <ele>123.67</ele>
        <time>2012-06-24T09:02:21Z</time>
      </trkpt>
      <trkpt lat="49.02714" lon="-0.34491">
        <ele>121.26</ele>
        <time>2012-06-24T09:02:26Z</time>
      </trkpt>
      <trkpt lat="49.02711" lon="-0.34453">
        <ele>121.74</ele>
        <time>2012-06-24T09:02:29Z</time>
      </trkpt>
      <trkpt lat="49.02712" lon="-0.34442">
        <ele>121.26</ele>
        <time>2012-06-24T09:02:30Z</time>
      </trkpt>
      <trkpt lat="49.02717" lon="-0.34388">
        <ele>117.42</ele>
        <time>2012-06-24T09:02:36Z</time>
      </trkpt>
      <trkpt lat="49.02718" lon="-0.3438">
        <ele>117.9</ele>
        <time>2012-06-24T09:02:37Z</time>
      </trkpt>
      <trkpt lat="49.02723" lon="-0.34356">
        <ele>114.53</ele>
        <time>2012-06-24T09:02:41Z</time>
      </trkpt>
      <trkpt lat="49.02725" lon="-0.3435">
        <ele>114.53</ele>
        <time>2012-06-24T09:02:42Z</time>
      </trkpt>
      <trkpt lat="49.02733" lon="-0.3433">
        <ele>113.57</ele>
        <time>2012-06-24T09:02:46Z</time>
      </trkpt>
      <trkpt lat="49.02735" lon="-0.34326">
        <ele>113.09</ele>
        <time>2012-06-24T09:02:47Z</time>
      </trkpt>
      <trkpt lat="49.02738" lon="-0.34322">
        <ele>112.61</ele>
        <time>2012-06-24T09:02:48Z</time>
      </trkpt>
      <trkpt lat="49.02741" lon="-0.34317">
        <ele>113.09</ele>
        <time>2012-06-24T09:02:49Z</time>
      </trkpt>
      <trkpt lat="49.02743" lon="-0.34313">
        <ele>111.65</ele>
        <time>2012-06-24T09:02:50Z</time>
      </trkpt>
      <trkpt lat="49.02745" lon="-0.34296">
        <ele>110.21</ele>
        <time>2012-06-24T09:02:59Z</time>
      </trkpt>
      <trkpt lat="49.02744" lon="-0.34293">
        <ele>109.25</ele>
        <time>2012-06-24T09:03:00Z</time>
      </trkpt>
      <trkpt lat="49.0274" lon="-0.34281">
        <ele>110.69</ele>
        <time>2012-06-24T09:03:05Z</time>
      </trkpt>
      <trkpt lat="49.0273" lon="-0.34257">
        <ele>114.05</ele>
        <time>2012-06-24T09:03:16Z</time>
      </trkpt>
      <trkpt lat="49.02729" lon="-0.34255">
        <ele>114.05</ele>
        <time>2012-06-24T09:03:17Z</time>
      </trkpt>
      <trkpt lat="49.02725" lon="-0.34243">
        <ele>115.01</ele>
        <time>2012-06-24T09:03:21Z</time>
      </trkpt>
      <trkpt lat="49.02716" lon="-0.34221">
        <ele>116.94</ele>
        <time>2012-06-24T09:03:33Z</time>
      </trkpt>
      <trkpt lat="49.02712" lon="-0.34211">
        <ele>118.38</ele>
        <time>2012-06-24T09:03:36Z</time>
      </trkpt>
      <trkpt lat="49.02704" lon="-0.34197">
        <ele>119.34</ele>
        <time>2012-06-24T09:03:42Z</time>
      </trkpt>
      <trkpt lat="49.02704" lon="-0.34192">
        <ele>119.34</ele>
        <time>2012-06-24T09:03:44Z</time>
      </trkpt>
      <trkpt lat="49.02725" lon="-0.34167">
        <ele>120.78</ele>
        <time>2012-06-24T09:03:56Z</time>
      </trkpt>
      <trkpt lat="49.02769" lon="-0.34138">
        <ele>119.82</ele>
        <time>2012-06-24T09:04:11Z</time>
      </trkpt>
      <trkpt lat="49.02812" lon="-0.34098">
        <ele>118.86</ele>
        <time>2012-06-24T09:04:23Z</time>
      </trkpt>
      <trkpt lat="49.02841" lon="-0.3407">
        <ele>115.5</ele>
        <time>2012-06-24T09:04:29Z</time>
      </trkpt>
      <trkpt lat="49.02847" lon="-0.34065">
        <ele>115.5</ele>
        <time>2012-06-24T09:04:30Z</time>
      </trkpt>
      <trkpt lat="49.029" lon="-0.34031">
        <ele>114.53</ele>
        <time>2012-06-24T09:04:40Z</time>
      </trkpt>
      <trkpt lat="49.02958" lon="-0.34006">
        <ele>114.05</ele>
        <time>2012-06-24T09:04:50Z</time>
      </trkpt>
      <trkpt lat="49.02965" lon="-0.34004">
        <ele>113.09</ele>
        <time>2012-06-24T09:04:51Z</time>
      </trkpt>
      <trkpt lat="49.02971" lon="-0.34002">
        <ele>112.13</ele>
        <time>2012-06-24T09:04:52Z</time>
      </trkpt>
      <trkpt lat="49.02993" lon="-0.33994">
        <ele>109.73</ele>
        <time>2012-06-24T09:04:55Z</time>
      </trkpt>
      <trkpt lat="49.03" lon="-0.33989">
        <ele>109.73</ele>
        <time>2012-06-24T09:04:56Z</time>
      </trkpt>
      <trkpt lat="49.03018" lon="-0.33975">
        <ele>108.77</ele>
        <time>2012-06-24T09:04:59Z</time>
      </trkpt>
      <trkpt lat="49.03028" lon="-0.33968">
        <ele>109.25</ele>
        <time>2012-06-24T09:05:01Z</time>
      </trkpt>
      <trkpt lat="49.03041" lon="-0.33955">
        <ele>108.77</ele>
        <time>2012-06-24T09:05:04Z</time>
      </trkpt>
      <trkpt lat="49.03045" lon="-0.3395">
        <ele>109.25</ele>
        <time>2012-06-24T09:05:05Z</time>
      </trkpt>
      <trkpt lat="49.03064" lon="-0.33931">
        <ele>109.25</ele>
        <time>2012-06-24T09:05:09Z</time>
      </trkpt>
      <trkpt lat="49.03073" lon="-0.33923">
        <ele>108.29</ele>
        <time>2012-06-24T09:05:11Z</time>
      </trkpt>
      <trkpt lat="49.03077" lon="-0.33918">
        <ele>107.81</ele>
        <time>2012-06-24T09:05:12Z</time>
      </trkpt>
      <trkpt lat="49.03082" lon="-0.33912">
        <ele>107.81</ele>
        <time>2012-06-24T09:05:13Z</time>
      </trkpt>
      <trkpt lat="49.03087" lon="-0.33905">
        <ele>106.84</ele>
        <time>2012-06-24T09:05:14Z</time>
      </trkpt>
      <trkpt lat="49.03092" lon="-0.33898">
        <ele>107.32</ele>
        <time>2012-06-24T09:05:15Z</time>
      </trkpt>
      <trkpt lat="49.03114" lon="-0.3387">
        <ele>104.92</ele>
        <time>2012-06-24T09:05:19Z</time>
      </trkpt>
      <trkpt lat="49.03119" lon="-0.33861">
        <ele>104.92</ele>
        <time>2012-06-24T09:05:20Z</time>
      </trkpt>
      <trkpt lat="49.03128" lon="-0.33844">
        <ele>104.44</ele>
        <time>2012-06-24T09:05:22Z</time>
      </trkpt>
      <trkpt lat="49.03134" lon="-0.33827">
        <ele>104.44</ele>
        <time>2012-06-24T09:05:24Z</time>
      </trkpt>
      <trkpt lat="49.03136" lon="-0.33819">
        <ele>104.92</ele>
        <time>2012-06-24T09:05:25Z</time>
      </trkpt>
      <trkpt lat="49.03145" lon="-0.33784">
        <ele>105.88</ele>
        <time>2012-06-24T09:05:29Z</time>
      </trkpt>
      <trkpt lat="49.03147" lon="-0.33776">
        <ele>106.36</ele>
        <time>2012-06-24T09:05:30Z</time>
      </trkpt>
      <trkpt lat="49.03151" lon="-0.33769">
        <ele>104.92</ele>
        <time>2012-06-24T09:05:31Z</time>
      </trkpt>
      <trkpt lat="49.03155" lon="-0.33762">
        <ele>104.44</ele>
        <time>2012-06-24T09:05:32Z</time>
      </trkpt>
      <trkpt lat="49.0316" lon="-0.33754">
        <ele>103.48</ele>
        <time>2012-06-24T09:05:33Z</time>
      </trkpt>
      <trkpt lat="49.03165" lon="-0.33747">
        <ele>102.04</ele>
        <time>2012-06-24T09:05:34Z</time>
      </trkpt>
      <trkpt lat="49.0317" lon="-0.3374">
        <ele>101.08</ele>
        <time>2012-06-24T09:05:35Z</time>
      </trkpt>
      <trkpt lat="49.03175" lon="-0.33734">
        <ele>101.56</ele>
        <time>2012-06-24T09:05:36Z</time>
      </trkpt>
      <trkpt lat="49.03198" lon="-0.3371">
        <ele>99.63</ele>
        <time>2012-06-24T09:05:40Z</time>
      </trkpt>
      <trkpt lat="49.03239" lon="-0.33658">
        <ele>99.63</ele>
        <time>2012-06-24T09:05:47Z</time>
      </trkpt>
      <trkpt lat="49.03243" lon="-0.33648">
        <ele>100.6</ele>
        <time>2012-06-24T09:05:48Z</time>
      </trkpt>
      <trkpt lat="49.03248" lon="-0.33638">
        <ele>100.11</ele>
        <time>2012-06-24T09:05:49Z</time>
      </trkpt>
      <trkpt lat="49.03252" lon="-0.33629">
        <ele>100.6</ele>
        <time>2012-06-24T09:05:50Z</time>
      </trkpt>
      <trkpt lat="49.03255" lon="-0.33621">
        <ele>101.08</ele>
        <time>2012-06-24T09:05:51Z</time>
      </trkpt>
      <trkpt lat="49.03261" lon="-0.33604">
        <ele>100.11</ele>
        <time>2012-06-24T09:05:53Z</time>
      </trkpt>
      <trkpt lat="49.03277" lon="-0.33568">
        <ele>99.63</ele>
        <time>2012-06-24T09:05:57Z</time>
      </trkpt>
      <trkpt lat="49.03281" lon="-0.3356">
        <ele>100.11</ele>
        <time>2012-06-24T09:05:58Z</time>
      </trkpt>
      <trkpt lat="49.03286" lon="-0.33554">
        <ele>99.63</ele>
        <time>2012-06-24T09:05:59Z</time>
      </trkpt>
      <trkpt lat="49.03308" lon="-0.33524">
        <ele>98.19</ele>
        <time>2012-06-24T09:06:04Z</time>
      </trkpt>
      <trkpt lat="49.03364" lon="-0.3345">
        <ele>98.67</ele>
        <time>2012-06-24T09:06:15Z</time>
      </trkpt>
      <trkpt lat="49.03369" lon="-0.33442">
        <ele>98.19</ele>
        <time>2012-06-24T09:06:16Z</time>
      </trkpt>
      <trkpt lat="49.0338" lon="-0.33427">
        <ele>99.15</ele>
        <time>2012-06-24T09:06:18Z</time>
      </trkpt>
      <trkpt lat="49.03391" lon="-0.33414">
        <ele>99.15</ele>
        <time>2012-06-24T09:06:20Z</time>
      </trkpt>
      <trkpt lat="49.03397" lon="-0.33409">
        <ele>98.19</ele>
        <time>2012-06-24T09:06:21Z</time>
      </trkpt>
      <trkpt lat="49.03403" lon="-0.33405">
        <ele>98.67</ele>
        <time>2012-06-24T09:06:22Z</time>
      </trkpt>
      <trkpt lat="49.03409" lon="-0.33404">
        <ele>98.19</ele>
        <time>2012-06-24T09:06:23Z</time>
      </trkpt>
      <trkpt lat="49.03414" lon="-0.33403">
        <ele>97.23</ele>
        <time>2012-06-24T09:06:24Z</time>
      </trkpt>
      <trkpt lat="49.03425" lon="-0.33401">
        <ele>96.27</ele>
        <time>2012-06-24T09:06:26Z</time>
      </trkpt>
      <trkpt lat="49.03431" lon="-0.33398">
        <ele>96.75</ele>
        <time>2012-06-24T09:06:27Z</time>
      </trkpt>
      <trkpt lat="49.03435" lon="-0.33394">
        <ele>95.31</ele>
        <time>2012-06-24T09:06:28Z</time>
      </trkpt>
      <trkpt lat="49.0344" lon="-0.33391">
        <ele>96.27</ele>
        <time>2012-06-24T09:06:29Z</time>
      </trkpt>
      <trkpt lat="49.03445" lon="-0.33388">
        <ele>94.83</ele>
        <time>2012-06-24T09:06:30Z</time>
      </trkpt>
      <trkpt lat="49.0345" lon="-0.33386">
        <ele>94.35</ele>
        <time>2012-06-24T09:06:31Z</time>
      </trkpt>
      <trkpt lat="49.03455" lon="-0.33383">
        <ele>94.83</ele>
        <time>2012-06-24T09:06:32Z</time>
      </trkpt>
      <trkpt lat="49.03461" lon="-0.33379">
        <ele>94.35</ele>
        <time>2012-06-24T09:06:33Z</time>
      </trkpt>
      <trkpt lat="49.03475" lon="-0.33369">
        <ele>94.35</ele>
        <time>2012-06-24T09:06:35Z</time>
      </trkpt>
      <trkpt lat="49.03483" lon="-0.33363">
        <ele>93.87</ele>
        <time>2012-06-24T09:06:36Z</time>
      </trkpt>
      <trkpt lat="49.03551" lon="-0.33323">
        <ele>91.46</ele>
        <time>2012-06-24T09:06:45Z</time>
      </trkpt>
      <trkpt lat="49.03577" lon="-0.33316">
        <ele>89.54</ele>
        <time>2012-06-24T09:06:48Z</time>
      </trkpt>
      <trkpt lat="49.03658" lon="-0.33274">
        <ele>88.58</ele>
        <time>2012-06-24T09:06:57Z</time>
      </trkpt>
      <trkpt lat="49.03712" lon="-0.3324">
        <ele>88.58</ele>
        <time>2012-06-24T09:07:04Z</time>
      </trkpt>
      <trkpt lat="49.0378" lon="-0.33178">
        <ele>87.62</ele>
        <time>2012-06-24T09:07:14Z</time>
      </trkpt>
      <trkpt lat="49.0381" lon="-0.33144">
        <ele>88.58</ele>
        <time>2012-06-24T09:07:21Z</time>
      </trkpt>
      <trkpt lat="49.03811" lon="-0.3314">
        <ele>88.1</ele>
        <time>2012-06-24T09:07:22Z</time>
      </trkpt>
      <trkpt lat="49.03814" lon="-0.33136">
        <ele>87.62</ele>
        <time>2012-06-24T09:07:23Z</time>
      </trkpt>
      <trkpt lat="49.03828" lon="-0.33119">
        <ele>87.62</ele>
        <time>2012-06-24T09:07:26Z</time>
      </trkpt>
      <trkpt lat="49.03885" lon="-0.33075">
        <ele>83.77</ele>
        <time>2012-06-24T09:07:35Z</time>
      </trkpt>
      <trkpt lat="49.03934" lon="-0.33046">
        <ele>81.37</ele>
        <time>2012-06-24T09:07:41Z</time>
      </trkpt>
      <trkpt lat="49.04003" lon="-0.33018">
        <ele>78</ele>
        <time>2012-06-24T09:07:48Z</time>
      </trkpt>
      <trkpt lat="49.04033" lon="-0.33004">
        <ele>76.56</ele>
        <time>2012-06-24T09:07:51Z</time>
      </trkpt>
      <trkpt lat="49.04128" lon="-0.32919">
        <ele>73.68</ele>
        <time>2012-06-24T09:08:02Z</time>
      </trkpt>
      <trkpt lat="49.04144" lon="-0.32897">
        <ele>72.24</ele>
        <time>2012-06-24T09:08:04Z</time>
      </trkpt>
      <trkpt lat="49.04161" lon="-0.32873">
        <ele>67.91</ele>
        <time>2012-06-24T09:08:06Z</time>
      </trkpt>
      <trkpt lat="49.0417" lon="-0.32861">
        <ele>68.39</ele>
        <time>2012-06-24T09:08:07Z</time>
      </trkpt>
      <trkpt lat="49.04206" lon="-0.32815">
        <ele>64.55</ele>
        <time>2012-06-24T09:08:11Z</time>
      </trkpt>
      <trkpt lat="49.04258" lon="-0.3277">
        <ele>61.66</ele>
        <time>2012-06-24T09:08:16Z</time>
      </trkpt>
      <trkpt lat="49.04283" lon="-0.32757">
        <ele>58.3</ele>
        <time>2012-06-24T09:08:18Z</time>
      </trkpt>
      <trkpt lat="49.04297" lon="-0.32751">
        <ele>58.78</ele>
        <time>2012-06-24T09:08:19Z</time>
      </trkpt>
      <trkpt lat="49.0431" lon="-0.32745">
        <ele>56.37</ele>
        <time>2012-06-24T09:08:20Z</time>
      </trkpt>
      <trkpt lat="49.04336" lon="-0.32739">
        <ele>55.41</ele>
        <time>2012-06-24T09:08:22Z</time>
      </trkpt>
      <trkpt lat="49.04361" lon="-0.32738">
        <ele>58.78</ele>
        <time>2012-06-24T09:08:25Z</time>
      </trkpt>
      <trkpt lat="49.04364" lon="-0.32738">
        <ele>58.78</ele>
        <time>2012-06-24T09:08:26Z</time>
      </trkpt>
      <trkpt lat="49.04364" lon="-0.3274">
        <ele>59.74</ele>
        <time>2012-06-24T09:08:27Z</time>
      </trkpt>
      <trkpt lat="49.04364" lon="-0.32743">
        <ele>58.78</ele>
        <time>2012-06-24T09:08:28Z</time>
      </trkpt>
      <trkpt lat="49.04362" lon="-0.32745">
        <ele>58.78</ele>
        <time>2012-06-24T09:08:29Z</time>
      </trkpt>
      <trkpt lat="49.04359" lon="-0.32744">
        <ele>58.78</ele>
        <time>2012-06-24T09:08:30Z</time>
      </trkpt>
      <trkpt lat="49.04357" lon="-0.32743">
        <ele>59.26</ele>
        <time>2012-06-24T09:08:31Z</time>
      </trkpt>
      <trkpt lat="49.04344" lon="-0.32737">
        <ele>58.78</ele>
        <time>2012-06-24T09:08:35Z</time>
      </trkpt>
      <trkpt lat="49.04343" lon="-0.32732">
        <ele>59.26</ele>
        <time>2012-06-24T09:08:36Z</time>
      </trkpt>
      <trkpt lat="49.04343" lon="-0.32727">
        <ele>59.74</ele>
        <time>2012-06-24T09:08:37Z</time>
      </trkpt>
      <trkpt lat="49.04344" lon="-0.3272">
        <ele>59.74</ele>
        <time>2012-06-24T09:08:38Z</time>
      </trkpt>
      <trkpt lat="49.04346" lon="-0.32714">
        <ele>58.3</ele>
        <time>2012-06-24T09:08:39Z</time>
      </trkpt>
      <trkpt lat="49.04348" lon="-0.32707">
        <ele>58.78</ele>
        <time>2012-06-24T09:08:40Z</time>
      </trkpt>
      <trkpt lat="49.04372" lon="-0.3264">
        <ele>59.26</ele>
        <time>2012-06-24T09:08:52Z</time>
      </trkpt>
      <trkpt lat="49.04375" lon="-0.32641">
        <ele>58.78</ele>
        <time>2012-06-24T09:08:53Z</time>
      </trkpt>
      <trkpt lat="49.04379" lon="-0.32643">
        <ele>58.78</ele>
        <time>2012-06-24T09:08:54Z</time>
      </trkpt>
      <trkpt lat="49.04442" lon="-0.32664">
        <ele>58.3</ele>
        <time>2012-06-24T09:09:07Z</time>
      </trkpt>
      <trkpt lat="49.04497" lon="-0.32662">
        <ele>57.82</ele>
        <time>2012-06-24T09:09:17Z</time>
      </trkpt>
      <trkpt lat="49.04501" lon="-0.32658">
        <ele>57.82</ele>
        <time>2012-06-24T09:09:18Z</time>
      </trkpt>
      <trkpt lat="49.04504" lon="-0.32652">
        <ele>58.3</ele>
        <time>2012-06-24T09:09:19Z</time>
      </trkpt>
      <trkpt lat="49.04505" lon="-0.32644">
        <ele>58.3</ele>
        <time>2012-06-24T09:09:20Z</time>
      </trkpt>
      <trkpt lat="49.04504" lon="-0.32637">
        <ele>58.78</ele>
        <time>2012-06-24T09:09:21Z</time>
      </trkpt>
      <trkpt lat="49.04504" lon="-0.3263">
        <ele>58.3</ele>
        <time>2012-06-24T09:09:22Z</time>
      </trkpt>
      <trkpt lat="49.04504" lon="-0.32623">
        <ele>58.3</ele>
        <time>2012-06-24T09:09:23Z</time>
      </trkpt>
      <trkpt lat="49.04505" lon="-0.32617">
        <ele>58.3</ele>
        <time>2012-06-24T09:09:24Z</time>
      </trkpt>
      <trkpt lat="49.04505" lon="-0.3261">
        <ele>58.78</ele>
        <time>2012-06-24T09:09:25Z</time>
      </trkpt>
      <trkpt lat="49.04506" lon="-0.32597">
        <ele>58.78</ele>
        <time>2012-06-24T09:09:27Z</time>
      </trkpt>
      <trkpt lat="49.04506" lon="-0.32591">
        <ele>59.26</ele>
        <time>2012-06-24T09:09:28Z</time>
      </trkpt>
      <trkpt lat="49.04504" lon="-0.32582">
        <ele>60.22</ele>
        <time>2012-06-24T09:09:30Z</time>
      </trkpt>
      <trkpt lat="49.04497" lon="-0.3257">
        <ele>62.14</ele>
        <time>2012-06-24T09:09:33Z</time>
      </trkpt>
      <trkpt lat="49.04489" lon="-0.32557">
        <ele>65.03</ele>
        <time>2012-06-24T09:09:38Z</time>
      </trkpt>
      <trkpt lat="49.04489" lon="-0.32554">
        <ele>65.51</ele>
        <time>2012-06-24T09:09:39Z</time>
      </trkpt>
      <trkpt lat="49.04491" lon="-0.32551">
        <ele>65.03</ele>
        <time>2012-06-24T09:09:40Z</time>
      </trkpt>
      <trkpt lat="49.04494" lon="-0.3255">
        <ele>65.51</ele>
        <time>2012-06-24T09:09:41Z</time>
      </trkpt>
      <trkpt lat="49.04497" lon="-0.32548">
        <ele>65.99</ele>
        <time>2012-06-24T09:09:42Z</time>
      </trkpt>
      <trkpt lat="49.04499" lon="-0.32545">
        <ele>65.99</ele>
        <time>2012-06-24T09:09:43Z</time>
      </trkpt>
      <trkpt lat="49.045" lon="-0.32541">
        <ele>65.99</ele>
        <time>2012-06-24T09:09:44Z</time>
      </trkpt>
      <trkpt lat="49.045" lon="-0.32536">
        <ele>66.95</ele>
        <time>2012-06-24T09:09:45Z</time>
      </trkpt>
      <trkpt lat="49.045" lon="-0.32532">
        <ele>66.95</ele>
        <time>2012-06-24T09:09:46Z</time>
      </trkpt>
      <trkpt lat="49.04499" lon="-0.32529">
        <ele>67.43</ele>
        <time>2012-06-24T09:09:47Z</time>
      </trkpt>
      <trkpt lat="49.0449" lon="-0.3249">
        <ele>71.27</ele>
        <time>2012-06-24T09:09:59Z</time>
      </trkpt>
      <trkpt lat="49.04473" lon="-0.32472">
        <ele>73.68</ele>
        <time>2012-06-24T09:10:11Z</time>
      </trkpt>
      <trkpt lat="49.04453" lon="-0.32441">
        <ele>76.08</ele>
        <time>2012-06-24T09:10:27Z</time>
      </trkpt>
      <trkpt lat="49.04446" lon="-0.32418">
        <ele>79.45</ele>
        <time>2012-06-24T09:10:38Z</time>
      </trkpt>
      <trkpt lat="49.04445" lon="-0.32415">
        <ele>78.97</ele>
        <time>2012-06-24T09:10:39Z</time>
      </trkpt>
      <trkpt lat="49.04445" lon="-0.32413">
        <ele>79.93</ele>
        <time>2012-06-24T09:10:40Z</time>
      </trkpt>
      <trkpt lat="49.04445" lon="-0.32407">
        <ele>79.45</ele>
        <time>2012-06-24T09:10:42Z</time>
      </trkpt>
      <trkpt lat="49.04443" lon="-0.32405">
        <ele>80.41</ele>
        <time>2012-06-24T09:10:43Z</time>
      </trkpt>
      <trkpt lat="49.04428" lon="-0.32368">
        <ele>82.81</ele>
        <time>2012-06-24T09:10:58Z</time>
      </trkpt>
      <trkpt lat="49.04423" lon="-0.32347">
        <ele>84.25</ele>
        <time>2012-06-24T09:11:06Z</time>
      </trkpt>
      <trkpt lat="49.04413" lon="-0.32312">
        <ele>87.14</ele>
        <time>2012-06-24T09:11:20Z</time>
      </trkpt>
      <trkpt lat="49.04396" lon="-0.3228">
        <ele>90.5</ele>
        <time>2012-06-24T09:11:35Z</time>
      </trkpt>
      <trkpt lat="49.04381" lon="-0.32237">
        <ele>91.94</ele>
        <time>2012-06-24T09:11:48Z</time>
      </trkpt>
      <trkpt lat="49.04366" lon="-0.32172">
        <ele>94.35</ele>
        <time>2012-06-24T09:12:03Z</time>
      </trkpt>
      <trkpt lat="49.04348" lon="-0.3209">
        <ele>95.79</ele>
        <time>2012-06-24T09:12:20Z</time>
      </trkpt>
      <trkpt lat="49.04344" lon="-0.3205">
        <ele>96.27</ele>
        <time>2012-06-24T09:12:27Z</time>
      </trkpt>
      <trkpt lat="49.04339" lon="-0.31998">
        <ele>96.75</ele>
        <time>2012-06-24T09:12:34Z</time>
      </trkpt>
      <trkpt lat="49.0434" lon="-0.31991">
        <ele>96.75</ele>
        <time>2012-06-24T09:12:35Z</time>
      </trkpt>
      <trkpt lat="49.04343" lon="-0.31984">
        <ele>96.27</ele>
        <time>2012-06-24T09:12:36Z</time>
      </trkpt>
      <trkpt lat="49.04347" lon="-0.31979">
        <ele>96.75</ele>
        <time>2012-06-24T09:12:37Z</time>
      </trkpt>
      <trkpt lat="49.0435" lon="-0.31973">
        <ele>97.71</ele>
        <time>2012-06-24T09:12:38Z</time>
      </trkpt>
      <trkpt lat="49.04352" lon="-0.31966">
        <ele>97.23</ele>
        <time>2012-06-24T09:12:39Z</time>
      </trkpt>
      <trkpt lat="49.04352" lon="-0.31958">
        <ele>97.23</ele>
        <time>2012-06-24T09:12:40Z</time>
      </trkpt>
      <trkpt lat="49.04351" lon="-0.3195">
        <ele>97.23</ele>
        <time>2012-06-24T09:12:41Z</time>
      </trkpt>
      <trkpt lat="49.04349" lon="-0.31943">
        <ele>97.71</ele>
        <time>2012-06-24T09:12:42Z</time>
      </trkpt>
      <trkpt lat="49.04347" lon="-0.31937">
        <ele>97.71</ele>
        <time>2012-06-24T09:12:43Z</time>
      </trkpt>
      <trkpt lat="49.04346" lon="-0.3193">
        <ele>97.71</ele>
        <time>2012-06-24T09:12:44Z</time>
      </trkpt>
      <trkpt lat="49.04346" lon="-0.31923">
        <ele>97.71</ele>
        <time>2012-06-24T09:12:45Z</time>
      </trkpt>
      <trkpt lat="49.04349" lon="-0.31918">
        <ele>97.71</ele>
        <time>2012-06-24T09:12:46Z</time>
      </trkpt>
      <trkpt lat="49.04355" lon="-0.31912">
        <ele>98.67</ele>
        <time>2012-06-24T09:12:48Z</time>
      </trkpt>
      <trkpt lat="49.04358" lon="-0.31907">
        <ele>98.19</ele>
        <time>2012-06-24T09:12:49Z</time>
      </trkpt>
      <trkpt lat="49.04367" lon="-0.31899">
        <ele>98.19</ele>
        <time>2012-06-24T09:12:51Z</time>
      </trkpt>
      <trkpt lat="49.04425" lon="-0.31867">
        <ele>97.23</ele>
        <time>2012-06-24T09:13:01Z</time>
      </trkpt>
      <trkpt lat="49.04464" lon="-0.31841">
        <ele>96.27</ele>
        <time>2012-06-24T09:13:08Z</time>
      </trkpt>
      <trkpt lat="49.04473" lon="-0.31811">
        <ele>95.31</ele>
        <time>2012-06-24T09:13:12Z</time>
      </trkpt>
      <trkpt lat="49.04474" lon="-0.31787">
        <ele>95.79</ele>
        <time>2012-06-24T09:13:15Z</time>
      </trkpt>
      <trkpt lat="49.04473" lon="-0.31779">
        <ele>95.79</ele>
        <time>2012-06-24T09:13:16Z</time>
      </trkpt>
      <trkpt lat="49.04471" lon="-0.31773">
        <ele>96.27</ele>
        <time>2012-06-24T09:13:17Z</time>
      </trkpt>
      <trkpt lat="49.04468" lon="-0.31767">
        <ele>95.79</ele>
        <time>2012-06-24T09:13:18Z</time>
      </trkpt>
      <trkpt lat="49.04464" lon="-0.31763">
        <ele>97.23</ele>
        <time>2012-06-24T09:13:19Z</time>
      </trkpt>
      <trkpt lat="49.0446" lon="-0.31759">
        <ele>96.75</ele>
        <time>2012-06-24T09:13:20Z</time>
      </trkpt>
      <trkpt lat="49.04456" lon="-0.31757">
        <ele>95.31</ele>
        <time>2012-06-24T09:13:21Z</time>
      </trkpt>
      <trkpt lat="49.04434" lon="-0.31744">
        <ele>97.71</ele>
        <time>2012-06-24T09:13:28Z</time>
      </trkpt>
      <trkpt lat="49.04433" lon="-0.31743">
        <ele>97.23</ele>
        <time>2012-06-24T09:13:29Z</time>
      </trkpt>
      <trkpt lat="49.04432" lon="-0.31744">
        <ele>97.71</ele>
        <time>2012-06-24T09:13:40Z</time>
      </trkpt>
      <trkpt lat="49.04432" lon="-0.31744">
        <ele>97.71</ele>
        <time>2012-06-24T09:14:04Z</time>
      </trkpt>
      <trkpt lat="49.04432" lon="-0.31744">
        <ele>97.71</ele>
        <time>2012-06-24T09:14:26Z</time>
      </trkpt>
      <trkpt lat="49.04432" lon="-0.31744">
        <ele>97.71</ele>
        <time>2012-06-24T09:14:50Z</time>
      </trkpt>
      <trkpt lat="49.04432" lon="-0.31744">
        <ele>98.67</ele>
        <time>2012-06-24T09:15:25Z</time>
      </trkpt>
      <trkpt lat="49.04432" lon="-0.31744">
        <ele>98.19</ele>
        <time>2012-06-24T09:15:51Z</time>
      </trkpt>
      <trkpt lat="49.04432" lon="-0.31744">
        <ele>98.67</ele>
        <time>2012-06-24T09:16:15Z</time>
      </trkpt>
    </trkseg>
  </trk>
</gpx>